<?xml version="1.0" encoding="UTF-8"?>
<gpx xmlns="http://www.topografix.com/GPX/1/1" xmlns:dkl="http://www.gpsware.de/DKL/1/1" xmlns:rtx="http://www.bike-gps.de/RTX/1/1" version="1.1" creator="KOMPASS Digital Map" xmlns:xsi="http://www.w3.org/2001/XMLSchema-instance" xsi:schemaLocation="http://www.topografix.com/GPX/1/1 http://www.topografix.com/GPX/1/1/gpx.xsd">
 <metadata>
 <name>KOMPASS Digital Map Track</name>
 <desc> </desc>
 <time>2011-10-22T16:44:00Z</time>
 <bounds minlat="47.808811" minlon="13.009361" maxlat="48.259506" maxlon="13.153079"/>
 </metadata>
 <trk>
 <name>2011_Bru_Sb_Mattigradweg</name>
 <cmt>Mattig - Radweg (bis Sb verlängert)</cmt>
 <extensions>
 <dkl:dkl>
 <dkl:format_version>1.1</dkl:format_version>
 <dkl:format>
 <dkl:color>FF0000</dkl:color>
 <dkl:style>00000000</dkl:style>
 <dkl:strength>3</dkl:strength>
 <dkl:transparent>0</dkl:transparent>
 </dkl:format>
 <dkl:profile>
 <dkl:mode>0</dkl:mode>
 <dkl:smooth>1</dkl:smooth>
 </dkl:profile>
 </dkl:dkl>
 </extensions>
 <trkseg>
 <trkpt lat="48.257996" lon="13.047466">
 <ele>345.93</ele>
 <time>2011-10-22T08:54:43Z</time>
 </trkpt>
 <trkpt lat="48.257904" lon="13.047523">
 <ele>346.30</ele>
 <time>2011-10-22T08:54:50Z</time>
 </trkpt>
 <trkpt lat="48.257938" lon="13.047514">
 <ele>346.06</ele>
 <time>2011-10-22T08:54:53Z</time>
 </trkpt>
 <trkpt lat="48.257950" lon="13.047489">
 <ele>346.06</ele>
 <time>2011-10-22T08:54:56Z</time>
 </trkpt>
 <trkpt lat="48.257858" lon="13.047592">
 <ele>346.16</ele>
 <time>2011-10-22T08:55:04Z</time>
 </trkpt>
 <trkpt lat="48.257847" lon="13.047608">
 <ele>346.10</ele>
 <time>2011-10-22T08:55:05Z</time>
 </trkpt>
 <trkpt lat="48.257843" lon="13.047639">
 <ele>345.73</ele>
 <time>2011-10-22T08:55:10Z</time>
 </trkpt>
 <trkpt lat="48.257759" lon="13.047710">
 <ele>345.07</ele>
 <time>2011-10-22T08:55:17Z</time>
 </trkpt>
 <trkpt lat="48.257732" lon="13.047727">
 <ele>345.00</ele>
 <time>2011-10-22T08:55:18Z</time>
 </trkpt>
 <trkpt lat="48.257637" lon="13.047943">
 <ele>344.23</ele>
 <time>2011-10-22T08:55:23Z</time>
 </trkpt>
 <trkpt lat="48.257553" lon="13.048195">
 <ele>343.86</ele>
 <time>2011-10-22T08:55:28Z</time>
 </trkpt>
 <trkpt lat="48.257465" lon="13.048570">
 <ele>343.98</ele>
 <time>2011-10-22T08:55:35Z</time>
 </trkpt>
 <trkpt lat="48.257359" lon="13.049074">
 <ele>343.46</ele>
 <time>2011-10-22T08:55:44Z</time>
 </trkpt>
 <trkpt lat="48.257290" lon="13.049485">
 <ele>343.29</ele>
 <time>2011-10-22T08:55:51Z</time>
 </trkpt>
 <trkpt lat="48.257313" lon="13.049765">
 <ele>343.34</ele>
 <time>2011-10-22T08:55:56Z</time>
 </trkpt>
 <trkpt lat="48.257244" lon="13.050244">
 <ele>342.48</ele>
 <time>2011-10-22T08:56:04Z</time>
 </trkpt>
 <trkpt lat="48.257137" lon="13.050765">
 <ele>342.36</ele>
 <time>2011-10-22T08:56:13Z</time>
 </trkpt>
 <trkpt lat="48.256992" lon="13.051365">
 <ele>342.31</ele>
 <time>2011-10-22T08:56:23Z</time>
 </trkpt>
 <trkpt lat="48.257053" lon="13.051785">
 <ele>341.47</ele>
 <time>2011-10-22T08:56:30Z</time>
 </trkpt>
 <trkpt lat="48.257252" lon="13.052141">
 <ele>340.93</ele>
 <time>2011-10-22T08:56:36Z</time>
 </trkpt>
 <trkpt lat="48.257324" lon="13.052568">
 <ele>340.60</ele>
 <time>2011-10-22T08:56:43Z</time>
 </trkpt>
 <trkpt lat="48.257374" lon="13.052978">
 <ele>340.46</ele>
 <time>2011-10-22T08:56:50Z</time>
 </trkpt>
 <trkpt lat="48.257519" lon="13.053322">
 <ele>340.33</ele>
 <time>2011-10-22T08:56:57Z</time>
 </trkpt>
 <trkpt lat="48.257523" lon="13.053343">
 <ele>340.59</ele>
 <time>2011-10-22T08:56:58Z</time>
 </trkpt>
 <trkpt lat="48.257610" lon="13.053395">
 <ele>341.38</ele>
 <time>2011-10-22T08:57:02Z</time>
 </trkpt>
 <trkpt lat="48.257675" lon="13.053352">
 <ele>341.56</ele>
 <time>2011-10-22T08:57:04Z</time>
 </trkpt>
 <trkpt lat="48.257931" lon="13.053157">
 <ele>341.53</ele>
 <time>2011-10-22T08:57:11Z</time>
 </trkpt>
 <trkpt lat="48.258152" lon="13.052975">
 <ele>341.19</ele>
 <time>2011-10-22T08:57:17Z</time>
 </trkpt>
 <trkpt lat="48.258465" lon="13.052679">
 <ele>340.26</ele>
 <time>2011-10-22T08:57:25Z</time>
 </trkpt>
 <trkpt lat="48.258808" lon="13.052349">
 <ele>340.25</ele>
 <time>2011-10-22T08:57:34Z</time>
 </trkpt>
 <trkpt lat="48.259056" lon="13.052220">
 <ele>340.39</ele>
 <time>2011-10-22T08:57:40Z</time>
 </trkpt>
 <trkpt lat="48.259090" lon="13.052232">
 <ele>340.40</ele>
 <time>2011-10-22T08:57:41Z</time>
 </trkpt>
 <trkpt lat="48.259193" lon="13.052279">
 <ele>340.46</ele>
 <time>2011-10-22T08:57:43Z</time>
 </trkpt>
 <trkpt lat="48.259323" lon="13.052439">
 <ele>340.30</ele>
 <time>2011-10-22T08:57:47Z</time>
 </trkpt>
 <trkpt lat="48.259323" lon="13.052487">
 <ele>340.30</ele>
 <time>2011-10-22T08:57:48Z</time>
 </trkpt>
 <trkpt lat="48.259293" lon="13.052700">
 <ele>339.93</ele>
 <time>2011-10-22T08:57:52Z</time>
 </trkpt>
 <trkpt lat="48.259232" lon="13.053238">
 <ele>340.09</ele>
 <time>2011-10-22T08:58:01Z</time>
 </trkpt>
 <trkpt lat="48.259186" lon="13.053925">
 <ele>340.34</ele>
 <time>2011-10-22T08:58:12Z</time>
 </trkpt>
 <trkpt lat="48.259186" lon="13.054436">
 <ele>340.55</ele>
 <time>2011-10-22T08:58:20Z</time>
 </trkpt>
 <trkpt lat="48.259071" lon="13.054984">
 <ele>341.10</ele>
 <time>2011-10-22T08:58:29Z</time>
 </trkpt>
 <trkpt lat="48.258968" lon="13.055600">
 <ele>341.21</ele>
 <time>2011-10-22T08:58:39Z</time>
 </trkpt>
 <trkpt lat="48.258907" lon="13.056039">
 <ele>341.64</ele>
 <time>2011-10-22T08:58:46Z</time>
 </trkpt>
 <trkpt lat="48.258797" lon="13.056456">
 <ele>342.14</ele>
 <time>2011-10-22T08:58:53Z</time>
 </trkpt>
 <trkpt lat="48.258621" lon="13.057014">
 <ele>343.06</ele>
 <time>2011-10-22T08:59:02Z</time>
 </trkpt>
 <trkpt lat="48.258541" lon="13.057547">
 <ele>343.26</ele>
 <time>2011-10-22T08:59:10Z</time>
 </trkpt>
 <trkpt lat="48.258465" lon="13.058133">
 <ele>343.90</ele>
 <time>2011-10-22T08:59:19Z</time>
 </trkpt>
 <trkpt lat="48.258423" lon="13.058800">
 <ele>344.77</ele>
 <time>2011-10-22T08:59:29Z</time>
 </trkpt>
 <trkpt lat="48.258396" lon="13.059050">
 <ele>344.76</ele>
 <time>2011-10-22T08:59:34Z</time>
 </trkpt>
 <trkpt lat="48.258396" lon="13.059082">
 <ele>344.89</ele>
 <time>2011-10-22T08:59:35Z</time>
 </trkpt>
 <trkpt lat="48.258507" lon="13.059166">
 <ele>345.94</ele>
 <time>2011-10-22T08:59:40Z</time>
 </trkpt>
 <trkpt lat="48.258537" lon="13.059177">
 <ele>345.98</ele>
 <time>2011-10-22T08:59:41Z</time>
 </trkpt>
 <trkpt lat="48.258759" lon="13.059283">
 <ele>345.64</ele>
 <time>2011-10-22T08:59:47Z</time>
 </trkpt>
 <trkpt lat="48.258907" lon="13.059405">
 <ele>345.41</ele>
 <time>2011-10-22T08:59:52Z</time>
 </trkpt>
 <trkpt lat="48.258915" lon="13.059609">
 <ele>345.14</ele>
 <time>2011-10-22T08:59:56Z</time>
 </trkpt>
 <trkpt lat="48.258984" lon="13.059875">
 <ele>344.92</ele>
 <time>2011-10-22T09:00:01Z</time>
 </trkpt>
 <trkpt lat="48.259174" lon="13.060320">
 <ele>344.96</ele>
 <time>2011-10-22T09:00:09Z</time>
 </trkpt>
 <trkpt lat="48.259407" lon="13.060857">
 <ele>345.59</ele>
 <time>2011-10-22T09:00:19Z</time>
 </trkpt>
 <trkpt lat="48.259506" lon="13.061228">
 <ele>346.12</ele>
 <time>2011-10-22T09:00:26Z</time>
 </trkpt>
 <trkpt lat="48.259434" lon="13.061350">
 <ele>347.01</ele>
 <time>2011-10-22T09:00:30Z</time>
 </trkpt>
 <trkpt lat="48.259167" lon="13.061527">
 <ele>347.73</ele>
 <time>2011-10-22T09:00:38Z</time>
 </trkpt>
 <trkpt lat="48.258968" lon="13.061692">
 <ele>347.83</ele>
 <time>2011-10-22T09:00:45Z</time>
 </trkpt>
 <trkpt lat="48.258690" lon="13.061885">
 <ele>348.31</ele>
 <time>2011-10-22T09:00:53Z</time>
 </trkpt>
 <trkpt lat="48.258343" lon="13.062059">
 <ele>348.91</ele>
 <time>2011-10-22T09:01:01Z</time>
 </trkpt>
 <trkpt lat="48.258137" lon="13.062157">
 <ele>349.07</ele>
 <time>2011-10-22T09:01:07Z</time>
 </trkpt>
 <trkpt lat="48.258083" lon="13.062189">
 <ele>349.59</ele>
 <time>2011-10-22T09:01:09Z</time>
 </trkpt>
 <trkpt lat="48.258026" lon="13.062258">
 <ele>351.57</ele>
 <time>2011-10-22T09:01:13Z</time>
 </trkpt>
 <trkpt lat="48.257900" lon="13.062282">
 <ele>353.28</ele>
 <time>2011-10-22T09:01:19Z</time>
 </trkpt>
 <trkpt lat="48.257763" lon="13.062319">
 <ele>353.10</ele>
 <time>2011-10-22T09:01:24Z</time>
 </trkpt>
 <trkpt lat="48.257744" lon="13.062329">
 <ele>352.85</ele>
 <time>2011-10-22T09:01:25Z</time>
 </trkpt>
 <trkpt lat="48.257717" lon="13.062391">
 <ele>352.58</ele>
 <time>2011-10-22T09:01:32Z</time>
 </trkpt>
 <trkpt lat="48.257668" lon="13.062464">
 <ele>352.46</ele>
 <time>2011-10-22T09:01:40Z</time>
 </trkpt>
 <trkpt lat="48.257557" lon="13.062603">
 <ele>352.13</ele>
 <time>2011-10-22T09:01:45Z</time>
 </trkpt>
 <trkpt lat="48.257347" lon="13.062801">
 <ele>351.64</ele>
 <time>2011-10-22T09:01:53Z</time>
 </trkpt>
 <trkpt lat="48.257099" lon="13.063010">
 <ele>351.27</ele>
 <time>2011-10-22T09:02:01Z</time>
 </trkpt>
 <trkpt lat="48.256855" lon="13.063267">
 <ele>352.68</ele>
 <time>2011-10-22T09:02:09Z</time>
 </trkpt>
 <trkpt lat="48.256721" lon="13.063406">
 <ele>353.92</ele>
 <time>2011-10-22T09:02:15Z</time>
 </trkpt>
 <trkpt lat="48.256611" lon="13.063551">
 <ele>355.25</ele>
 <time>2011-10-22T09:02:19Z</time>
 </trkpt>
 <trkpt lat="48.256474" lon="13.063824">
 <ele>355.98</ele>
 <time>2011-10-22T09:02:25Z</time>
 </trkpt>
 <trkpt lat="48.256313" lon="13.064132">
 <ele>356.23</ele>
 <time>2011-10-22T09:02:32Z</time>
 </trkpt>
 <trkpt lat="48.256153" lon="13.064478">
 <ele>357.23</ele>
 <time>2011-10-22T09:02:40Z</time>
 </trkpt>
 <trkpt lat="48.255974" lon="13.064953">
 <ele>357.52</ele>
 <time>2011-10-22T09:02:49Z</time>
 </trkpt>
 <trkpt lat="48.255798" lon="13.065332">
 <ele>358.41</ele>
 <time>2011-10-22T09:02:56Z</time>
 </trkpt>
 <trkpt lat="48.255711" lon="13.065502">
 <ele>358.80</ele>
 <time>2011-10-22T09:02:59Z</time>
 </trkpt>
 <trkpt lat="48.255611" lon="13.065874">
 <ele>358.93</ele>
 <time>2011-10-22T09:03:06Z</time>
 </trkpt>
 <trkpt lat="48.255600" lon="13.065936">
 <ele>359.71</ele>
 <time>2011-10-22T09:03:11Z</time>
 </trkpt>
 <trkpt lat="48.255501" lon="13.065962">
 <ele>359.96</ele>
 <time>2011-10-22T09:03:28Z</time>
 </trkpt>
 <trkpt lat="48.255470" lon="13.065991">
 <ele>360.34</ele>
 <time>2011-10-22T09:03:46Z</time>
 </trkpt>
 <trkpt lat="48.255444" lon="13.066014">
 <ele>360.39</ele>
 <time>2011-10-22T09:03:47Z</time>
 </trkpt>
 <trkpt lat="48.255417" lon="13.066048">
 <ele>360.24</ele>
 <time>2011-10-22T09:03:48Z</time>
 </trkpt>
 <trkpt lat="48.255241" lon="13.066363">
 <ele>358.90</ele>
 <time>2011-10-22T09:03:55Z</time>
 </trkpt>
 <trkpt lat="48.255035" lon="13.066609">
 <ele>360.50</ele>
 <time>2011-10-22T09:04:02Z</time>
 </trkpt>
 <trkpt lat="48.254787" lon="13.066890">
 <ele>360.77</ele>
 <time>2011-10-22T09:04:10Z</time>
 </trkpt>
 <trkpt lat="48.254475" lon="13.067283">
 <ele>362.13</ele>
 <time>2011-10-22T09:04:20Z</time>
 </trkpt>
 <trkpt lat="48.254333" lon="13.067422">
 <ele>362.31</ele>
 <time>2011-10-22T09:04:24Z</time>
 </trkpt>
 <trkpt lat="48.254154" lon="13.067630">
 <ele>362.66</ele>
 <time>2011-10-22T09:04:30Z</time>
 </trkpt>
 <trkpt lat="48.253925" lon="13.068090">
 <ele>363.22</ele>
 <time>2011-10-22T09:04:39Z</time>
 </trkpt>
 <trkpt lat="48.253681" lon="13.068633">
 <ele>364.06</ele>
 <time>2011-10-22T09:04:49Z</time>
 </trkpt>
 <trkpt lat="48.253494" lon="13.069039">
 <ele>364.25</ele>
 <time>2011-10-22T09:04:57Z</time>
 </trkpt>
 <trkpt lat="48.253414" lon="13.069216">
 <ele>364.97</ele>
 <time>2011-10-22T09:05:02Z</time>
 </trkpt>
 <trkpt lat="48.253494" lon="13.069386">
 <ele>365.56</ele>
 <time>2011-10-22T09:05:07Z</time>
 </trkpt>
 <trkpt lat="48.253578" lon="13.069629">
 <ele>366.08</ele>
 <time>2011-10-22T09:05:12Z</time>
 </trkpt>
 <trkpt lat="48.253548" lon="13.069849">
 <ele>366.66</ele>
 <time>2011-10-22T09:05:16Z</time>
 </trkpt>
 <trkpt lat="48.253464" lon="13.070049">
 <ele>367.23</ele>
 <time>2011-10-22T09:05:20Z</time>
 </trkpt>
 <trkpt lat="48.253410" lon="13.070142">
 <ele>367.41</ele>
 <time>2011-10-22T09:05:22Z</time>
 </trkpt>
 <trkpt lat="48.253311" lon="13.070347">
 <ele>367.63</ele>
 <time>2011-10-22T09:05:26Z</time>
 </trkpt>
 <trkpt lat="48.253036" lon="13.070809">
 <ele>367.87</ele>
 <time>2011-10-22T09:05:36Z</time>
 </trkpt>
 <trkpt lat="48.252853" lon="13.071048">
 <ele>368.54</ele>
 <time>2011-10-22T09:05:42Z</time>
 </trkpt>
 <trkpt lat="48.252605" lon="13.071287">
 <ele>369.36</ele>
 <time>2011-10-22T09:05:49Z</time>
 </trkpt>
 <trkpt lat="48.252518" lon="13.071374">
 <ele>369.67</ele>
 <time>2011-10-22T09:05:52Z</time>
 </trkpt>
 <trkpt lat="48.252529" lon="13.071548">
 <ele>370.61</ele>
 <time>2011-10-22T09:05:57Z</time>
 </trkpt>
 <trkpt lat="48.252541" lon="13.071584">
 <ele>370.79</ele>
 <time>2011-10-22T09:05:58Z</time>
 </trkpt>
 <trkpt lat="48.252590" lon="13.071720">
 <ele>371.44</ele>
 <time>2011-10-22T09:06:02Z</time>
 </trkpt>
 <trkpt lat="48.252522" lon="13.071836">
 <ele>371.28</ele>
 <time>2011-10-22T09:06:06Z</time>
 </trkpt>
 <trkpt lat="48.252201" lon="13.072063">
 <ele>370.66</ele>
 <time>2011-10-22T09:06:14Z</time>
 </trkpt>
 <trkpt lat="48.251835" lon="13.072343">
 <ele>371.83</ele>
 <time>2011-10-22T09:06:23Z</time>
 </trkpt>
 <trkpt lat="48.251484" lon="13.072504">
 <ele>372.45</ele>
 <time>2011-10-22T09:06:31Z</time>
 </trkpt>
 <trkpt lat="48.251167" lon="13.072560">
 <ele>373.42</ele>
 <time>2011-10-22T09:06:38Z</time>
 </trkpt>
 <trkpt lat="48.250755" lon="13.072510">
 <ele>374.25</ele>
 <time>2011-10-22T09:06:47Z</time>
 </trkpt>
 <trkpt lat="48.250343" lon="13.072403">
 <ele>374.45</ele>
 <time>2011-10-22T09:06:56Z</time>
 </trkpt>
 <trkpt lat="48.249935" lon="13.072412">
 <ele>375.50</ele>
 <time>2011-10-22T09:07:05Z</time>
 </trkpt>
 <trkpt lat="48.249500" lon="13.072518">
 <ele>375.69</ele>
 <time>2011-10-22T09:07:15Z</time>
 </trkpt>
 <trkpt lat="48.249168" lon="13.072684">
 <ele>376.92</ele>
 <time>2011-10-22T09:07:23Z</time>
 </trkpt>
 <trkpt lat="48.248936" lon="13.072851">
 <ele>376.86</ele>
 <time>2011-10-22T09:07:29Z</time>
 </trkpt>
 <trkpt lat="48.248711" lon="13.073056">
 <ele>377.59</ele>
 <time>2011-10-22T09:07:35Z</time>
 </trkpt>
 <trkpt lat="48.248371" lon="13.073365">
 <ele>378.13</ele>
 <time>2011-10-22T09:07:44Z</time>
 </trkpt>
 <trkpt lat="48.248238" lon="13.073545">
 <ele>378.91</ele>
 <time>2011-10-22T09:07:49Z</time>
 </trkpt>
 <trkpt lat="48.248226" lon="13.073659">
 <ele>379.06</ele>
 <time>2011-10-22T09:07:51Z</time>
 </trkpt>
 <trkpt lat="48.248253" lon="13.073909">
 <ele>379.69</ele>
 <time>2011-10-22T09:07:55Z</time>
 </trkpt>
 <trkpt lat="48.248211" lon="13.074218">
 <ele>380.17</ele>
 <time>2011-10-22T09:08:00Z</time>
 </trkpt>
 <trkpt lat="48.248161" lon="13.074311">
 <ele>380.35</ele>
 <time>2011-10-22T09:08:02Z</time>
 </trkpt>
 <trkpt lat="48.247963" lon="13.074563">
 <ele>382.82</ele>
 <time>2011-10-22T09:08:10Z</time>
 </trkpt>
 <trkpt lat="48.247849" lon="13.074704">
 <ele>384.09</ele>
 <time>2011-10-22T09:08:16Z</time>
 </trkpt>
 <trkpt lat="48.247646" lon="13.074808">
 <ele>384.29</ele>
 <time>2011-10-22T09:08:22Z</time>
 </trkpt>
 <trkpt lat="48.247551" lon="13.074970">
 <ele>384.31</ele>
 <time>2011-10-22T09:08:26Z</time>
 </trkpt>
 <trkpt lat="48.247524" lon="13.075280">
 <ele>385.59</ele>
 <time>2011-10-22T09:08:32Z</time>
 </trkpt>
 <trkpt lat="48.247524" lon="13.075608">
 <ele>387.55</ele>
 <time>2011-10-22T09:08:39Z</time>
 </trkpt>
 <trkpt lat="48.247551" lon="13.075974">
 <ele>389.34</ele>
 <time>2011-10-22T09:08:47Z</time>
 </trkpt>
 <trkpt lat="48.247547" lon="13.076164">
 <ele>390.77</ele>
 <time>2011-10-22T09:08:51Z</time>
 </trkpt>
 <trkpt lat="48.247307" lon="13.076296">
 <ele>392.44</ele>
 <time>2011-10-22T09:08:59Z</time>
 </trkpt>
 <trkpt lat="48.246967" lon="13.076478">
 <ele>392.60</ele>
 <time>2011-10-22T09:09:09Z</time>
 </trkpt>
 <trkpt lat="48.246685" lon="13.076618">
 <ele>394.11</ele>
 <time>2011-10-22T09:09:17Z</time>
 </trkpt>
 <trkpt lat="48.246284" lon="13.076776">
 <ele>395.96</ele>
 <time>2011-10-22T09:09:28Z</time>
 </trkpt>
 <trkpt lat="48.245903" lon="13.076876">
 <ele>397.50</ele>
 <time>2011-10-22T09:09:38Z</time>
 </trkpt>
 <trkpt lat="48.245567" lon="13.076949">
 <ele>397.75</ele>
 <time>2011-10-22T09:09:46Z</time>
 </trkpt>
 <trkpt lat="48.245167" lon="13.077012">
 <ele>399.44</ele>
 <time>2011-10-22T09:09:56Z</time>
 </trkpt>
 <trkpt lat="48.244713" lon="13.077081">
 <ele>399.43</ele>
 <time>2011-10-22T09:10:07Z</time>
 </trkpt>
 <trkpt lat="48.244328" lon="13.077141">
 <ele>399.50</ele>
 <time>2011-10-22T09:10:16Z</time>
 </trkpt>
 <trkpt lat="48.243954" lon="13.077233">
 <ele>400.60</ele>
 <time>2011-10-22T09:10:25Z</time>
 </trkpt>
 <trkpt lat="48.243587" lon="13.077342">
 <ele>401.30</ele>
 <time>2011-10-22T09:10:34Z</time>
 </trkpt>
 <trkpt lat="48.243221" lon="13.077484">
 <ele>402.18</ele>
 <time>2011-10-22T09:10:43Z</time>
 </trkpt>
 <trkpt lat="48.242840" lon="13.077631">
 <ele>402.86</ele>
 <time>2011-10-22T09:10:52Z</time>
 </trkpt>
 <trkpt lat="48.242554" lon="13.077752">
 <ele>403.38</ele>
 <time>2011-10-22T09:10:59Z</time>
 </trkpt>
 <trkpt lat="48.242218" lon="13.077912">
 <ele>403.99</ele>
 <time>2011-10-22T09:11:07Z</time>
 </trkpt>
 <trkpt lat="48.241867" lon="13.078079">
 <ele>404.34</ele>
 <time>2011-10-22T09:11:15Z</time>
 </trkpt>
 <trkpt lat="48.241459" lon="13.078187">
 <ele>405.32</ele>
 <time>2011-10-22T09:11:24Z</time>
 </trkpt>
 <trkpt lat="48.240948" lon="13.078274">
 <ele>405.82</ele>
 <time>2011-10-22T09:11:35Z</time>
 </trkpt>
 <trkpt lat="48.240498" lon="13.078350">
 <ele>406.33</ele>
 <time>2011-10-22T09:11:45Z</time>
 </trkpt>
 <trkpt lat="48.240009" lon="13.078427">
 <ele>407.32</ele>
 <time>2011-10-22T09:11:56Z</time>
 </trkpt>
 <trkpt lat="48.239616" lon="13.078562">
 <ele>409.15</ele>
 <time>2011-10-22T09:12:05Z</time>
 </trkpt>
 <trkpt lat="48.239391" lon="13.078658">
 <ele>409.35</ele>
 <time>2011-10-22T09:12:10Z</time>
 </trkpt>
 <trkpt lat="48.239120" lon="13.078657">
 <ele>410.18</ele>
 <time>2011-10-22T09:12:16Z</time>
 </trkpt>
 <trkpt lat="48.238731" lon="13.078365">
 <ele>410.71</ele>
 <time>2011-10-22T09:12:25Z</time>
 </trkpt>
 <trkpt lat="48.238495" lon="13.078105">
 <ele>410.77</ele>
 <time>2011-10-22T09:12:31Z</time>
 </trkpt>
 <trkpt lat="48.238235" lon="13.077642">
 <ele>411.20</ele>
 <time>2011-10-22T09:12:39Z</time>
 </trkpt>
 <trkpt lat="48.238106" lon="13.077377">
 <ele>411.19</ele>
 <time>2011-10-22T09:12:43Z</time>
 </trkpt>
 <trkpt lat="48.237934" lon="13.077109">
 <ele>410.12</ele>
 <time>2011-10-22T09:12:47Z</time>
 </trkpt>
 <trkpt lat="48.237656" lon="13.076796">
 <ele>408.40</ele>
 <time>2011-10-22T09:12:52Z</time>
 </trkpt>
 <trkpt lat="48.237488" lon="13.076547">
 <ele>408.35</ele>
 <time>2011-10-22T09:12:56Z</time>
 </trkpt>
 <trkpt lat="48.237457" lon="13.076496">
 <ele>408.39</ele>
 <time>2011-10-22T09:12:57Z</time>
 </trkpt>
 <trkpt lat="48.237404" lon="13.076312">
 <ele>408.62</ele>
 <time>2011-10-22T09:13:00Z</time>
 </trkpt>
 <trkpt lat="48.237309" lon="13.075957">
 <ele>407.99</ele>
 <time>2011-10-22T09:13:05Z</time>
 </trkpt>
 <trkpt lat="48.237118" lon="13.075277">
 <ele>406.11</ele>
 <time>2011-10-22T09:13:13Z</time>
 </trkpt>
 <trkpt lat="48.236897" lon="13.074479">
 <ele>407.48</ele>
 <time>2011-10-22T09:13:23Z</time>
 </trkpt>
 <trkpt lat="48.236767" lon="13.074062">
 <ele>407.46</ele>
 <time>2011-10-22T09:13:28Z</time>
 </trkpt>
 <trkpt lat="48.236618" lon="13.073683">
 <ele>406.26</ele>
 <time>2011-10-22T09:13:32Z</time>
 </trkpt>
 <trkpt lat="48.236553" lon="13.073636">
 <ele>405.80</ele>
 <time>2011-10-22T09:13:33Z</time>
 </trkpt>
 <trkpt lat="48.236145" lon="13.073393">
 <ele>405.73</ele>
 <time>2011-10-22T09:13:40Z</time>
 </trkpt>
 <trkpt lat="48.235725" lon="13.073214">
 <ele>408.48</ele>
 <time>2011-10-22T09:13:49Z</time>
 </trkpt>
 <trkpt lat="48.235348" lon="13.072988">
 <ele>408.30</ele>
 <time>2011-10-22T09:13:57Z</time>
 </trkpt>
 <trkpt lat="48.235233" lon="13.072915">
 <ele>408.16</ele>
 <time>2011-10-22T09:13:59Z</time>
 </trkpt>
 <trkpt lat="48.234890" lon="13.072923">
 <ele>407.62</ele>
 <time>2011-10-22T09:14:05Z</time>
 </trkpt>
 <trkpt lat="48.234524" lon="13.073027">
 <ele>408.02</ele>
 <time>2011-10-22T09:14:12Z</time>
 </trkpt>
 <trkpt lat="48.234116" lon="13.073076">
 <ele>408.53</ele>
 <time>2011-10-22T09:14:20Z</time>
 </trkpt>
 <trkpt lat="48.233849" lon="13.073045">
 <ele>409.36</ele>
 <time>2011-10-22T09:14:26Z</time>
 </trkpt>
 <trkpt lat="48.233452" lon="13.072970">
 <ele>409.68</ele>
 <time>2011-10-22T09:14:34Z</time>
 </trkpt>
 <trkpt lat="48.233101" lon="13.072993">
 <ele>410.75</ele>
 <time>2011-10-22T09:14:41Z</time>
 </trkpt>
 <trkpt lat="48.233047" lon="13.072999">
 <ele>410.84</ele>
 <time>2011-10-22T09:14:42Z</time>
 </trkpt>
 <trkpt lat="48.232635" lon="13.073203">
 <ele>411.26</ele>
 <time>2011-10-22T09:14:51Z</time>
 </trkpt>
 <trkpt lat="48.232449" lon="13.073262">
 <ele>412.15</ele>
 <time>2011-10-22T09:14:55Z</time>
 </trkpt>
 <trkpt lat="48.232258" lon="13.073381">
 <ele>412.43</ele>
 <time>2011-10-22T09:14:59Z</time>
 </trkpt>
 <trkpt lat="48.232235" lon="13.073639">
 <ele>412.35</ele>
 <time>2011-10-22T09:15:03Z</time>
 </trkpt>
 <trkpt lat="48.232258" lon="13.074324">
 <ele>412.55</ele>
 <time>2011-10-22T09:15:13Z</time>
 </trkpt>
 <trkpt lat="48.232254" lon="13.074928">
 <ele>413.18</ele>
 <time>2011-10-22T09:15:22Z</time>
 </trkpt>
 <trkpt lat="48.232334" lon="13.075319">
 <ele>414.25</ele>
 <time>2011-10-22T09:15:28Z</time>
 </trkpt>
 <trkpt lat="48.232513" lon="13.075891">
 <ele>414.32</ele>
 <time>2011-10-22T09:15:37Z</time>
 </trkpt>
 <trkpt lat="48.232536" lon="13.076211">
 <ele>414.12</ele>
 <time>2011-10-22T09:15:42Z</time>
 </trkpt>
 <trkpt lat="48.232437" lon="13.076336">
 <ele>414.79</ele>
 <time>2011-10-22T09:15:45Z</time>
 </trkpt>
 <trkpt lat="48.232018" lon="13.076429">
 <ele>416.76</ele>
 <time>2011-10-22T09:15:55Z</time>
 </trkpt>
 <trkpt lat="48.231663" lon="13.076422">
 <ele>418.12</ele>
 <time>2011-10-22T09:16:03Z</time>
 </trkpt>
 <trkpt lat="48.231232" lon="13.076413">
 <ele>418.16</ele>
 <time>2011-10-22T09:16:12Z</time>
 </trkpt>
 <trkpt lat="48.230854" lon="13.076508">
 <ele>418.55</ele>
 <time>2011-10-22T09:16:20Z</time>
 </trkpt>
 <trkpt lat="48.230404" lon="13.076622">
 <ele>418.80</ele>
 <time>2011-10-22T09:16:30Z</time>
 </trkpt>
 <trkpt lat="48.229885" lon="13.076740">
 <ele>420.56</ele>
 <time>2011-10-22T09:16:42Z</time>
 </trkpt>
 <trkpt lat="48.229450" lon="13.076775">
 <ele>421.79</ele>
 <time>2011-10-22T09:16:52Z</time>
 </trkpt>
 <trkpt lat="48.228935" lon="13.076815">
 <ele>422.18</ele>
 <time>2011-10-22T09:17:03Z</time>
 </trkpt>
 <trkpt lat="48.228405" lon="13.076806">
 <ele>423.30</ele>
 <time>2011-10-22T09:17:14Z</time>
 </trkpt>
 <trkpt lat="48.227829" lon="13.076676">
 <ele>423.24</ele>
 <time>2011-10-22T09:17:26Z</time>
 </trkpt>
 <trkpt lat="48.227402" lon="13.076572">
 <ele>423.13</ele>
 <time>2011-10-22T09:17:35Z</time>
 </trkpt>
 <trkpt lat="48.227070" lon="13.076577">
 <ele>423.77</ele>
 <time>2011-10-22T09:17:42Z</time>
 </trkpt>
 <trkpt lat="48.226795" lon="13.076653">
 <ele>424.26</ele>
 <time>2011-10-22T09:17:48Z</time>
 </trkpt>
 <trkpt lat="48.226566" lon="13.076785">
 <ele>424.17</ele>
 <time>2011-10-22T09:17:53Z</time>
 </trkpt>
 <trkpt lat="48.226086" lon="13.076914">
 <ele>425.48</ele>
 <time>2011-10-22T09:18:03Z</time>
 </trkpt>
 <trkpt lat="48.225639" lon="13.076976">
 <ele>425.55</ele>
 <time>2011-10-22T09:18:12Z</time>
 </trkpt>
 <trkpt lat="48.225410" lon="13.077076">
 <ele>425.73</ele>
 <time>2011-10-22T09:18:18Z</time>
 </trkpt>
 <trkpt lat="48.225372" lon="13.077087">
 <ele>425.97</ele>
 <time>2011-10-22T09:18:19Z</time>
 </trkpt>
 <trkpt lat="48.225292" lon="13.077111">
 <ele>426.31</ele>
 <time>2011-10-22T09:18:21Z</time>
 </trkpt>
 <trkpt lat="48.225121" lon="13.077163">
 <ele>426.85</ele>
 <time>2011-10-22T09:18:25Z</time>
 </trkpt>
 <trkpt lat="48.224918" lon="13.077366">
 <ele>427.63</ele>
 <time>2011-10-22T09:18:30Z</time>
 </trkpt>
 <trkpt lat="48.224770" lon="13.077597">
 <ele>426.82</ele>
 <time>2011-10-22T09:18:35Z</time>
 </trkpt>
 <trkpt lat="48.224560" lon="13.078149">
 <ele>425.86</ele>
 <time>2011-10-22T09:18:45Z</time>
 </trkpt>
 <trkpt lat="48.224361" lon="13.078687">
 <ele>427.32</ele>
 <time>2011-10-22T09:18:55Z</time>
 </trkpt>
 <trkpt lat="48.224174" lon="13.079268">
 <ele>429.02</ele>
 <time>2011-10-22T09:19:06Z</time>
 </trkpt>
 <trkpt lat="48.224037" lon="13.079689">
 <ele>429.62</ele>
 <time>2011-10-22T09:19:14Z</time>
 </trkpt>
 <trkpt lat="48.223862" lon="13.080246">
 <ele>430.06</ele>
 <time>2011-10-22T09:19:24Z</time>
 </trkpt>
 <trkpt lat="48.223656" lon="13.080640">
 <ele>430.42</ele>
 <time>2011-10-22T09:19:32Z</time>
 </trkpt>
 <trkpt lat="48.223412" lon="13.081085">
 <ele>430.22</ele>
 <time>2011-10-22T09:19:41Z</time>
 </trkpt>
 <trkpt lat="48.223175" lon="13.081513">
 <ele>432.59</ele>
 <time>2011-10-22T09:19:50Z</time>
 </trkpt>
 <trkpt lat="48.222954" lon="13.081913">
 <ele>433.77</ele>
 <time>2011-10-22T09:19:59Z</time>
 </trkpt>
 <trkpt lat="48.222809" lon="13.082013">
 <ele>434.18</ele>
 <time>2011-10-22T09:20:04Z</time>
 </trkpt>
 <trkpt lat="48.222672" lon="13.082013">
 <ele>434.35</ele>
 <time>2011-10-22T09:20:08Z</time>
 </trkpt>
 <trkpt lat="48.222408" lon="13.081680">
 <ele>433.23</ele>
 <time>2011-10-22T09:20:15Z</time>
 </trkpt>
 <trkpt lat="48.222160" lon="13.081290">
 <ele>432.78</ele>
 <time>2011-10-22T09:20:22Z</time>
 </trkpt>
 <trkpt lat="48.222015" lon="13.081066">
 <ele>432.97</ele>
 <time>2011-10-22T09:20:26Z</time>
 </trkpt>
 <trkpt lat="48.221809" lon="13.080740">
 <ele>432.98</ele>
 <time>2011-10-22T09:20:32Z</time>
 </trkpt>
 <trkpt lat="48.221710" lon="13.080585">
 <ele>433.16</ele>
 <time>2011-10-22T09:20:35Z</time>
 </trkpt>
 <trkpt lat="48.221573" lon="13.080583">
 <ele>433.15</ele>
 <time>2011-10-22T09:20:39Z</time>
 </trkpt>
 <trkpt lat="48.221535" lon="13.080600">
 <ele>433.19</ele>
 <time>2011-10-22T09:20:40Z</time>
 </trkpt>
 <trkpt lat="48.221237" lon="13.080745">
 <ele>433.26</ele>
 <time>2011-10-22T09:20:47Z</time>
 </trkpt>
 <trkpt lat="48.221062" lon="13.080871">
 <ele>433.54</ele>
 <time>2011-10-22T09:20:51Z</time>
 </trkpt>
 <trkpt lat="48.220909" lon="13.081054">
 <ele>433.73</ele>
 <time>2011-10-22T09:20:55Z</time>
 </trkpt>
 <trkpt lat="48.220722" lon="13.081638">
 <ele>434.08</ele>
 <time>2011-10-22T09:21:04Z</time>
 </trkpt>
 <trkpt lat="48.220615" lon="13.082162">
 <ele>433.86</ele>
 <time>2011-10-22T09:21:12Z</time>
 </trkpt>
 <trkpt lat="48.220512" lon="13.082687">
 <ele>434.04</ele>
 <time>2011-10-22T09:21:20Z</time>
 </trkpt>
 <trkpt lat="48.220486" lon="13.082813">
 <ele>433.90</ele>
 <time>2011-10-22T09:21:22Z</time>
 </trkpt>
 <trkpt lat="48.220303" lon="13.083248">
 <ele>434.68</ele>
 <time>2011-10-22T09:21:30Z</time>
 </trkpt>
 <trkpt lat="48.219963" lon="13.083859">
 <ele>435.02</ele>
 <time>2011-10-22T09:21:42Z</time>
 </trkpt>
 <trkpt lat="48.219612" lon="13.084483">
 <ele>436.44</ele>
 <time>2011-10-22T09:21:54Z</time>
 </trkpt>
 <trkpt lat="48.219376" lon="13.084938">
 <ele>437.34</ele>
 <time>2011-10-22T09:22:03Z</time>
 </trkpt>
 <trkpt lat="48.219173" lon="13.085401">
 <ele>437.89</ele>
 <time>2011-10-22T09:22:11Z</time>
 </trkpt>
 <trkpt lat="48.218945" lon="13.085915">
 <ele>437.97</ele>
 <time>2011-10-22T09:22:20Z</time>
 </trkpt>
 <trkpt lat="48.218914" lon="13.086197">
 <ele>438.22</ele>
 <time>2011-10-22T09:22:25Z</time>
 </trkpt>
 <trkpt lat="48.218952" lon="13.086415">
 <ele>438.35</ele>
 <time>2011-10-22T09:22:29Z</time>
 </trkpt>
 <trkpt lat="48.218971" lon="13.086528">
 <ele>438.42</ele>
 <time>2011-10-22T09:22:31Z</time>
 </trkpt>
 <trkpt lat="48.219231" lon="13.087038">
 <ele>439.17</ele>
 <time>2011-10-22T09:22:42Z</time>
 </trkpt>
 <trkpt lat="48.219261" lon="13.087152">
 <ele>439.38</ele>
 <time>2011-10-22T09:22:44Z</time>
 </trkpt>
 <trkpt lat="48.219341" lon="13.087458">
 <ele>439.54</ele>
 <time>2011-10-22T09:22:49Z</time>
 </trkpt>
 <trkpt lat="48.219376" lon="13.087573">
 <ele>439.34</ele>
 <time>2011-10-22T09:22:51Z</time>
 </trkpt>
 <trkpt lat="48.219337" lon="13.088178">
 <ele>440.46</ele>
 <time>2011-10-22T09:23:01Z</time>
 </trkpt>
 <trkpt lat="48.219280" lon="13.088660">
 <ele>441.40</ele>
 <time>2011-10-22T09:23:09Z</time>
 </trkpt>
 <trkpt lat="48.219223" lon="13.089225">
 <ele>443.11</ele>
 <time>2011-10-22T09:23:19Z</time>
 </trkpt>
 <trkpt lat="48.219158" lon="13.089888">
 <ele>442.79</ele>
 <time>2011-10-22T09:23:30Z</time>
 </trkpt>
 <trkpt lat="48.218975" lon="13.090384">
 <ele>443.47</ele>
 <time>2011-10-22T09:23:40Z</time>
 </trkpt>
 <trkpt lat="48.218769" lon="13.090821">
 <ele>444.13</ele>
 <time>2011-10-22T09:23:49Z</time>
 </trkpt>
 <trkpt lat="48.218506" lon="13.091362">
 <ele>444.56</ele>
 <time>2011-10-22T09:24:00Z</time>
 </trkpt>
 <trkpt lat="48.218216" lon="13.091803">
 <ele>445.15</ele>
 <time>2011-10-22T09:24:10Z</time>
 </trkpt>
 <trkpt lat="48.217876" lon="13.092321">
 <ele>445.81</ele>
 <time>2011-10-22T09:24:22Z</time>
 </trkpt>
 <trkpt lat="48.217617" lon="13.092716">
 <ele>445.92</ele>
 <time>2011-10-22T09:24:31Z</time>
 </trkpt>
 <trkpt lat="48.217285" lon="13.093162">
 <ele>445.80</ele>
 <time>2011-10-22T09:24:42Z</time>
 </trkpt>
 <trkpt lat="48.216991" lon="13.093552">
 <ele>446.27</ele>
 <time>2011-10-22T09:24:52Z</time>
 </trkpt>
 <trkpt lat="48.216702" lon="13.093877">
 <ele>446.83</ele>
 <time>2011-10-22T09:25:01Z</time>
 </trkpt>
 <trkpt lat="48.216297" lon="13.094199">
 <ele>447.38</ele>
 <time>2011-10-22T09:25:12Z</time>
 </trkpt>
 <trkpt lat="48.216267" lon="13.094225">
 <ele>447.40</ele>
 <time>2011-10-22T09:25:13Z</time>
 </trkpt>
 <trkpt lat="48.216129" lon="13.094071">
 <ele>447.74</ele>
 <time>2011-10-22T09:25:18Z</time>
 </trkpt>
 <trkpt lat="48.215935" lon="13.093586">
 <ele>447.05</ele>
 <time>2011-10-22T09:25:26Z</time>
 </trkpt>
 <trkpt lat="48.215698" lon="13.093002">
 <ele>446.50</ele>
 <time>2011-10-22T09:25:35Z</time>
 </trkpt>
 <trkpt lat="48.215656" lon="13.092876">
 <ele>446.54</ele>
 <time>2011-10-22T09:25:37Z</time>
 </trkpt>
 <trkpt lat="48.215557" lon="13.092625">
 <ele>446.92</ele>
 <time>2011-10-22T09:25:42Z</time>
 </trkpt>
 <trkpt lat="48.215446" lon="13.092619">
 <ele>446.85</ele>
 <time>2011-10-22T09:25:45Z</time>
 </trkpt>
 <trkpt lat="48.215408" lon="13.092643">
 <ele>446.57</ele>
 <time>2011-10-22T09:25:46Z</time>
 </trkpt>
 <trkpt lat="48.215302" lon="13.092734">
 <ele>446.03</ele>
 <time>2011-10-22T09:25:49Z</time>
 </trkpt>
 <trkpt lat="48.214993" lon="13.092957">
 <ele>446.04</ele>
 <time>2011-10-22T09:25:57Z</time>
 </trkpt>
 <trkpt lat="48.214615" lon="13.093245">
 <ele>446.51</ele>
 <time>2011-10-22T09:26:07Z</time>
 </trkpt>
 <trkpt lat="48.214310" lon="13.093560">
 <ele>447.35</ele>
 <time>2011-10-22T09:26:16Z</time>
 </trkpt>
 <trkpt lat="48.214211" lon="13.093677">
 <ele>447.49</ele>
 <time>2011-10-22T09:26:19Z</time>
 </trkpt>
 <trkpt lat="48.214138" lon="13.093741">
 <ele>447.73</ele>
 <time>2011-10-22T09:26:21Z</time>
 </trkpt>
 <trkpt lat="48.213886" lon="13.093844">
 <ele>447.95</ele>
 <time>2011-10-22T09:26:27Z</time>
 </trkpt>
 <trkpt lat="48.213627" lon="13.094056">
 <ele>447.54</ele>
 <time>2011-10-22T09:26:34Z</time>
 </trkpt>
 <trkpt lat="48.213314" lon="13.094401">
 <ele>448.41</ele>
 <time>2011-10-22T09:26:43Z</time>
 </trkpt>
 <trkpt lat="48.213127" lon="13.094582">
 <ele>449.02</ele>
 <time>2011-10-22T09:26:48Z</time>
 </trkpt>
 <trkpt lat="48.213058" lon="13.094661">
 <ele>449.02</ele>
 <time>2011-10-22T09:26:50Z</time>
 </trkpt>
 <trkpt lat="48.212830" lon="13.095051">
 <ele>449.05</ele>
 <time>2011-10-22T09:26:58Z</time>
 </trkpt>
 <trkpt lat="48.212639" lon="13.095554">
 <ele>448.69</ele>
 <time>2011-10-22T09:27:07Z</time>
 </trkpt>
 <trkpt lat="48.212559" lon="13.095966">
 <ele>448.69</ele>
 <time>2011-10-22T09:27:14Z</time>
 </trkpt>
 <trkpt lat="48.212524" lon="13.096226">
 <ele>449.20</ele>
 <time>2011-10-22T09:27:19Z</time>
 </trkpt>
 <trkpt lat="48.212528" lon="13.096692">
 <ele>450.11</ele>
 <time>2011-10-22T09:27:27Z</time>
 </trkpt>
 <trkpt lat="48.212582" lon="13.097124">
 <ele>450.44</ele>
 <time>2011-10-22T09:27:34Z</time>
 </trkpt>
 <trkpt lat="48.212704" lon="13.097613">
 <ele>451.15</ele>
 <time>2011-10-22T09:27:42Z</time>
 </trkpt>
 <trkpt lat="48.212845" lon="13.098227">
 <ele>451.75</ele>
 <time>2011-10-22T09:27:52Z</time>
 </trkpt>
 <trkpt lat="48.212868" lon="13.098760">
 <ele>452.08</ele>
 <time>2011-10-22T09:28:00Z</time>
 </trkpt>
 <trkpt lat="48.212860" lon="13.098826">
 <ele>452.13</ele>
 <time>2011-10-22T09:28:01Z</time>
 </trkpt>
 <trkpt lat="48.212730" lon="13.099374">
 <ele>452.45</ele>
 <time>2011-10-22T09:28:10Z</time>
 </trkpt>
 <trkpt lat="48.212547" lon="13.099732">
 <ele>452.28</ele>
 <time>2011-10-22T09:28:17Z</time>
 </trkpt>
 <trkpt lat="48.212276" lon="13.100032">
 <ele>452.02</ele>
 <time>2011-10-22T09:28:25Z</time>
 </trkpt>
 <trkpt lat="48.211971" lon="13.100256">
 <ele>452.08</ele>
 <time>2011-10-22T09:28:33Z</time>
 </trkpt>
 <trkpt lat="48.211655" lon="13.100478">
 <ele>452.61</ele>
 <time>2011-10-22T09:28:41Z</time>
 </trkpt>
 <trkpt lat="48.211361" lon="13.100728">
 <ele>452.70</ele>
 <time>2011-10-22T09:28:49Z</time>
 </trkpt>
 <trkpt lat="48.211121" lon="13.100979">
 <ele>453.34</ele>
 <time>2011-10-22T09:28:56Z</time>
 </trkpt>
 <trkpt lat="48.211010" lon="13.101158">
 <ele>454.13</ele>
 <time>2011-10-22T09:29:01Z</time>
 </trkpt>
 <trkpt lat="48.210938" lon="13.101267">
 <ele>455.23</ele>
 <time>2011-10-22T09:29:07Z</time>
 </trkpt>
 <trkpt lat="48.210835" lon="13.101394">
 <ele>455.71</ele>
 <time>2011-10-22T09:29:13Z</time>
 </trkpt>
 <trkpt lat="48.210812" lon="13.101427">
 <ele>455.79</ele>
 <time>2011-10-22T09:29:14Z</time>
 </trkpt>
 <trkpt lat="48.210560" lon="13.101707">
 <ele>455.03</ele>
 <time>2011-10-22T09:29:21Z</time>
 </trkpt>
 <trkpt lat="48.210270" lon="13.102173">
 <ele>455.77</ele>
 <time>2011-10-22T09:29:31Z</time>
 </trkpt>
 <trkpt lat="48.209995" lon="13.102575">
 <ele>455.87</ele>
 <time>2011-10-22T09:29:40Z</time>
 </trkpt>
 <trkpt lat="48.209709" lon="13.102961">
 <ele>455.96</ele>
 <time>2011-10-22T09:29:49Z</time>
 </trkpt>
 <trkpt lat="48.209408" lon="13.103314">
 <ele>457.08</ele>
 <time>2011-10-22T09:29:58Z</time>
 </trkpt>
 <trkpt lat="48.209141" lon="13.103564">
 <ele>457.04</ele>
 <time>2011-10-22T09:30:05Z</time>
 </trkpt>
 <trkpt lat="48.208820" lon="13.103799">
 <ele>456.21</ele>
 <time>2011-10-22T09:30:13Z</time>
 </trkpt>
 <trkpt lat="48.208443" lon="13.104111">
 <ele>456.84</ele>
 <time>2011-10-22T09:30:23Z</time>
 </trkpt>
 <trkpt lat="48.208332" lon="13.104207">
 <ele>457.24</ele>
 <time>2011-10-22T09:30:26Z</time>
 </trkpt>
 <trkpt lat="48.208004" lon="13.104383">
 <ele>457.46</ele>
 <time>2011-10-22T09:30:33Z</time>
 </trkpt>
 <trkpt lat="48.207573" lon="13.104558">
 <ele>458.47</ele>
 <time>2011-10-22T09:30:42Z</time>
 </trkpt>
 <trkpt lat="48.207272" lon="13.104806">
 <ele>458.80</ele>
 <time>2011-10-22T09:30:49Z</time>
 </trkpt>
 <trkpt lat="48.207005" lon="13.105106">
 <ele>458.78</ele>
 <time>2011-10-22T09:30:56Z</time>
 </trkpt>
 <trkpt lat="48.206734" lon="13.105493">
 <ele>458.59</ele>
 <time>2011-10-22T09:31:04Z</time>
 </trkpt>
 <trkpt lat="48.206577" lon="13.105857">
 <ele>459.49</ele>
 <time>2011-10-22T09:31:10Z</time>
 </trkpt>
 <trkpt lat="48.206425" lon="13.106226">
 <ele>459.46</ele>
 <time>2011-10-22T09:31:16Z</time>
 </trkpt>
 <trkpt lat="48.206230" lon="13.106639">
 <ele>459.72</ele>
 <time>2011-10-22T09:31:23Z</time>
 </trkpt>
 <trkpt lat="48.205952" lon="13.107094">
 <ele>459.80</ele>
 <time>2011-10-22T09:31:32Z</time>
 </trkpt>
 <trkpt lat="48.205654" lon="13.107416">
 <ele>460.85</ele>
 <time>2011-10-22T09:31:40Z</time>
 </trkpt>
 <trkpt lat="48.205311" lon="13.107640">
 <ele>461.26</ele>
 <time>2011-10-22T09:31:48Z</time>
 </trkpt>
 <trkpt lat="48.204971" lon="13.107785">
 <ele>461.61</ele>
 <time>2011-10-22T09:31:56Z</time>
 </trkpt>
 <trkpt lat="48.204628" lon="13.107960">
 <ele>461.67</ele>
 <time>2011-10-22T09:32:04Z</time>
 </trkpt>
 <trkpt lat="48.204300" lon="13.108222">
 <ele>461.64</ele>
 <time>2011-10-22T09:32:12Z</time>
 </trkpt>
 <trkpt lat="48.204075" lon="13.108501">
 <ele>462.05</ele>
 <time>2011-10-22T09:32:18Z</time>
 </trkpt>
 <trkpt lat="48.203838" lon="13.108938">
 <ele>462.02</ele>
 <time>2011-10-22T09:32:26Z</time>
 </trkpt>
 <trkpt lat="48.203575" lon="13.109501">
 <ele>462.89</ele>
 <time>2011-10-22T09:32:36Z</time>
 </trkpt>
 <trkpt lat="48.203365" lon="13.109955">
 <ele>463.01</ele>
 <time>2011-10-22T09:32:44Z</time>
 </trkpt>
 <trkpt lat="48.203171" lon="13.110385">
 <ele>464.03</ele>
 <time>2011-10-22T09:32:52Z</time>
 </trkpt>
 <trkpt lat="48.203068" lon="13.110596">
 <ele>464.81</ele>
 <time>2011-10-22T09:32:58Z</time>
 </trkpt>
 <trkpt lat="48.203121" lon="13.110725">
 <ele>465.36</ele>
 <time>2011-10-22T09:33:02Z</time>
 </trkpt>
 <trkpt lat="48.203400" lon="13.111082">
 <ele>464.64</ele>
 <time>2011-10-22T09:33:11Z</time>
 </trkpt>
 <trkpt lat="48.203644" lon="13.111405">
 <ele>464.44</ele>
 <time>2011-10-22T09:33:18Z</time>
 </trkpt>
 <trkpt lat="48.203880" lon="13.111854">
 <ele>464.43</ele>
 <time>2011-10-22T09:33:27Z</time>
 </trkpt>
 <trkpt lat="48.204044" lon="13.112306">
 <ele>464.74</ele>
 <time>2011-10-22T09:33:35Z</time>
 </trkpt>
 <trkpt lat="48.204174" lon="13.112949">
 <ele>464.05</ele>
 <time>2011-10-22T09:33:45Z</time>
 </trkpt>
 <trkpt lat="48.204220" lon="13.113448">
 <ele>464.37</ele>
 <time>2011-10-22T09:33:53Z</time>
 </trkpt>
 <trkpt lat="48.204243" lon="13.114024">
 <ele>465.27</ele>
 <time>2011-10-22T09:34:02Z</time>
 </trkpt>
 <trkpt lat="48.204205" lon="13.114676">
 <ele>465.84</ele>
 <time>2011-10-22T09:34:12Z</time>
 </trkpt>
 <trkpt lat="48.204098" lon="13.115301">
 <ele>466.56</ele>
 <time>2011-10-22T09:34:22Z</time>
 </trkpt>
 <trkpt lat="48.203896" lon="13.115935">
 <ele>466.92</ele>
 <time>2011-10-22T09:34:33Z</time>
 </trkpt>
 <trkpt lat="48.203671" lon="13.116448">
 <ele>468.52</ele>
 <time>2011-10-22T09:34:42Z</time>
 </trkpt>
 <trkpt lat="48.203438" lon="13.116978">
 <ele>468.71</ele>
 <time>2011-10-22T09:34:51Z</time>
 </trkpt>
 <trkpt lat="48.203163" lon="13.117603">
 <ele>469.60</ele>
 <time>2011-10-22T09:35:02Z</time>
 </trkpt>
 <trkpt lat="48.203121" lon="13.117699">
 <ele>469.81</ele>
 <time>2011-10-22T09:35:04Z</time>
 </trkpt>
 <trkpt lat="48.203030" lon="13.117689">
 <ele>470.54</ele>
 <time>2011-10-22T09:35:09Z</time>
 </trkpt>
 <trkpt lat="48.203011" lon="13.117668">
 <ele>470.68</ele>
 <time>2011-10-22T09:35:10Z</time>
 </trkpt>
 <trkpt lat="48.202965" lon="13.117600">
 <ele>470.89</ele>
 <time>2011-10-22T09:35:12Z</time>
 </trkpt>
 <trkpt lat="48.202904" lon="13.117436">
 <ele>470.45</ele>
 <time>2011-10-22T09:35:15Z</time>
 </trkpt>
 <trkpt lat="48.202675" lon="13.116904">
 <ele>469.52</ele>
 <time>2011-10-22T09:35:24Z</time>
 </trkpt>
 <trkpt lat="48.202461" lon="13.116472">
 <ele>469.11</ele>
 <time>2011-10-22T09:35:31Z</time>
 </trkpt>
 <trkpt lat="48.202335" lon="13.116364">
 <ele>469.21</ele>
 <time>2011-10-22T09:35:35Z</time>
 </trkpt>
 <trkpt lat="48.202248" lon="13.116467">
 <ele>468.66</ele>
 <time>2011-10-22T09:35:38Z</time>
 </trkpt>
 <trkpt lat="48.202038" lon="13.116763">
 <ele>468.48</ele>
 <time>2011-10-22T09:35:45Z</time>
 </trkpt>
 <trkpt lat="48.201614" lon="13.117243">
 <ele>469.67</ele>
 <time>2011-10-22T09:35:57Z</time>
 </trkpt>
 <trkpt lat="48.201385" lon="13.117471">
 <ele>469.76</ele>
 <time>2011-10-22T09:36:03Z</time>
 </trkpt>
 <trkpt lat="48.201168" lon="13.117582">
 <ele>470.32</ele>
 <time>2011-10-22T09:36:08Z</time>
 </trkpt>
 <trkpt lat="48.201004" lon="13.117728">
 <ele>470.27</ele>
 <time>2011-10-22T09:36:12Z</time>
 </trkpt>
 <trkpt lat="48.200760" lon="13.118060">
 <ele>470.40</ele>
 <time>2011-10-22T09:36:19Z</time>
 </trkpt>
 <trkpt lat="48.200493" lon="13.118458">
 <ele>470.83</ele>
 <time>2011-10-22T09:36:27Z</time>
 </trkpt>
 <trkpt lat="48.200272" lon="13.118853">
 <ele>471.17</ele>
 <time>2011-10-22T09:36:34Z</time>
 </trkpt>
 <trkpt lat="48.200054" lon="13.119323">
 <ele>471.55</ele>
 <time>2011-10-22T09:36:42Z</time>
 </trkpt>
 <trkpt lat="48.199997" lon="13.119431">
 <ele>471.64</ele>
 <time>2011-10-22T09:36:44Z</time>
 </trkpt>
 <trkpt lat="48.199898" lon="13.119564">
 <ele>471.79</ele>
 <time>2011-10-22T09:36:47Z</time>
 </trkpt>
 <trkpt lat="48.199753" lon="13.119914">
 <ele>472.11</ele>
 <time>2011-10-22T09:36:53Z</time>
 </trkpt>
 <trkpt lat="48.199574" lon="13.120254">
 <ele>471.86</ele>
 <time>2011-10-22T09:36:59Z</time>
 </trkpt>
 <trkpt lat="48.199383" lon="13.120672">
 <ele>472.42</ele>
 <time>2011-10-22T09:37:06Z</time>
 </trkpt>
 <trkpt lat="48.199234" lon="13.121024">
 <ele>472.52</ele>
 <time>2011-10-22T09:37:12Z</time>
 </trkpt>
 <trkpt lat="48.199001" lon="13.121375">
 <ele>472.59</ele>
 <time>2011-10-22T09:37:19Z</time>
 </trkpt>
 <trkpt lat="48.198971" lon="13.121423">
 <ele>472.81</ele>
 <time>2011-10-22T09:37:20Z</time>
 </trkpt>
 <trkpt lat="48.198864" lon="13.121729">
 <ele>473.35</ele>
 <time>2011-10-22T09:37:25Z</time>
 </trkpt>
 <trkpt lat="48.198830" lon="13.121996">
 <ele>473.83</ele>
 <time>2011-10-22T09:37:30Z</time>
 </trkpt>
 <trkpt lat="48.198792" lon="13.122179">
 <ele>474.45</ele>
 <time>2011-10-22T09:37:35Z</time>
 </trkpt>
 <trkpt lat="48.198742" lon="13.122275">
 <ele>474.56</ele>
 <time>2011-10-22T09:37:37Z</time>
 </trkpt>
 <trkpt lat="48.198441" lon="13.122689">
 <ele>473.76</ele>
 <time>2011-10-22T09:37:46Z</time>
 </trkpt>
 <trkpt lat="48.198082" lon="13.123152">
 <ele>474.13</ele>
 <time>2011-10-22T09:37:56Z</time>
 </trkpt>
 <trkpt lat="48.197571" lon="13.123857">
 <ele>475.27</ele>
 <time>2011-10-22T09:38:11Z</time>
 </trkpt>
 <trkpt lat="48.197296" lon="13.124209">
 <ele>475.83</ele>
 <time>2011-10-22T09:38:19Z</time>
 </trkpt>
 <trkpt lat="48.196957" lon="13.124594">
 <ele>475.86</ele>
 <time>2011-10-22T09:38:28Z</time>
 </trkpt>
 <trkpt lat="48.196697" lon="13.124803">
 <ele>476.33</ele>
 <time>2011-10-22T09:38:35Z</time>
 </trkpt>
 <trkpt lat="48.196583" lon="13.124936">
 <ele>477.04</ele>
 <time>2011-10-22T09:38:40Z</time>
 </trkpt>
 <trkpt lat="48.196362" lon="13.125213">
 <ele>477.01</ele>
 <time>2011-10-22T09:38:47Z</time>
 </trkpt>
 <trkpt lat="48.196163" lon="13.125520">
 <ele>476.92</ele>
 <time>2011-10-22T09:38:54Z</time>
 </trkpt>
 <trkpt lat="48.195988" lon="13.125857">
 <ele>476.48</ele>
 <time>2011-10-22T09:39:01Z</time>
 </trkpt>
 <trkpt lat="48.195728" lon="13.126198">
 <ele>477.01</ele>
 <time>2011-10-22T09:39:09Z</time>
 </trkpt>
 <trkpt lat="48.195393" lon="13.126618">
 <ele>477.26</ele>
 <time>2011-10-22T09:39:19Z</time>
 </trkpt>
 <trkpt lat="48.195004" lon="13.127068">
 <ele>477.70</ele>
 <time>2011-10-22T09:39:30Z</time>
 </trkpt>
 <trkpt lat="48.194649" lon="13.127509">
 <ele>477.02</ele>
 <time>2011-10-22T09:39:41Z</time>
 </trkpt>
 <trkpt lat="48.194511" lon="13.127674">
 <ele>477.57</ele>
 <time>2011-10-22T09:39:47Z</time>
 </trkpt>
 <trkpt lat="48.194298" lon="13.127940">
 <ele>477.67</ele>
 <time>2011-10-22T09:39:54Z</time>
 </trkpt>
 <trkpt lat="48.194042" lon="13.128247">
 <ele>478.31</ele>
 <time>2011-10-22T09:40:02Z</time>
 </trkpt>
 <trkpt lat="48.193829" lon="13.128484">
 <ele>478.33</ele>
 <time>2011-10-22T09:40:10Z</time>
 </trkpt>
 <trkpt lat="48.193733" lon="13.128576">
 <ele>479.01</ele>
 <time>2011-10-22T09:40:15Z</time>
 </trkpt>
 <trkpt lat="48.193707" lon="13.128594">
 <ele>479.80</ele>
 <time>2011-10-22T09:40:19Z</time>
 </trkpt>
 <trkpt lat="48.193722" lon="13.128527">
 <ele>481.37</ele>
 <time>2011-10-22T09:41:07Z</time>
 </trkpt>
 <trkpt lat="48.193756" lon="13.128509">
 <ele>481.36</ele>
 <time>2011-10-22T09:41:10Z</time>
 </trkpt>
 <trkpt lat="48.193920" lon="13.128409">
 <ele>481.41</ele>
 <time>2011-10-22T09:41:18Z</time>
 </trkpt>
 <trkpt lat="48.194054" lon="13.128275">
 <ele>481.48</ele>
 <time>2011-10-22T09:41:24Z</time>
 </trkpt>
 <trkpt lat="48.194187" lon="13.128108">
 <ele>481.34</ele>
 <time>2011-10-22T09:41:30Z</time>
 </trkpt>
 <trkpt lat="48.194324" lon="13.127950">
 <ele>481.37</ele>
 <time>2011-10-22T09:41:37Z</time>
 </trkpt>
 <trkpt lat="48.194469" lon="13.127769">
 <ele>481.81</ele>
 <time>2011-10-22T09:41:44Z</time>
 </trkpt>
 <trkpt lat="48.194595" lon="13.127641">
 <ele>481.84</ele>
 <time>2011-10-22T09:41:50Z</time>
 </trkpt>
 <trkpt lat="48.194710" lon="13.127474">
 <ele>482.00</ele>
 <time>2011-10-22T09:41:56Z</time>
 </trkpt>
 <trkpt lat="48.194923" lon="13.127211">
 <ele>481.80</ele>
 <time>2011-10-22T09:42:06Z</time>
 </trkpt>
 <trkpt lat="48.195091" lon="13.126999">
 <ele>481.76</ele>
 <time>2011-10-22T09:42:13Z</time>
 </trkpt>
 <trkpt lat="48.195225" lon="13.126844">
 <ele>481.74</ele>
 <time>2011-10-22T09:42:19Z</time>
 </trkpt>
 <trkpt lat="48.195358" lon="13.126684">
 <ele>481.84</ele>
 <time>2011-10-22T09:42:25Z</time>
 </trkpt>
 <trkpt lat="48.195545" lon="13.126445">
 <ele>481.70</ele>
 <time>2011-10-22T09:42:34Z</time>
 </trkpt>
 <trkpt lat="48.195675" lon="13.126287">
 <ele>481.84</ele>
 <time>2011-10-22T09:42:40Z</time>
 </trkpt>
 <trkpt lat="48.195854" lon="13.126048">
 <ele>481.57</ele>
 <time>2011-10-22T09:42:47Z</time>
 </trkpt>
 <trkpt lat="48.196041" lon="13.125786">
 <ele>481.66</ele>
 <time>2011-10-22T09:42:55Z</time>
 </trkpt>
 <trkpt lat="48.196133" lon="13.125591">
 <ele>481.92</ele>
 <time>2011-10-22T09:43:02Z</time>
 </trkpt>
 <trkpt lat="48.196209" lon="13.125422">
 <ele>482.39</ele>
 <time>2011-10-22T09:43:09Z</time>
 </trkpt>
 <trkpt lat="48.196339" lon="13.125227">
 <ele>482.18</ele>
 <time>2011-10-22T09:43:16Z</time>
 </trkpt>
 <trkpt lat="48.196491" lon="13.125048">
 <ele>482.13</ele>
 <time>2011-10-22T09:43:23Z</time>
 </trkpt>
 <trkpt lat="48.196648" lon="13.124864">
 <ele>482.13</ele>
 <time>2011-10-22T09:43:30Z</time>
 </trkpt>
 <trkpt lat="48.196873" lon="13.124669">
 <ele>481.74</ele>
 <time>2011-10-22T09:43:38Z</time>
 </trkpt>
 <trkpt lat="48.197102" lon="13.124472">
 <ele>481.17</ele>
 <time>2011-10-22T09:43:46Z</time>
 </trkpt>
 <trkpt lat="48.197269" lon="13.124259">
 <ele>480.96</ele>
 <time>2011-10-22T09:43:54Z</time>
 </trkpt>
 <trkpt lat="48.197308" lon="13.124200">
 <ele>481.00</ele>
 <time>2011-10-22T09:43:58Z</time>
 </trkpt>
 <trkpt lat="48.197289" lon="13.124230">
 <ele>481.04</ele>
 <time>2011-10-22T09:44:04Z</time>
 </trkpt>
 <trkpt lat="48.197285" lon="13.124225">
 <ele>481.04</ele>
 <time>2011-10-22T09:44:05Z</time>
 </trkpt>
 <trkpt lat="48.197208" lon="13.124097">
 <ele>481.15</ele>
 <time>2011-10-22T09:44:11Z</time>
 </trkpt>
 <trkpt lat="48.197132" lon="13.123977">
 <ele>481.12</ele>
 <time>2011-10-22T09:44:15Z</time>
 </trkpt>
 <trkpt lat="48.196964" lon="13.123677">
 <ele>480.67</ele>
 <time>2011-10-22T09:44:23Z</time>
 </trkpt>
 <trkpt lat="48.196751" lon="13.123305">
 <ele>480.98</ele>
 <time>2011-10-22T09:44:32Z</time>
 </trkpt>
 <trkpt lat="48.196571" lon="13.123005">
 <ele>481.48</ele>
 <time>2011-10-22T09:44:39Z</time>
 </trkpt>
 <trkpt lat="48.196320" lon="13.122593">
 <ele>480.95</ele>
 <time>2011-10-22T09:44:48Z</time>
 </trkpt>
 <trkpt lat="48.196037" lon="13.122153">
 <ele>480.92</ele>
 <time>2011-10-22T09:44:58Z</time>
 </trkpt>
 <trkpt lat="48.195889" lon="13.121885">
 <ele>481.07</ele>
 <time>2011-10-22T09:45:05Z</time>
 </trkpt>
 <trkpt lat="48.195858" lon="13.121603">
 <ele>481.58</ele>
 <time>2011-10-22T09:45:11Z</time>
 </trkpt>
 <trkpt lat="48.195850" lon="13.121206">
 <ele>481.84</ele>
 <time>2011-10-22T09:45:18Z</time>
 </trkpt>
 <trkpt lat="48.195831" lon="13.120779">
 <ele>481.61</ele>
 <time>2011-10-22T09:45:25Z</time>
 </trkpt>
 <trkpt lat="48.195744" lon="13.120171">
 <ele>480.95</ele>
 <time>2011-10-22T09:45:34Z</time>
 </trkpt>
 <trkpt lat="48.195591" lon="13.119884">
 <ele>481.20</ele>
 <time>2011-10-22T09:45:40Z</time>
 </trkpt>
 <trkpt lat="48.195557" lon="13.119856">
 <ele>481.27</ele>
 <time>2011-10-22T09:45:41Z</time>
 </trkpt>
 <trkpt lat="48.195362" lon="13.119865">
 <ele>481.31</ele>
 <time>2011-10-22T09:45:46Z</time>
 </trkpt>
 <trkpt lat="48.195282" lon="13.119984">
 <ele>481.36</ele>
 <time>2011-10-22T09:45:49Z</time>
 </trkpt>
 <trkpt lat="48.195103" lon="13.120427">
 <ele>481.91</ele>
 <time>2011-10-22T09:45:57Z</time>
 </trkpt>
 <trkpt lat="48.195007" lon="13.120645">
 <ele>482.07</ele>
 <time>2011-10-22T09:46:01Z</time>
 </trkpt>
 <trkpt lat="48.194881" lon="13.121034">
 <ele>482.61</ele>
 <time>2011-10-22T09:46:08Z</time>
 </trkpt>
 <trkpt lat="48.194748" lon="13.121122">
 <ele>483.11</ele>
 <time>2011-10-22T09:46:12Z</time>
 </trkpt>
 <trkpt lat="48.194664" lon="13.121160">
 <ele>483.27</ele>
 <time>2011-10-22T09:46:14Z</time>
 </trkpt>
 <trkpt lat="48.194225" lon="13.121387">
 <ele>482.95</ele>
 <time>2011-10-22T09:46:23Z</time>
 </trkpt>
 <trkpt lat="48.193932" lon="13.121452">
 <ele>482.72</ele>
 <time>2011-10-22T09:46:29Z</time>
 </trkpt>
 <trkpt lat="48.193703" lon="13.121449">
 <ele>482.81</ele>
 <time>2011-10-22T09:46:34Z</time>
 </trkpt>
 <trkpt lat="48.193611" lon="13.121422">
 <ele>482.94</ele>
 <time>2011-10-22T09:46:36Z</time>
 </trkpt>
 <trkpt lat="48.193275" lon="13.121227">
 <ele>482.24</ele>
 <time>2011-10-22T09:46:43Z</time>
 </trkpt>
 <trkpt lat="48.192997" lon="13.120997">
 <ele>482.22</ele>
 <time>2011-10-22T09:46:50Z</time>
 </trkpt>
 <trkpt lat="48.192734" lon="13.120647">
 <ele>482.92</ele>
 <time>2011-10-22T09:46:58Z</time>
 </trkpt>
 <trkpt lat="48.192474" lon="13.120218">
 <ele>483.35</ele>
 <time>2011-10-22T09:47:06Z</time>
 </trkpt>
 <trkpt lat="48.192169" lon="13.119879">
 <ele>483.01</ele>
 <time>2011-10-22T09:47:13Z</time>
 </trkpt>
 <trkpt lat="48.191860" lon="13.119643">
 <ele>482.13</ele>
 <time>2011-10-22T09:47:20Z</time>
 </trkpt>
 <trkpt lat="48.191612" lon="13.119470">
 <ele>482.47</ele>
 <time>2011-10-22T09:47:27Z</time>
 </trkpt>
 <trkpt lat="48.191383" lon="13.119352">
 <ele>482.78</ele>
 <time>2011-10-22T09:47:33Z</time>
 </trkpt>
 <trkpt lat="48.191078" lon="13.119175">
 <ele>484.91</ele>
 <time>2011-10-22T09:47:42Z</time>
 </trkpt>
 <trkpt lat="48.191059" lon="13.119165">
 <ele>484.92</ele>
 <time>2011-10-22T09:47:43Z</time>
 </trkpt>
 <trkpt lat="48.191017" lon="13.119119">
 <ele>485.94</ele>
 <time>2011-10-22T09:47:49Z</time>
 </trkpt>
 <trkpt lat="48.190964" lon="13.119084">
 <ele>486.33</ele>
 <time>2011-10-22T09:47:55Z</time>
 </trkpt>
 <trkpt lat="48.190956" lon="13.119051">
 <ele>486.32</ele>
 <time>2011-10-22T09:47:56Z</time>
 </trkpt>
 <trkpt lat="48.190899" lon="13.118760">
 <ele>486.91</ele>
 <time>2011-10-22T09:48:02Z</time>
 </trkpt>
 <trkpt lat="48.190849" lon="13.118548">
 <ele>487.13</ele>
 <time>2011-10-22T09:48:06Z</time>
 </trkpt>
 <trkpt lat="48.190655" lon="13.118450">
 <ele>486.35</ele>
 <time>2011-10-22T09:48:11Z</time>
 </trkpt>
 <trkpt lat="48.190144" lon="13.118379">
 <ele>484.58</ele>
 <time>2011-10-22T09:48:22Z</time>
 </trkpt>
 <trkpt lat="48.189827" lon="13.118385">
 <ele>485.00</ele>
 <time>2011-10-22T09:48:29Z</time>
 </trkpt>
 <trkpt lat="48.189426" lon="13.118437">
 <ele>485.50</ele>
 <time>2011-10-22T09:48:38Z</time>
 </trkpt>
 <trkpt lat="48.189026" lon="13.118526">
 <ele>485.70</ele>
 <time>2011-10-22T09:48:47Z</time>
 </trkpt>
 <trkpt lat="48.188725" lon="13.118622">
 <ele>485.68</ele>
 <time>2011-10-22T09:48:54Z</time>
 </trkpt>
 <trkpt lat="48.188210" lon="13.118842">
 <ele>485.62</ele>
 <time>2011-10-22T09:49:06Z</time>
 </trkpt>
 <trkpt lat="48.187832" lon="13.119055">
 <ele>486.39</ele>
 <time>2011-10-22T09:49:15Z</time>
 </trkpt>
 <trkpt lat="48.187519" lon="13.119246">
 <ele>487.16</ele>
 <time>2011-10-22T09:49:23Z</time>
 </trkpt>
 <trkpt lat="48.187065" lon="13.119480">
 <ele>487.03</ele>
 <time>2011-10-22T09:49:34Z</time>
 </trkpt>
 <trkpt lat="48.186871" lon="13.119585">
 <ele>487.64</ele>
 <time>2011-10-22T09:49:40Z</time>
 </trkpt>
 <trkpt lat="48.186852" lon="13.119590">
 <ele>488.37</ele>
 <time>2011-10-22T09:49:43Z</time>
 </trkpt>
 <trkpt lat="48.186756" lon="13.119667">
 <ele>489.01</ele>
 <time>2011-10-22T09:49:51Z</time>
 </trkpt>
 <trkpt lat="48.186642" lon="13.119792">
 <ele>489.00</ele>
 <time>2011-10-22T09:49:56Z</time>
 </trkpt>
 <trkpt lat="48.186481" lon="13.119922">
 <ele>489.05</ele>
 <time>2011-10-22T09:50:01Z</time>
 </trkpt>
 <trkpt lat="48.186241" lon="13.120141">
 <ele>488.61</ele>
 <time>2011-10-22T09:50:08Z</time>
 </trkpt>
 <trkpt lat="48.185890" lon="13.120328">
 <ele>489.10</ele>
 <time>2011-10-22T09:50:17Z</time>
 </trkpt>
 <trkpt lat="48.185658" lon="13.120443">
 <ele>489.08</ele>
 <time>2011-10-22T09:50:23Z</time>
 </trkpt>
 <trkpt lat="48.185318" lon="13.120589">
 <ele>489.18</ele>
 <time>2011-10-22T09:50:31Z</time>
 </trkpt>
 <trkpt lat="48.185230" lon="13.120628">
 <ele>489.00</ele>
 <time>2011-10-22T09:50:33Z</time>
 </trkpt>
 <trkpt lat="48.184860" lon="13.120757">
 <ele>489.08</ele>
 <time>2011-10-22T09:50:41Z</time>
 </trkpt>
 <trkpt lat="48.184578" lon="13.120863">
 <ele>488.80</ele>
 <time>2011-10-22T09:50:47Z</time>
 </trkpt>
 <trkpt lat="48.184193" lon="13.121022">
 <ele>489.17</ele>
 <time>2011-10-22T09:50:55Z</time>
 </trkpt>
 <trkpt lat="48.183701" lon="13.121300">
 <ele>489.12</ele>
 <time>2011-10-22T09:51:06Z</time>
 </trkpt>
 <trkpt lat="48.183292" lon="13.121588">
 <ele>489.94</ele>
 <time>2011-10-22T09:51:16Z</time>
 </trkpt>
 <trkpt lat="48.182880" lon="13.121942">
 <ele>490.16</ele>
 <time>2011-10-22T09:51:26Z</time>
 </trkpt>
 <trkpt lat="48.182503" lon="13.122326">
 <ele>491.01</ele>
 <time>2011-10-22T09:51:36Z</time>
 </trkpt>
 <trkpt lat="48.182274" lon="13.122618">
 <ele>491.53</ele>
 <time>2011-10-22T09:51:43Z</time>
 </trkpt>
 <trkpt lat="48.182060" lon="13.122893">
 <ele>491.51</ele>
 <time>2011-10-22T09:51:49Z</time>
 </trkpt>
 <trkpt lat="48.181870" lon="13.123229">
 <ele>491.44</ele>
 <time>2011-10-22T09:51:55Z</time>
 </trkpt>
 <trkpt lat="48.181477" lon="13.123764">
 <ele>491.09</ele>
 <time>2011-10-22T09:52:06Z</time>
 </trkpt>
 <trkpt lat="48.181103" lon="13.124156">
 <ele>491.06</ele>
 <time>2011-10-22T09:52:16Z</time>
 </trkpt>
 <trkpt lat="48.181023" lon="13.124221">
 <ele>491.05</ele>
 <time>2011-10-22T09:52:18Z</time>
 </trkpt>
 <trkpt lat="48.180843" lon="13.124263">
 <ele>491.01</ele>
 <time>2011-10-22T09:52:22Z</time>
 </trkpt>
 <trkpt lat="48.180519" lon="13.124492">
 <ele>491.18</ele>
 <time>2011-10-22T09:52:30Z</time>
 </trkpt>
 <trkpt lat="48.180443" lon="13.124569">
 <ele>491.17</ele>
 <time>2011-10-22T09:52:32Z</time>
 </trkpt>
 <trkpt lat="48.180271" lon="13.124652">
 <ele>491.37</ele>
 <time>2011-10-22T09:52:36Z</time>
 </trkpt>
 <trkpt lat="48.179913" lon="13.124718">
 <ele>492.53</ele>
 <time>2011-10-22T09:52:44Z</time>
 </trkpt>
 <trkpt lat="48.179501" lon="13.124786">
 <ele>492.88</ele>
 <time>2011-10-22T09:52:53Z</time>
 </trkpt>
 <trkpt lat="48.179035" lon="13.124849">
 <ele>493.48</ele>
 <time>2011-10-22T09:53:03Z</time>
 </trkpt>
 <trkpt lat="48.178711" lon="13.124964">
 <ele>493.91</ele>
 <time>2011-10-22T09:53:10Z</time>
 </trkpt>
 <trkpt lat="48.178665" lon="13.124987">
 <ele>493.86</ele>
 <time>2011-10-22T09:53:11Z</time>
 </trkpt>
 <trkpt lat="48.178268" lon="13.125162">
 <ele>493.86</ele>
 <time>2011-10-22T09:53:20Z</time>
 </trkpt>
 <trkpt lat="48.178005" lon="13.125300">
 <ele>493.99</ele>
 <time>2011-10-22T09:53:26Z</time>
 </trkpt>
 <trkpt lat="48.177753" lon="13.125483">
 <ele>494.10</ele>
 <time>2011-10-22T09:53:32Z</time>
 </trkpt>
 <trkpt lat="48.177517" lon="13.125740">
 <ele>493.86</ele>
 <time>2011-10-22T09:53:39Z</time>
 </trkpt>
 <trkpt lat="48.177216" lon="13.126056">
 <ele>493.57</ele>
 <time>2011-10-22T09:53:47Z</time>
 </trkpt>
 <trkpt lat="48.177055" lon="13.126156">
 <ele>493.63</ele>
 <time>2011-10-22T09:53:51Z</time>
 </trkpt>
 <trkpt lat="48.176826" lon="13.126163">
 <ele>494.44</ele>
 <time>2011-10-22T09:53:57Z</time>
 </trkpt>
 <trkpt lat="48.176704" lon="13.126140">
 <ele>494.86</ele>
 <time>2011-10-22T09:54:02Z</time>
 </trkpt>
 <trkpt lat="48.176685" lon="13.126144">
 <ele>494.86</ele>
 <time>2011-10-22T09:54:03Z</time>
 </trkpt>
 <trkpt lat="48.176659" lon="13.126252">
 <ele>495.29</ele>
 <time>2011-10-22T09:54:07Z</time>
 </trkpt>
 <trkpt lat="48.176662" lon="13.126289">
 <ele>495.40</ele>
 <time>2011-10-22T09:54:08Z</time>
 </trkpt>
 <trkpt lat="48.176685" lon="13.126531">
 <ele>495.62</ele>
 <time>2011-10-22T09:54:14Z</time>
 </trkpt>
 <trkpt lat="48.176582" lon="13.126621">
 <ele>495.60</ele>
 <time>2011-10-22T09:54:18Z</time>
 </trkpt>
 <trkpt lat="48.176201" lon="13.126740">
 <ele>494.94</ele>
 <time>2011-10-22T09:54:27Z</time>
 </trkpt>
 <trkpt lat="48.175869" lon="13.126935">
 <ele>494.25</ele>
 <time>2011-10-22T09:54:35Z</time>
 </trkpt>
 <trkpt lat="48.175629" lon="13.127101">
 <ele>494.12</ele>
 <time>2011-10-22T09:54:41Z</time>
 </trkpt>
 <trkpt lat="48.175499" lon="13.127339">
 <ele>494.23</ele>
 <time>2011-10-22T09:54:46Z</time>
 </trkpt>
 <trkpt lat="48.175503" lon="13.127533">
 <ele>494.19</ele>
 <time>2011-10-22T09:54:49Z</time>
 </trkpt>
 <trkpt lat="48.175503" lon="13.127893">
 <ele>494.67</ele>
 <time>2011-10-22T09:54:56Z</time>
 </trkpt>
 <trkpt lat="48.175396" lon="13.127948">
 <ele>495.17</ele>
 <time>2011-10-22T09:55:00Z</time>
 </trkpt>
 <trkpt lat="48.175144" lon="13.127939">
 <ele>495.99</ele>
 <time>2011-10-22T09:55:06Z</time>
 </trkpt>
 <trkpt lat="48.174911" lon="13.127981">
 <ele>496.16</ele>
 <time>2011-10-22T09:55:12Z</time>
 </trkpt>
 <trkpt lat="48.174820" lon="13.128066">
 <ele>496.18</ele>
 <time>2011-10-22T09:55:15Z</time>
 </trkpt>
 <trkpt lat="48.174805" lon="13.128116">
 <ele>496.02</ele>
 <time>2011-10-22T09:55:16Z</time>
 </trkpt>
 <trkpt lat="48.174801" lon="13.128524">
 <ele>495.05</ele>
 <time>2011-10-22T09:55:22Z</time>
 </trkpt>
 <trkpt lat="48.174843" lon="13.128999">
 <ele>495.05</ele>
 <time>2011-10-22T09:55:29Z</time>
 </trkpt>
 <trkpt lat="48.174927" lon="13.129706">
 <ele>494.30</ele>
 <time>2011-10-22T09:55:40Z</time>
 </trkpt>
 <trkpt lat="48.175034" lon="13.130484">
 <ele>493.93</ele>
 <time>2011-10-22T09:55:52Z</time>
 </trkpt>
 <trkpt lat="48.175144" lon="13.131340">
 <ele>494.56</ele>
 <time>2011-10-22T09:56:05Z</time>
 </trkpt>
 <trkpt lat="48.175220" lon="13.131929">
 <ele>494.14</ele>
 <time>2011-10-22T09:56:14Z</time>
 </trkpt>
 <trkpt lat="48.175194" lon="13.132112">
 <ele>494.97</ele>
 <time>2011-10-22T09:56:18Z</time>
 </trkpt>
 <trkpt lat="48.175110" lon="13.132329">
 <ele>495.72</ele>
 <time>2011-10-22T09:56:23Z</time>
 </trkpt>
 <trkpt lat="48.174957" lon="13.132658">
 <ele>495.67</ele>
 <time>2011-10-22T09:56:30Z</time>
 </trkpt>
 <trkpt lat="48.174763" lon="13.133076">
 <ele>495.18</ele>
 <time>2011-10-22T09:56:38Z</time>
 </trkpt>
 <trkpt lat="48.174591" lon="13.133475">
 <ele>495.20</ele>
 <time>2011-10-22T09:56:45Z</time>
 </trkpt>
 <trkpt lat="48.174446" lon="13.133988">
 <ele>495.52</ele>
 <time>2011-10-22T09:56:53Z</time>
 </trkpt>
 <trkpt lat="48.174309" lon="13.134592">
 <ele>495.46</ele>
 <time>2011-10-22T09:57:02Z</time>
 </trkpt>
 <trkpt lat="48.174126" lon="13.135243">
 <ele>495.17</ele>
 <time>2011-10-22T09:57:12Z</time>
 </trkpt>
 <trkpt lat="48.173920" lon="13.135883">
 <ele>495.73</ele>
 <time>2011-10-22T09:57:22Z</time>
 </trkpt>
 <trkpt lat="48.173740" lon="13.136519">
 <ele>495.23</ele>
 <time>2011-10-22T09:57:32Z</time>
 </trkpt>
 <trkpt lat="48.173721" lon="13.136580">
 <ele>495.24</ele>
 <time>2011-10-22T09:57:33Z</time>
 </trkpt>
 <trkpt lat="48.173523" lon="13.136940">
 <ele>494.82</ele>
 <time>2011-10-22T09:57:40Z</time>
 </trkpt>
 <trkpt lat="48.173454" lon="13.137022">
 <ele>495.16</ele>
 <time>2011-10-22T09:57:42Z</time>
 </trkpt>
 <trkpt lat="48.173180" lon="13.137365">
 <ele>496.22</ele>
 <time>2011-10-22T09:57:50Z</time>
 </trkpt>
 <trkpt lat="48.172905" lon="13.137909">
 <ele>496.18</ele>
 <time>2011-10-22T09:58:00Z</time>
 </trkpt>
 <trkpt lat="48.172630" lon="13.138491">
 <ele>497.05</ele>
 <time>2011-10-22T09:58:10Z</time>
 </trkpt>
 <trkpt lat="48.172325" lon="13.139059">
 <ele>496.93</ele>
 <time>2011-10-22T09:58:20Z</time>
 </trkpt>
 <trkpt lat="48.172226" lon="13.139219">
 <ele>496.95</ele>
 <time>2011-10-22T09:58:23Z</time>
 </trkpt>
 <trkpt lat="48.171970" lon="13.139418">
 <ele>497.15</ele>
 <time>2011-10-22T09:58:29Z</time>
 </trkpt>
 <trkpt lat="48.171745" lon="13.139479">
 <ele>497.33</ele>
 <time>2011-10-22T09:58:34Z</time>
 </trkpt>
 <trkpt lat="48.171700" lon="13.139668">
 <ele>496.98</ele>
 <time>2011-10-22T09:58:37Z</time>
 </trkpt>
 <trkpt lat="48.171749" lon="13.140013">
 <ele>496.33</ele>
 <time>2011-10-22T09:58:42Z</time>
 </trkpt>
 <trkpt lat="48.171837" lon="13.140275">
 <ele>497.35</ele>
 <time>2011-10-22T09:58:47Z</time>
 </trkpt>
 <trkpt lat="48.171841" lon="13.140325">
 <ele>497.36</ele>
 <time>2011-10-22T09:58:48Z</time>
 </trkpt>
 <trkpt lat="48.171841" lon="13.140437">
 <ele>498.03</ele>
 <time>2011-10-22T09:58:50Z</time>
 </trkpt>
 <trkpt lat="48.171951" lon="13.140701">
 <ele>498.89</ele>
 <time>2011-10-22T09:58:55Z</time>
 </trkpt>
 <trkpt lat="48.171982" lon="13.140748">
 <ele>498.92</ele>
 <time>2011-10-22T09:58:56Z</time>
 </trkpt>
 <trkpt lat="48.172089" lon="13.141041">
 <ele>498.65</ele>
 <time>2011-10-22T09:59:01Z</time>
 </trkpt>
 <trkpt lat="48.172020" lon="13.141234">
 <ele>498.44</ele>
 <time>2011-10-22T09:59:05Z</time>
 </trkpt>
 <trkpt lat="48.171986" lon="13.141264">
 <ele>498.17</ele>
 <time>2011-10-22T09:59:06Z</time>
 </trkpt>
 <trkpt lat="48.171501" lon="13.141572">
 <ele>498.41</ele>
 <time>2011-10-22T09:59:18Z</time>
 </trkpt>
 <trkpt lat="48.171078" lon="13.141769">
 <ele>500.01</ele>
 <time>2011-10-22T09:59:28Z</time>
 </trkpt>
 <trkpt lat="48.170631" lon="13.141964">
 <ele>500.53</ele>
 <time>2011-10-22T09:59:38Z</time>
 </trkpt>
 <trkpt lat="48.170403" lon="13.142016">
 <ele>500.80</ele>
 <time>2011-10-22T09:59:43Z</time>
 </trkpt>
 <trkpt lat="48.169991" lon="13.141906">
 <ele>501.17</ele>
 <time>2011-10-22T09:59:52Z</time>
 </trkpt>
 <trkpt lat="48.169521" lon="13.141789">
 <ele>501.42</ele>
 <time>2011-10-22T10:00:02Z</time>
 </trkpt>
 <trkpt lat="48.169186" lon="13.141784">
 <ele>501.70</ele>
 <time>2011-10-22T10:00:09Z</time>
 </trkpt>
 <trkpt lat="48.168869" lon="13.141890">
 <ele>502.38</ele>
 <time>2011-10-22T10:00:16Z</time>
 </trkpt>
 <trkpt lat="48.168507" lon="13.142084">
 <ele>502.91</ele>
 <time>2011-10-22T10:00:25Z</time>
 </trkpt>
 <trkpt lat="48.168385" lon="13.142138">
 <ele>503.39</ele>
 <time>2011-10-22T10:00:28Z</time>
 </trkpt>
 <trkpt lat="48.168213" lon="13.142165">
 <ele>504.14</ele>
 <time>2011-10-22T10:00:32Z</time>
 </trkpt>
 <trkpt lat="48.167946" lon="13.142049">
 <ele>504.73</ele>
 <time>2011-10-22T10:00:38Z</time>
 </trkpt>
 <trkpt lat="48.167763" lon="13.141758">
 <ele>504.09</ele>
 <time>2011-10-22T10:00:43Z</time>
 </trkpt>
 <trkpt lat="48.167732" lon="13.141678">
 <ele>503.87</ele>
 <time>2011-10-22T10:00:44Z</time>
 </trkpt>
 <trkpt lat="48.167629" lon="13.141345">
 <ele>503.14</ele>
 <time>2011-10-22T10:00:48Z</time>
 </trkpt>
 <trkpt lat="48.167404" lon="13.140944">
 <ele>502.55</ele>
 <time>2011-10-22T10:00:54Z</time>
 </trkpt>
 <trkpt lat="48.167355" lon="13.140893">
 <ele>502.69</ele>
 <time>2011-10-22T10:00:55Z</time>
 </trkpt>
 <trkpt lat="48.166916" lon="13.140518">
 <ele>502.92</ele>
 <time>2011-10-22T10:01:04Z</time>
 </trkpt>
 <trkpt lat="48.166767" lon="13.140427">
 <ele>503.05</ele>
 <time>2011-10-22T10:01:07Z</time>
 </trkpt>
 <trkpt lat="48.166328" lon="13.140343">
 <ele>503.19</ele>
 <time>2011-10-22T10:01:15Z</time>
 </trkpt>
 <trkpt lat="48.165821" lon="13.140200">
 <ele>503.65</ele>
 <time>2011-10-22T10:01:25Z</time>
 </trkpt>
 <trkpt lat="48.165352" lon="13.139943">
 <ele>503.79</ele>
 <time>2011-10-22T10:01:35Z</time>
 </trkpt>
 <trkpt lat="48.165020" lon="13.139770">
 <ele>504.77</ele>
 <time>2011-10-22T10:01:42Z</time>
 </trkpt>
 <trkpt lat="48.164867" lon="13.139711">
 <ele>504.85</ele>
 <time>2011-10-22T10:01:45Z</time>
 </trkpt>
 <trkpt lat="48.164631" lon="13.139480">
 <ele>504.82</ele>
 <time>2011-10-22T10:01:50Z</time>
 </trkpt>
 <trkpt lat="48.164524" lon="13.139168">
 <ele>504.48</ele>
 <time>2011-10-22T10:01:54Z</time>
 </trkpt>
 <trkpt lat="48.164509" lon="13.139084">
 <ele>503.89</ele>
 <time>2011-10-22T10:01:55Z</time>
 </trkpt>
 <trkpt lat="48.164467" lon="13.138837">
 <ele>503.65</ele>
 <time>2011-10-22T10:01:58Z</time>
 </trkpt>
 <trkpt lat="48.164368" lon="13.138545">
 <ele>502.99</ele>
 <time>2011-10-22T10:02:02Z</time>
 </trkpt>
 <trkpt lat="48.164066" lon="13.137951">
 <ele>503.27</ele>
 <time>2011-10-22T10:02:11Z</time>
 </trkpt>
 <trkpt lat="48.163834" lon="13.137300">
 <ele>503.78</ele>
 <time>2011-10-22T10:02:20Z</time>
 </trkpt>
 <trkpt lat="48.163609" lon="13.136959">
 <ele>504.14</ele>
 <time>2011-10-22T10:02:26Z</time>
 </trkpt>
 <trkpt lat="48.163242" lon="13.136473">
 <ele>504.69</ele>
 <time>2011-10-22T10:02:35Z</time>
 </trkpt>
 <trkpt lat="48.162910" lon="13.135916">
 <ele>504.87</ele>
 <time>2011-10-22T10:02:44Z</time>
 </trkpt>
 <trkpt lat="48.162655" lon="13.135376">
 <ele>505.23</ele>
 <time>2011-10-22T10:02:52Z</time>
 </trkpt>
 <trkpt lat="48.162533" lon="13.134910">
 <ele>505.56</ele>
 <time>2011-10-22T10:02:58Z</time>
 </trkpt>
 <trkpt lat="48.162457" lon="13.134495">
 <ele>505.76</ele>
 <time>2011-10-22T10:03:03Z</time>
 </trkpt>
 <trkpt lat="48.162243" lon="13.134047">
 <ele>505.83</ele>
 <time>2011-10-22T10:03:10Z</time>
 </trkpt>
 <trkpt lat="48.162148" lon="13.133877">
 <ele>505.87</ele>
 <time>2011-10-22T10:03:13Z</time>
 </trkpt>
 <trkpt lat="48.162056" lon="13.133513">
 <ele>506.42</ele>
 <time>2011-10-22T10:03:19Z</time>
 </trkpt>
 <trkpt lat="48.161976" lon="13.133017">
 <ele>506.69</ele>
 <time>2011-10-22T10:03:26Z</time>
 </trkpt>
 <trkpt lat="48.161911" lon="13.132740">
 <ele>506.41</ele>
 <time>2011-10-22T10:03:31Z</time>
 </trkpt>
 <trkpt lat="48.161808" lon="13.132508">
 <ele>505.90</ele>
 <time>2011-10-22T10:03:35Z</time>
 </trkpt>
 <trkpt lat="48.161453" lon="13.132037">
 <ele>505.75</ele>
 <time>2011-10-22T10:03:44Z</time>
 </trkpt>
 <trkpt lat="48.161060" lon="13.131480">
 <ele>506.07</ele>
 <time>2011-10-22T10:03:54Z</time>
 </trkpt>
 <trkpt lat="48.160820" lon="13.131177">
 <ele>506.23</ele>
 <time>2011-10-22T10:04:00Z</time>
 </trkpt>
 <trkpt lat="48.160667" lon="13.130918">
 <ele>506.51</ele>
 <time>2011-10-22T10:04:05Z</time>
 </trkpt>
 <trkpt lat="48.160625" lon="13.130881">
 <ele>506.51</ele>
 <time>2011-10-22T10:04:06Z</time>
 </trkpt>
 <trkpt lat="48.160358" lon="13.130674">
 <ele>506.96</ele>
 <time>2011-10-22T10:04:12Z</time>
 </trkpt>
 <trkpt lat="48.160015" lon="13.130592">
 <ele>507.49</ele>
 <time>2011-10-22T10:04:19Z</time>
 </trkpt>
 <trkpt lat="48.159679" lon="13.130667">
 <ele>507.36</ele>
 <time>2011-10-22T10:04:26Z</time>
 </trkpt>
 <trkpt lat="48.159351" lon="13.130770">
 <ele>507.33</ele>
 <time>2011-10-22T10:04:34Z</time>
 </trkpt>
 <trkpt lat="48.159161" lon="13.130777">
 <ele>507.73</ele>
 <time>2011-10-22T10:04:40Z</time>
 </trkpt>
 <trkpt lat="48.159119" lon="13.130627">
 <ele>508.23</ele>
 <time>2011-10-22T10:04:44Z</time>
 </trkpt>
 <trkpt lat="48.159084" lon="13.130219">
 <ele>508.70</ele>
 <time>2011-10-22T10:04:50Z</time>
 </trkpt>
 <trkpt lat="48.159027" lon="13.129514">
 <ele>508.55</ele>
 <time>2011-10-22T10:04:59Z</time>
 </trkpt>
 <trkpt lat="48.159004" lon="13.129347">
 <ele>508.54</ele>
 <time>2011-10-22T10:05:01Z</time>
 </trkpt>
 <trkpt lat="48.158871" lon="13.129119">
 <ele>508.50</ele>
 <time>2011-10-22T10:05:05Z</time>
 </trkpt>
 <trkpt lat="48.158764" lon="13.129102">
 <ele>508.50</ele>
 <time>2011-10-22T10:05:07Z</time>
 </trkpt>
 <trkpt lat="48.158253" lon="13.129110">
 <ele>507.92</ele>
 <time>2011-10-22T10:05:17Z</time>
 </trkpt>
 <trkpt lat="48.157906" lon="13.129040">
 <ele>508.77</ele>
 <time>2011-10-22T10:05:24Z</time>
 </trkpt>
 <trkpt lat="48.157673" lon="13.128881">
 <ele>508.73</ele>
 <time>2011-10-22T10:05:30Z</time>
 </trkpt>
 <trkpt lat="48.157455" lon="13.128829">
 <ele>508.14</ele>
 <time>2011-10-22T10:05:35Z</time>
 </trkpt>
 <trkpt lat="48.156967" lon="13.128657">
 <ele>508.62</ele>
 <time>2011-10-22T10:05:45Z</time>
 </trkpt>
 <trkpt lat="48.156918" lon="13.128636">
 <ele>508.62</ele>
 <time>2011-10-22T10:05:46Z</time>
 </trkpt>
 <trkpt lat="48.156567" lon="13.128479">
 <ele>509.08</ele>
 <time>2011-10-22T10:05:53Z</time>
 </trkpt>
 <trkpt lat="48.156143" lon="13.128332">
 <ele>509.93</ele>
 <time>2011-10-22T10:06:01Z</time>
 </trkpt>
 <trkpt lat="48.155510" lon="13.128080">
 <ele>510.44</ele>
 <time>2011-10-22T10:06:13Z</time>
 </trkpt>
 <trkpt lat="48.154999" lon="13.127874">
 <ele>510.23</ele>
 <time>2011-10-22T10:06:23Z</time>
 </trkpt>
 <trkpt lat="48.154449" lon="13.127647">
 <ele>509.93</ele>
 <time>2011-10-22T10:06:34Z</time>
 </trkpt>
 <trkpt lat="48.154400" lon="13.127626">
 <ele>509.96</ele>
 <time>2011-10-22T10:06:35Z</time>
 </trkpt>
 <trkpt lat="48.154015" lon="13.127457">
 <ele>510.42</ele>
 <time>2011-10-22T10:06:43Z</time>
 </trkpt>
 <trkpt lat="48.153397" lon="13.127250">
 <ele>511.16</ele>
 <time>2011-10-22T10:06:56Z</time>
 </trkpt>
 <trkpt lat="48.152950" lon="13.127136">
 <ele>511.53</ele>
 <time>2011-10-22T10:07:05Z</time>
 </trkpt>
 <trkpt lat="48.152435" lon="13.127036">
 <ele>511.02</ele>
 <time>2011-10-22T10:07:16Z</time>
 </trkpt>
 <trkpt lat="48.152023" lon="13.127031">
 <ele>511.55</ele>
 <time>2011-10-22T10:07:25Z</time>
 </trkpt>
 <trkpt lat="48.151642" lon="13.127115">
 <ele>512.61</ele>
 <time>2011-10-22T10:07:33Z</time>
 </trkpt>
 <trkpt lat="48.151127" lon="13.127303">
 <ele>512.70</ele>
 <time>2011-10-22T10:07:44Z</time>
 </trkpt>
 <trkpt lat="48.150562" lon="13.127518">
 <ele>512.78</ele>
 <time>2011-10-22T10:07:56Z</time>
 </trkpt>
 <trkpt lat="48.150467" lon="13.127553">
 <ele>512.90</ele>
 <time>2011-10-22T10:07:58Z</time>
 </trkpt>
 <trkpt lat="48.149979" lon="13.127657">
 <ele>513.49</ele>
 <time>2011-10-22T10:08:08Z</time>
 </trkpt>
 <trkpt lat="48.149498" lon="13.127760">
 <ele>513.81</ele>
 <time>2011-10-22T10:08:18Z</time>
 </trkpt>
 <trkpt lat="48.149124" lon="13.127891">
 <ele>514.00</ele>
 <time>2011-10-22T10:08:26Z</time>
 </trkpt>
 <trkpt lat="48.148708" lon="13.128082">
 <ele>514.52</ele>
 <time>2011-10-22T10:08:35Z</time>
 </trkpt>
 <trkpt lat="48.148327" lon="13.128175">
 <ele>514.70</ele>
 <time>2011-10-22T10:08:43Z</time>
 </trkpt>
 <trkpt lat="48.148129" lon="13.128125">
 <ele>515.02</ele>
 <time>2011-10-22T10:08:47Z</time>
 </trkpt>
 <trkpt lat="48.147884" lon="13.127887">
 <ele>515.34</ele>
 <time>2011-10-22T10:08:53Z</time>
 </trkpt>
 <trkpt lat="48.147785" lon="13.127629">
 <ele>515.12</ele>
 <time>2011-10-22T10:08:57Z</time>
 </trkpt>
 <trkpt lat="48.147720" lon="13.126998">
 <ele>514.77</ele>
 <time>2011-10-22T10:09:05Z</time>
 </trkpt>
 <trkpt lat="48.147705" lon="13.126758">
 <ele>514.80</ele>
 <time>2011-10-22T10:09:08Z</time>
 </trkpt>
 <trkpt lat="48.147575" lon="13.126368">
 <ele>515.13</ele>
 <time>2011-10-22T10:09:14Z</time>
 </trkpt>
 <trkpt lat="48.147411" lon="13.126239">
 <ele>514.86</ele>
 <time>2011-10-22T10:09:18Z</time>
 </trkpt>
 <trkpt lat="48.147167" lon="13.126148">
 <ele>515.44</ele>
 <time>2011-10-22T10:09:25Z</time>
 </trkpt>
 <trkpt lat="48.147053" lon="13.126100">
 <ele>516.17</ele>
 <time>2011-10-22T10:09:29Z</time>
 </trkpt>
 <trkpt lat="48.147041" lon="13.125966">
 <ele>516.79</ele>
 <time>2011-10-22T10:09:33Z</time>
 </trkpt>
 <trkpt lat="48.147133" lon="13.125764">
 <ele>517.18</ele>
 <time>2011-10-22T10:09:39Z</time>
 </trkpt>
 <trkpt lat="48.147232" lon="13.125502">
 <ele>517.21</ele>
 <time>2011-10-22T10:09:45Z</time>
 </trkpt>
 <trkpt lat="48.147408" lon="13.125175">
 <ele>516.73</ele>
 <time>2011-10-22T10:09:53Z</time>
 </trkpt>
 <trkpt lat="48.147633" lon="13.124866">
 <ele>516.31</ele>
 <time>2011-10-22T10:10:02Z</time>
 </trkpt>
 <trkpt lat="48.147659" lon="13.124823">
 <ele>516.28</ele>
 <time>2011-10-22T10:10:06Z</time>
 </trkpt>
 <trkpt lat="48.147614" lon="13.124704">
 <ele>516.45</ele>
 <time>2011-10-22T10:10:12Z</time>
 </trkpt>
 <trkpt lat="48.147522" lon="13.124477">
 <ele>516.17</ele>
 <time>2011-10-22T10:10:17Z</time>
 </trkpt>
 <trkpt lat="48.147354" lon="13.124130">
 <ele>516.28</ele>
 <time>2011-10-22T10:10:24Z</time>
 </trkpt>
 <trkpt lat="48.147217" lon="13.123861">
 <ele>516.53</ele>
 <time>2011-10-22T10:10:30Z</time>
 </trkpt>
 <trkpt lat="48.147007" lon="13.123505">
 <ele>516.85</ele>
 <time>2011-10-22T10:10:39Z</time>
 </trkpt>
 <trkpt lat="48.146809" lon="13.123157">
 <ele>517.74</ele>
 <time>2011-10-22T10:10:47Z</time>
 </trkpt>
 <trkpt lat="48.146633" lon="13.122860">
 <ele>517.33</ele>
 <time>2011-10-22T10:10:54Z</time>
 </trkpt>
 <trkpt lat="48.146572" lon="13.122782">
 <ele>516.97</ele>
 <time>2011-10-22T10:10:56Z</time>
 </trkpt>
 <trkpt lat="48.146214" lon="13.122478">
 <ele>517.01</ele>
 <time>2011-10-22T10:11:05Z</time>
 </trkpt>
 <trkpt lat="48.145985" lon="13.122336">
 <ele>516.59</ele>
 <time>2011-10-22T10:11:10Z</time>
 </trkpt>
 <trkpt lat="48.145649" lon="13.122202">
 <ele>516.68</ele>
 <time>2011-10-22T10:11:17Z</time>
 </trkpt>
 <trkpt lat="48.145107" lon="13.122121">
 <ele>516.53</ele>
 <time>2011-10-22T10:11:28Z</time>
 </trkpt>
 <trkpt lat="48.145061" lon="13.122105">
 <ele>516.48</ele>
 <time>2011-10-22T10:11:29Z</time>
 </trkpt>
 <trkpt lat="48.144611" lon="13.121826">
 <ele>517.28</ele>
 <time>2011-10-22T10:11:39Z</time>
 </trkpt>
 <trkpt lat="48.144295" lon="13.121504">
 <ele>517.91</ele>
 <time>2011-10-22T10:11:47Z</time>
 </trkpt>
 <trkpt lat="48.143951" lon="13.121156">
 <ele>517.73</ele>
 <time>2011-10-22T10:11:55Z</time>
 </trkpt>
 <trkpt lat="48.143482" lon="13.120681">
 <ele>517.87</ele>
 <time>2011-10-22T10:12:06Z</time>
 </trkpt>
 <trkpt lat="48.143166" lon="13.120274">
 <ele>518.19</ele>
 <time>2011-10-22T10:12:14Z</time>
 </trkpt>
 <trkpt lat="48.142902" lon="13.120023">
 <ele>518.42</ele>
 <time>2011-10-22T10:12:20Z</time>
 </trkpt>
 <trkpt lat="48.142700" lon="13.119980">
 <ele>518.36</ele>
 <time>2011-10-22T10:12:24Z</time>
 </trkpt>
 <trkpt lat="48.142311" lon="13.119971">
 <ele>517.75</ele>
 <time>2011-10-22T10:12:31Z</time>
 </trkpt>
 <trkpt lat="48.141949" lon="13.119879">
 <ele>517.64</ele>
 <time>2011-10-22T10:12:38Z</time>
 </trkpt>
 <trkpt lat="48.141815" lon="13.119757">
 <ele>518.48</ele>
 <time>2011-10-22T10:12:42Z</time>
 </trkpt>
 <trkpt lat="48.141644" lon="13.119447">
 <ele>519.52</ele>
 <time>2011-10-22T10:12:48Z</time>
 </trkpt>
 <trkpt lat="48.141499" lon="13.119133">
 <ele>519.16</ele>
 <time>2011-10-22T10:12:53Z</time>
 </trkpt>
 <trkpt lat="48.141392" lon="13.118900">
 <ele>519.25</ele>
 <time>2011-10-22T10:12:57Z</time>
 </trkpt>
 <trkpt lat="48.141281" lon="13.118564">
 <ele>519.61</ele>
 <time>2011-10-22T10:13:03Z</time>
 </trkpt>
 <trkpt lat="48.141232" lon="13.118374">
 <ele>519.72</ele>
 <time>2011-10-22T10:13:06Z</time>
 </trkpt>
 <trkpt lat="48.141029" lon="13.117935">
 <ele>519.63</ele>
 <time>2011-10-22T10:13:13Z</time>
 </trkpt>
 <trkpt lat="48.140751" lon="13.117344">
 <ele>519.48</ele>
 <time>2011-10-22T10:13:22Z</time>
 </trkpt>
 <trkpt lat="48.140392" lon="13.116553">
 <ele>519.86</ele>
 <time>2011-10-22T10:13:34Z</time>
 </trkpt>
 <trkpt lat="48.140270" lon="13.116040">
 <ele>520.53</ele>
 <time>2011-10-22T10:13:41Z</time>
 </trkpt>
 <trkpt lat="48.140106" lon="13.115353">
 <ele>522.09</ele>
 <time>2011-10-22T10:13:51Z</time>
 </trkpt>
 <trkpt lat="48.139984" lon="13.114781">
 <ele>523.76</ele>
 <time>2011-10-22T10:14:00Z</time>
 </trkpt>
 <trkpt lat="48.139931" lon="13.114473">
 <ele>524.67</ele>
 <time>2011-10-22T10:14:05Z</time>
 </trkpt>
 <trkpt lat="48.139828" lon="13.114275">
 <ele>525.12</ele>
 <time>2011-10-22T10:14:09Z</time>
 </trkpt>
 <trkpt lat="48.139629" lon="13.114110">
 <ele>525.57</ele>
 <time>2011-10-22T10:14:15Z</time>
 </trkpt>
 <trkpt lat="48.139469" lon="13.114212">
 <ele>525.66</ele>
 <time>2011-10-22T10:14:20Z</time>
 </trkpt>
 <trkpt lat="48.139435" lon="13.114245">
 <ele>525.69</ele>
 <time>2011-10-22T10:14:21Z</time>
 </trkpt>
 <trkpt lat="48.139366" lon="13.114314">
 <ele>525.99</ele>
 <time>2011-10-22T10:14:23Z</time>
 </trkpt>
 <trkpt lat="48.139179" lon="13.114570">
 <ele>526.37</ele>
 <time>2011-10-22T10:14:29Z</time>
 </trkpt>
 <trkpt lat="48.138981" lon="13.114945">
 <ele>525.29</ele>
 <time>2011-10-22T10:14:36Z</time>
 </trkpt>
 <trkpt lat="48.138752" lon="13.115311">
 <ele>524.11</ele>
 <time>2011-10-22T10:14:42Z</time>
 </trkpt>
 <trkpt lat="48.138416" lon="13.115680">
 <ele>522.18</ele>
 <time>2011-10-22T10:14:49Z</time>
 </trkpt>
 <trkpt lat="48.138103" lon="13.116036">
 <ele>522.04</ele>
 <time>2011-10-22T10:14:56Z</time>
 </trkpt>
 <trkpt lat="48.137695" lon="13.116437">
 <ele>520.97</ele>
 <time>2011-10-22T10:15:05Z</time>
 </trkpt>
 <trkpt lat="48.137341" lon="13.116702">
 <ele>521.30</ele>
 <time>2011-10-22T10:15:13Z</time>
 </trkpt>
 <trkpt lat="48.136909" lon="13.116906">
 <ele>521.82</ele>
 <time>2011-10-22T10:15:22Z</time>
 </trkpt>
 <trkpt lat="48.136612" lon="13.117126">
 <ele>520.85</ele>
 <time>2011-10-22T10:15:29Z</time>
 </trkpt>
 <trkpt lat="48.136230" lon="13.117461">
 <ele>522.12</ele>
 <time>2011-10-22T10:15:39Z</time>
 </trkpt>
 <trkpt lat="48.135773" lon="13.117801">
 <ele>522.42</ele>
 <time>2011-10-22T10:15:50Z</time>
 </trkpt>
 <trkpt lat="48.135464" lon="13.118095">
 <ele>522.84</ele>
 <time>2011-10-22T10:15:58Z</time>
 </trkpt>
 <trkpt lat="48.135139" lon="13.118444">
 <ele>523.70</ele>
 <time>2011-10-22T10:16:07Z</time>
 </trkpt>
 <trkpt lat="48.134754" lon="13.118777">
 <ele>523.94</ele>
 <time>2011-10-22T10:16:16Z</time>
 </trkpt>
 <trkpt lat="48.134361" lon="13.119066">
 <ele>523.42</ele>
 <time>2011-10-22T10:16:25Z</time>
 </trkpt>
 <trkpt lat="48.134041" lon="13.119217">
 <ele>523.70</ele>
 <time>2011-10-22T10:16:32Z</time>
 </trkpt>
 <trkpt lat="48.133625" lon="13.119345">
 <ele>524.24</ele>
 <time>2011-10-22T10:16:41Z</time>
 </trkpt>
 <trkpt lat="48.133579" lon="13.119351">
 <ele>524.41</ele>
 <time>2011-10-22T10:16:42Z</time>
 </trkpt>
 <trkpt lat="48.133171" lon="13.119405">
 <ele>526.29</ele>
 <time>2011-10-22T10:16:51Z</time>
 </trkpt>
 <trkpt lat="48.132942" lon="13.119450">
 <ele>527.05</ele>
 <time>2011-10-22T10:16:57Z</time>
 </trkpt>
 <trkpt lat="48.132687" lon="13.119528">
 <ele>529.76</ele>
 <time>2011-10-22T10:17:06Z</time>
 </trkpt>
 <trkpt lat="48.132481" lon="13.119630">
 <ele>531.41</ele>
 <time>2011-10-22T10:17:14Z</time>
 </trkpt>
 <trkpt lat="48.132214" lon="13.119758">
 <ele>533.91</ele>
 <time>2011-10-22T10:17:24Z</time>
 </trkpt>
 <trkpt lat="48.132023" lon="13.119860">
 <ele>534.82</ele>
 <time>2011-10-22T10:17:31Z</time>
 </trkpt>
 <trkpt lat="48.131828" lon="13.119976">
 <ele>535.52</ele>
 <time>2011-10-22T10:17:38Z</time>
 </trkpt>
 <trkpt lat="48.131592" lon="13.120152">
 <ele>535.59</ele>
 <time>2011-10-22T10:17:46Z</time>
 </trkpt>
 <trkpt lat="48.131294" lon="13.120373">
 <ele>534.61</ele>
 <time>2011-10-22T10:17:54Z</time>
 </trkpt>
 <trkpt lat="48.130974" lon="13.120695">
 <ele>532.76</ele>
 <time>2011-10-22T10:18:01Z</time>
 </trkpt>
 <trkpt lat="48.130657" lon="13.121091">
 <ele>530.82</ele>
 <time>2011-10-22T10:18:07Z</time>
 </trkpt>
 <trkpt lat="48.130348" lon="13.121412">
 <ele>529.12</ele>
 <time>2011-10-22T10:18:12Z</time>
 </trkpt>
 <trkpt lat="48.130001" lon="13.121615">
 <ele>527.10</ele>
 <time>2011-10-22T10:18:17Z</time>
 </trkpt>
 <trkpt lat="48.129555" lon="13.121881">
 <ele>525.72</ele>
 <time>2011-10-22T10:18:24Z</time>
 </trkpt>
 <trkpt lat="48.128990" lon="13.122238">
 <ele>525.89</ele>
 <time>2011-10-22T10:18:34Z</time>
 </trkpt>
 <trkpt lat="48.128662" lon="13.122516">
 <ele>526.05</ele>
 <time>2011-10-22T10:18:41Z</time>
 </trkpt>
 <trkpt lat="48.128258" lon="13.122997">
 <ele>527.21</ele>
 <time>2011-10-22T10:18:51Z</time>
 </trkpt>
 <trkpt lat="48.127960" lon="13.123299">
 <ele>527.46</ele>
 <time>2011-10-22T10:18:59Z</time>
 </trkpt>
 <trkpt lat="48.127914" lon="13.123383">
 <ele>528.60</ele>
 <time>2011-10-22T10:19:03Z</time>
 </trkpt>
 <trkpt lat="48.127911" lon="13.123384">
 <ele>529.10</ele>
 <time>2011-10-22T10:19:04Z</time>
 </trkpt>
 <trkpt lat="48.127953" lon="13.123283">
 <ele>530.64</ele>
 <time>2011-10-22T10:20:30Z</time>
 </trkpt>
 <trkpt lat="48.127953" lon="13.123288">
 <ele>530.64</ele>
 <time>2011-10-22T10:20:31Z</time>
 </trkpt>
 <trkpt lat="48.127918" lon="13.123324">
 <ele>530.38</ele>
 <time>2011-10-22T10:21:19Z</time>
 </trkpt>
 <trkpt lat="48.127789" lon="13.123533">
 <ele>530.13</ele>
 <time>2011-10-22T10:21:28Z</time>
 </trkpt>
 <trkpt lat="48.127583" lon="13.123814">
 <ele>528.82</ele>
 <time>2011-10-22T10:21:35Z</time>
 </trkpt>
 <trkpt lat="48.127426" lon="13.124097">
 <ele>528.10</ele>
 <time>2011-10-22T10:21:41Z</time>
 </trkpt>
 <trkpt lat="48.127300" lon="13.124339">
 <ele>527.79</ele>
 <time>2011-10-22T10:21:46Z</time>
 </trkpt>
 <trkpt lat="48.127087" lon="13.124624">
 <ele>529.21</ele>
 <time>2011-10-22T10:21:53Z</time>
 </trkpt>
 <trkpt lat="48.127010" lon="13.124695">
 <ele>529.49</ele>
 <time>2011-10-22T10:21:55Z</time>
 </trkpt>
 <trkpt lat="48.126774" lon="13.124903">
 <ele>529.99</ele>
 <time>2011-10-22T10:22:01Z</time>
 </trkpt>
 <trkpt lat="48.126408" lon="13.125249">
 <ele>530.97</ele>
 <time>2011-10-22T10:22:10Z</time>
 </trkpt>
 <trkpt lat="48.126129" lon="13.125620">
 <ele>530.88</ele>
 <time>2011-10-22T10:22:18Z</time>
 </trkpt>
 <trkpt lat="48.125931" lon="13.125979">
 <ele>532.47</ele>
 <time>2011-10-22T10:22:25Z</time>
 </trkpt>
 <trkpt lat="48.125870" lon="13.126109">
 <ele>532.82</ele>
 <time>2011-10-22T10:22:27Z</time>
 </trkpt>
 <trkpt lat="48.125774" lon="13.126364">
 <ele>533.30</ele>
 <time>2011-10-22T10:22:31Z</time>
 </trkpt>
 <trkpt lat="48.125717" lon="13.126560">
 <ele>533.41</ele>
 <time>2011-10-22T10:22:34Z</time>
 </trkpt>
 <trkpt lat="48.125679" lon="13.126674">
 <ele>533.47</ele>
 <time>2011-10-22T10:22:36Z</time>
 </trkpt>
 <trkpt lat="48.125538" lon="13.127129">
 <ele>533.40</ele>
 <time>2011-10-22T10:22:43Z</time>
 </trkpt>
 <trkpt lat="48.125492" lon="13.127264">
 <ele>533.18</ele>
 <time>2011-10-22T10:22:45Z</time>
 </trkpt>
 <trkpt lat="48.125294" lon="13.127549">
 <ele>532.32</ele>
 <time>2011-10-22T10:22:50Z</time>
 </trkpt>
 <trkpt lat="48.125244" lon="13.127582">
 <ele>532.22</ele>
 <time>2011-10-22T10:22:51Z</time>
 </trkpt>
 <trkpt lat="48.124886" lon="13.127767">
 <ele>533.27</ele>
 <time>2011-10-22T10:22:59Z</time>
 </trkpt>
 <trkpt lat="48.124847" lon="13.127789">
 <ele>533.27</ele>
 <time>2011-10-22T10:23:00Z</time>
 </trkpt>
 <trkpt lat="48.124619" lon="13.127914">
 <ele>534.82</ele>
 <time>2011-10-22T10:23:06Z</time>
 </trkpt>
 <trkpt lat="48.124378" lon="13.128080">
 <ele>535.74</ele>
 <time>2011-10-22T10:23:13Z</time>
 </trkpt>
 <trkpt lat="48.124180" lon="13.128280">
 <ele>536.72</ele>
 <time>2011-10-22T10:23:19Z</time>
 </trkpt>
 <trkpt lat="48.123966" lon="13.128550">
 <ele>537.23</ele>
 <time>2011-10-22T10:23:25Z</time>
 </trkpt>
 <trkpt lat="48.123726" lon="13.128791">
 <ele>535.42</ele>
 <time>2011-10-22T10:23:30Z</time>
 </trkpt>
 <trkpt lat="48.123310" lon="13.128972">
 <ele>533.84</ele>
 <time>2011-10-22T10:23:37Z</time>
 </trkpt>
 <trkpt lat="48.122818" lon="13.129020">
 <ele>533.47</ele>
 <time>2011-10-22T10:23:45Z</time>
 </trkpt>
 <trkpt lat="48.122543" lon="13.128940">
 <ele>533.50</ele>
 <time>2011-10-22T10:23:50Z</time>
 </trkpt>
 <trkpt lat="48.122288" lon="13.128780">
 <ele>533.60</ele>
 <time>2011-10-22T10:23:55Z</time>
 </trkpt>
 <trkpt lat="48.122036" lon="13.128659">
 <ele>534.18</ele>
 <time>2011-10-22T10:24:00Z</time>
 </trkpt>
 <trkpt lat="48.121735" lon="13.128500">
 <ele>534.66</ele>
 <time>2011-10-22T10:24:06Z</time>
 </trkpt>
 <trkpt lat="48.121353" lon="13.128370">
 <ele>535.61</ele>
 <time>2011-10-22T10:24:14Z</time>
 </trkpt>
 <trkpt lat="48.121128" lon="13.128349">
 <ele>537.08</ele>
 <time>2011-10-22T10:24:20Z</time>
 </trkpt>
 <trkpt lat="48.121048" lon="13.128441">
 <ele>538.01</ele>
 <time>2011-10-22T10:24:23Z</time>
 </trkpt>
 <trkpt lat="48.120922" lon="13.128826">
 <ele>537.21</ele>
 <time>2011-10-22T10:24:29Z</time>
 </trkpt>
 <trkpt lat="48.120773" lon="13.129364">
 <ele>535.58</ele>
 <time>2011-10-22T10:24:36Z</time>
 </trkpt>
 <trkpt lat="48.120544" lon="13.129978">
 <ele>536.26</ele>
 <time>2011-10-22T10:24:45Z</time>
 </trkpt>
 <trkpt lat="48.120293" lon="13.130477">
 <ele>536.03</ele>
 <time>2011-10-22T10:24:53Z</time>
 </trkpt>
 <trkpt lat="48.120262" lon="13.130540">
 <ele>535.91</ele>
 <time>2011-10-22T10:24:54Z</time>
 </trkpt>
 <trkpt lat="48.120174" lon="13.130774">
 <ele>535.97</ele>
 <time>2011-10-22T10:24:58Z</time>
 </trkpt>
 <trkpt lat="48.120049" lon="13.130787">
 <ele>537.08</ele>
 <time>2011-10-22T10:25:03Z</time>
 </trkpt>
 <trkpt lat="48.119862" lon="13.131019">
 <ele>537.01</ele>
 <time>2011-10-22T10:25:09Z</time>
 </trkpt>
 <trkpt lat="48.119701" lon="13.131150">
 <ele>536.52</ele>
 <time>2011-10-22T10:25:13Z</time>
 </trkpt>
 <trkpt lat="48.119522" lon="13.131230">
 <ele>536.54</ele>
 <time>2011-10-22T10:25:17Z</time>
 </trkpt>
 <trkpt lat="48.119049" lon="13.131317">
 <ele>537.58</ele>
 <time>2011-10-22T10:25:27Z</time>
 </trkpt>
 <trkpt lat="48.118675" lon="13.131340">
 <ele>537.71</ele>
 <time>2011-10-22T10:25:35Z</time>
 </trkpt>
 <trkpt lat="48.118294" lon="13.131369">
 <ele>538.34</ele>
 <time>2011-10-22T10:25:43Z</time>
 </trkpt>
 <trkpt lat="48.117916" lon="13.131467">
 <ele>538.23</ele>
 <time>2011-10-22T10:25:50Z</time>
 </trkpt>
 <trkpt lat="48.117458" lon="13.131565">
 <ele>537.77</ele>
 <time>2011-10-22T10:25:58Z</time>
 </trkpt>
 <trkpt lat="48.117229" lon="13.131581">
 <ele>537.63</ele>
 <time>2011-10-22T10:26:02Z</time>
 </trkpt>
 <trkpt lat="48.116848" lon="13.131578">
 <ele>537.34</ele>
 <time>2011-10-22T10:26:09Z</time>
 </trkpt>
 <trkpt lat="48.116409" lon="13.131560">
 <ele>536.82</ele>
 <time>2011-10-22T10:26:17Z</time>
 </trkpt>
 <trkpt lat="48.115810" lon="13.131527">
 <ele>536.97</ele>
 <time>2011-10-22T10:26:28Z</time>
 </trkpt>
 <trkpt lat="48.115334" lon="13.131447">
 <ele>536.55</ele>
 <time>2011-10-22T10:26:37Z</time>
 </trkpt>
 <trkpt lat="48.114941" lon="13.131280">
 <ele>536.76</ele>
 <time>2011-10-22T10:26:45Z</time>
 </trkpt>
 <trkpt lat="48.114597" lon="13.130959">
 <ele>537.30</ele>
 <time>2011-10-22T10:26:53Z</time>
 </trkpt>
 <trkpt lat="48.114185" lon="13.130572">
 <ele>538.50</ele>
 <time>2011-10-22T10:27:02Z</time>
 </trkpt>
 <trkpt lat="48.113815" lon="13.130330">
 <ele>538.54</ele>
 <time>2011-10-22T10:27:10Z</time>
 </trkpt>
 <trkpt lat="48.113491" lon="13.130222">
 <ele>539.34</ele>
 <time>2011-10-22T10:27:17Z</time>
 </trkpt>
 <trkpt lat="48.113209" lon="13.130221">
 <ele>542.04</ele>
 <time>2011-10-22T10:27:24Z</time>
 </trkpt>
 <trkpt lat="48.113003" lon="13.130281">
 <ele>543.74</ele>
 <time>2011-10-22T10:27:30Z</time>
 </trkpt>
 <trkpt lat="48.112774" lon="13.130470">
 <ele>542.78</ele>
 <time>2011-10-22T10:27:35Z</time>
 </trkpt>
 <trkpt lat="48.112404" lon="13.130737">
 <ele>540.42</ele>
 <time>2011-10-22T10:27:42Z</time>
 </trkpt>
 <trkpt lat="48.112091" lon="13.130994">
 <ele>540.27</ele>
 <time>2011-10-22T10:27:49Z</time>
 </trkpt>
 <trkpt lat="48.111919" lon="13.131110">
 <ele>540.27</ele>
 <time>2011-10-22T10:27:53Z</time>
 </trkpt>
 <trkpt lat="48.111576" lon="13.131314">
 <ele>540.69</ele>
 <time>2011-10-22T10:28:01Z</time>
 </trkpt>
 <trkpt lat="48.111275" lon="13.131491">
 <ele>540.89</ele>
 <time>2011-10-22T10:28:08Z</time>
 </trkpt>
 <trkpt lat="48.110828" lon="13.131748">
 <ele>540.29</ele>
 <time>2011-10-22T10:28:18Z</time>
 </trkpt>
 <trkpt lat="48.110424" lon="13.131883">
 <ele>539.74</ele>
 <time>2011-10-22T10:28:26Z</time>
 </trkpt>
 <trkpt lat="48.110233" lon="13.131876">
 <ele>540.04</ele>
 <time>2011-10-22T10:28:30Z</time>
 </trkpt>
 <trkpt lat="48.109871" lon="13.131729">
 <ele>540.49</ele>
 <time>2011-10-22T10:28:38Z</time>
 </trkpt>
 <trkpt lat="48.109825" lon="13.131698">
 <ele>540.54</ele>
 <time>2011-10-22T10:28:39Z</time>
 </trkpt>
 <trkpt lat="48.109482" lon="13.131457">
 <ele>540.69</ele>
 <time>2011-10-22T10:28:46Z</time>
 </trkpt>
 <trkpt lat="48.109341" lon="13.131330">
 <ele>540.37</ele>
 <time>2011-10-22T10:28:49Z</time>
 </trkpt>
 <trkpt lat="48.109097" lon="13.131227">
 <ele>540.17</ele>
 <time>2011-10-22T10:28:54Z</time>
 </trkpt>
 <trkpt lat="48.108673" lon="13.131155">
 <ele>540.52</ele>
 <time>2011-10-22T10:29:02Z</time>
 </trkpt>
 <trkpt lat="48.108425" lon="13.131117">
 <ele>541.09</ele>
 <time>2011-10-22T10:29:07Z</time>
 </trkpt>
 <trkpt lat="48.108112" lon="13.130948">
 <ele>542.88</ele>
 <time>2011-10-22T10:29:15Z</time>
 </trkpt>
 <trkpt lat="48.107925" lon="13.130893">
 <ele>543.57</ele>
 <time>2011-10-22T10:29:21Z</time>
 </trkpt>
 <trkpt lat="48.107758" lon="13.131017">
 <ele>543.65</ele>
 <time>2011-10-22T10:29:26Z</time>
 </trkpt>
 <trkpt lat="48.107510" lon="13.131238">
 <ele>543.78</ele>
 <time>2011-10-22T10:29:33Z</time>
 </trkpt>
 <trkpt lat="48.107189" lon="13.131532">
 <ele>543.37</ele>
 <time>2011-10-22T10:29:41Z</time>
 </trkpt>
 <trkpt lat="48.106838" lon="13.131934">
 <ele>542.89</ele>
 <time>2011-10-22T10:29:50Z</time>
 </trkpt>
 <trkpt lat="48.106548" lon="13.132245">
 <ele>542.44</ele>
 <time>2011-10-22T10:29:57Z</time>
 </trkpt>
 <trkpt lat="48.106510" lon="13.132283">
 <ele>542.28</ele>
 <time>2011-10-22T10:29:58Z</time>
 </trkpt>
 <trkpt lat="48.106155" lon="13.132673">
 <ele>541.80</ele>
 <time>2011-10-22T10:30:08Z</time>
 </trkpt>
 <trkpt lat="48.106121" lon="13.132710">
 <ele>541.78</ele>
 <time>2011-10-22T10:30:09Z</time>
 </trkpt>
 <trkpt lat="48.105839" lon="13.132931">
 <ele>542.48</ele>
 <time>2011-10-22T10:30:17Z</time>
 </trkpt>
 <trkpt lat="48.105511" lon="13.133138">
 <ele>543.55</ele>
 <time>2011-10-22T10:30:26Z</time>
 </trkpt>
 <trkpt lat="48.105312" lon="13.133408">
 <ele>543.48</ele>
 <time>2011-10-22T10:30:33Z</time>
 </trkpt>
 <trkpt lat="48.105152" lon="13.133693">
 <ele>543.32</ele>
 <time>2011-10-22T10:30:39Z</time>
 </trkpt>
 <trkpt lat="48.105019" lon="13.133869">
 <ele>543.22</ele>
 <time>2011-10-22T10:30:43Z</time>
 </trkpt>
 <trkpt lat="48.104736" lon="13.134156">
 <ele>542.76</ele>
 <time>2011-10-22T10:30:50Z</time>
 </trkpt>
 <trkpt lat="48.104416" lon="13.134349">
 <ele>543.12</ele>
 <time>2011-10-22T10:30:57Z</time>
 </trkpt>
 <trkpt lat="48.104275" lon="13.134407">
 <ele>543.07</ele>
 <time>2011-10-22T10:31:00Z</time>
 </trkpt>
 <trkpt lat="48.104084" lon="13.134447">
 <ele>543.37</ele>
 <time>2011-10-22T10:31:04Z</time>
 </trkpt>
 <trkpt lat="48.103745" lon="13.134332">
 <ele>543.56</ele>
 <time>2011-10-22T10:31:11Z</time>
 </trkpt>
 <trkpt lat="48.103485" lon="13.134114">
 <ele>543.64</ele>
 <time>2011-10-22T10:31:17Z</time>
 </trkpt>
 <trkpt lat="48.103230" lon="13.133905">
 <ele>543.95</ele>
 <time>2011-10-22T10:31:23Z</time>
 </trkpt>
 <trkpt lat="48.102844" lon="13.133790">
 <ele>544.29</ele>
 <time>2011-10-22T10:31:31Z</time>
 </trkpt>
 <trkpt lat="48.102409" lon="13.133701">
 <ele>544.24</ele>
 <time>2011-10-22T10:31:40Z</time>
 </trkpt>
 <trkpt lat="48.102055" lon="13.133531">
 <ele>543.91</ele>
 <time>2011-10-22T10:31:48Z</time>
 </trkpt>
 <trkpt lat="48.101734" lon="13.133355">
 <ele>545.30</ele>
 <time>2011-10-22T10:31:56Z</time>
 </trkpt>
 <trkpt lat="48.101490" lon="13.133295">
 <ele>546.56</ele>
 <time>2011-10-22T10:32:03Z</time>
 </trkpt>
 <trkpt lat="48.101421" lon="13.133335">
 <ele>547.49</ele>
 <time>2011-10-22T10:32:06Z</time>
 </trkpt>
 <trkpt lat="48.101322" lon="13.133440">
 <ele>548.79</ele>
 <time>2011-10-22T10:32:12Z</time>
 </trkpt>
 <trkpt lat="48.101254" lon="13.133539">
 <ele>549.07</ele>
 <time>2011-10-22T10:32:16Z</time>
 </trkpt>
 <trkpt lat="48.101215" lon="13.133532">
 <ele>548.39</ele>
 <time>2011-10-22T10:32:20Z</time>
 </trkpt>
 <trkpt lat="48.101135" lon="13.133422">
 <ele>547.81</ele>
 <time>2011-10-22T10:32:31Z</time>
 </trkpt>
 <trkpt lat="48.100994" lon="13.133253">
 <ele>547.81</ele>
 <time>2011-10-22T10:32:36Z</time>
 </trkpt>
 <trkpt lat="48.100689" lon="13.133071">
 <ele>548.08</ele>
 <time>2011-10-22T10:32:44Z</time>
 </trkpt>
 <trkpt lat="48.100307" lon="13.132878">
 <ele>547.41</ele>
 <time>2011-10-22T10:32:53Z</time>
 </trkpt>
 <trkpt lat="48.099876" lon="13.132782">
 <ele>548.01</ele>
 <time>2011-10-22T10:33:02Z</time>
 </trkpt>
 <trkpt lat="48.099445" lon="13.132812">
 <ele>548.34</ele>
 <time>2011-10-22T10:33:11Z</time>
 </trkpt>
 <trkpt lat="48.099304" lon="13.132812">
 <ele>548.71</ele>
 <time>2011-10-22T10:33:14Z</time>
 </trkpt>
 <trkpt lat="48.099064" lon="13.132678">
 <ele>549.64</ele>
 <time>2011-10-22T10:33:20Z</time>
 </trkpt>
 <trkpt lat="48.099037" lon="13.132646">
 <ele>549.85</ele>
 <time>2011-10-22T10:33:21Z</time>
 </trkpt>
 <trkpt lat="48.098972" lon="13.132551">
 <ele>550.74</ele>
 <time>2011-10-22T10:33:26Z</time>
 </trkpt>
 <trkpt lat="48.098969" lon="13.132552">
 <ele>550.91</ele>
 <time>2011-10-22T10:33:27Z</time>
 </trkpt>
 <trkpt lat="48.098854" lon="13.132586">
 <ele>551.09</ele>
 <time>2011-10-22T10:33:33Z</time>
 </trkpt>
 <trkpt lat="48.098660" lon="13.132716">
 <ele>549.58</ele>
 <time>2011-10-22T10:33:38Z</time>
 </trkpt>
 <trkpt lat="48.098377" lon="13.132859">
 <ele>548.02</ele>
 <time>2011-10-22T10:33:44Z</time>
 </trkpt>
 <trkpt lat="48.097954" lon="13.132954">
 <ele>547.81</ele>
 <time>2011-10-22T10:33:52Z</time>
 </trkpt>
 <trkpt lat="48.097458" lon="13.132947">
 <ele>547.69</ele>
 <time>2011-10-22T10:34:01Z</time>
 </trkpt>
 <trkpt lat="48.097061" lon="13.132876">
 <ele>548.53</ele>
 <time>2011-10-22T10:34:09Z</time>
 </trkpt>
 <trkpt lat="48.096973" lon="13.132843">
 <ele>548.88</ele>
 <time>2011-10-22T10:34:11Z</time>
 </trkpt>
 <trkpt lat="48.096741" lon="13.132890">
 <ele>549.20</ele>
 <time>2011-10-22T10:34:16Z</time>
 </trkpt>
 <trkpt lat="48.096668" lon="13.133020">
 <ele>548.83</ele>
 <time>2011-10-22T10:34:18Z</time>
 </trkpt>
 <trkpt lat="48.096603" lon="13.133176">
 <ele>548.32</ele>
 <time>2011-10-22T10:34:20Z</time>
 </trkpt>
 <trkpt lat="48.096371" lon="13.133429">
 <ele>547.31</ele>
 <time>2011-10-22T10:34:25Z</time>
 </trkpt>
 <trkpt lat="48.096203" lon="13.133474">
 <ele>547.69</ele>
 <time>2011-10-22T10:34:28Z</time>
 </trkpt>
 <trkpt lat="48.096043" lon="13.133471">
 <ele>547.97</ele>
 <time>2011-10-22T10:34:31Z</time>
 </trkpt>
 <trkpt lat="48.095753" lon="13.133307">
 <ele>547.88</ele>
 <time>2011-10-22T10:34:37Z</time>
 </trkpt>
 <trkpt lat="48.095345" lon="13.133003">
 <ele>547.44</ele>
 <time>2011-10-22T10:34:46Z</time>
 </trkpt>
 <trkpt lat="48.094936" lon="13.132733">
 <ele>548.03</ele>
 <time>2011-10-22T10:34:55Z</time>
 </trkpt>
 <trkpt lat="48.094852" lon="13.132656">
 <ele>547.99</ele>
 <time>2011-10-22T10:34:57Z</time>
 </trkpt>
 <trkpt lat="48.094666" lon="13.132308">
 <ele>548.47</ele>
 <time>2011-10-22T10:35:04Z</time>
 </trkpt>
 <trkpt lat="48.094555" lon="13.132177">
 <ele>550.09</ele>
 <time>2011-10-22T10:35:09Z</time>
 </trkpt>
 <trkpt lat="48.094379" lon="13.132071">
 <ele>552.91</ele>
 <time>2011-10-22T10:35:17Z</time>
 </trkpt>
 <trkpt lat="48.094177" lon="13.132002">
 <ele>555.84</ele>
 <time>2011-10-22T10:35:26Z</time>
 </trkpt>
 <trkpt lat="48.094028" lon="13.131953">
 <ele>557.31</ele>
 <time>2011-10-22T10:35:33Z</time>
 </trkpt>
 <trkpt lat="48.093849" lon="13.131897">
 <ele>559.54</ele>
 <time>2011-10-22T10:35:41Z</time>
 </trkpt>
 <trkpt lat="48.093597" lon="13.131820">
 <ele>561.14</ele>
 <time>2011-10-22T10:35:52Z</time>
 </trkpt>
 <trkpt lat="48.093395" lon="13.131790">
 <ele>561.83</ele>
 <time>2011-10-22T10:36:00Z</time>
 </trkpt>
 <trkpt lat="48.093155" lon="13.131762">
 <ele>562.41</ele>
 <time>2011-10-22T10:36:09Z</time>
 </trkpt>
 <trkpt lat="48.092911" lon="13.131744">
 <ele>562.89</ele>
 <time>2011-10-22T10:36:18Z</time>
 </trkpt>
 <trkpt lat="48.092590" lon="13.131721">
 <ele>564.42</ele>
 <time>2011-10-22T10:36:30Z</time>
 </trkpt>
 <trkpt lat="48.092270" lon="13.131714">
 <ele>565.67</ele>
 <time>2011-10-22T10:36:42Z</time>
 </trkpt>
 <trkpt lat="48.091980" lon="13.131688">
 <ele>567.39</ele>
 <time>2011-10-22T10:36:54Z</time>
 </trkpt>
 <trkpt lat="48.091797" lon="13.131629">
 <ele>570.12</ele>
 <time>2011-10-22T10:37:03Z</time>
 </trkpt>
 <trkpt lat="48.091618" lon="13.131579">
 <ele>571.76</ele>
 <time>2011-10-22T10:37:12Z</time>
 </trkpt>
 <trkpt lat="48.091480" lon="13.131564">
 <ele>572.99</ele>
 <time>2011-10-22T10:37:19Z</time>
 </trkpt>
 <trkpt lat="48.091347" lon="13.131599">
 <ele>574.13</ele>
 <time>2011-10-22T10:37:25Z</time>
 </trkpt>
 <trkpt lat="48.091213" lon="13.131614">
 <ele>574.90</ele>
 <time>2011-10-22T10:37:31Z</time>
 </trkpt>
 <trkpt lat="48.091057" lon="13.131658">
 <ele>575.30</ele>
 <time>2011-10-22T10:37:38Z</time>
 </trkpt>
 <trkpt lat="48.090923" lon="13.131701">
 <ele>575.65</ele>
 <time>2011-10-22T10:37:44Z</time>
 </trkpt>
 <trkpt lat="48.090717" lon="13.131839">
 <ele>575.48</ele>
 <time>2011-10-22T10:37:50Z</time>
 </trkpt>
 <trkpt lat="48.090508" lon="13.131938">
 <ele>575.25</ele>
 <time>2011-10-22T10:37:57Z</time>
 </trkpt>
 <trkpt lat="48.090321" lon="13.132049">
 <ele>575.02</ele>
 <time>2011-10-22T10:38:04Z</time>
 </trkpt>
 <trkpt lat="48.090141" lon="13.132122">
 <ele>574.68</ele>
 <time>2011-10-22T10:38:10Z</time>
 </trkpt>
 <trkpt lat="48.089867" lon="13.132273">
 <ele>573.80</ele>
 <time>2011-10-22T10:38:17Z</time>
 </trkpt>
 <trkpt lat="48.089680" lon="13.132353">
 <ele>573.47</ele>
 <time>2011-10-22T10:38:21Z</time>
 </trkpt>
 <trkpt lat="48.089428" lon="13.132405">
 <ele>573.00</ele>
 <time>2011-10-22T10:38:26Z</time>
 </trkpt>
 <trkpt lat="48.089321" lon="13.132414">
 <ele>572.76</ele>
 <time>2011-10-22T10:38:28Z</time>
 </trkpt>
 <trkpt lat="48.088821" lon="13.132394">
 <ele>570.49</ele>
 <time>2011-10-22T10:38:36Z</time>
 </trkpt>
 <trkpt lat="48.088352" lon="13.132387">
 <ele>567.08</ele>
 <time>2011-10-22T10:38:42Z</time>
 </trkpt>
 <trkpt lat="48.088081" lon="13.132508">
 <ele>564.99</ele>
 <time>2011-10-22T10:38:46Z</time>
 </trkpt>
 <trkpt lat="48.087971" lon="13.132650">
 <ele>564.03</ele>
 <time>2011-10-22T10:38:48Z</time>
 </trkpt>
 <trkpt lat="48.087772" lon="13.132947">
 <ele>562.89</ele>
 <time>2011-10-22T10:38:52Z</time>
 </trkpt>
 <trkpt lat="48.087482" lon="13.133216">
 <ele>561.30</ele>
 <time>2011-10-22T10:38:57Z</time>
 </trkpt>
 <trkpt lat="48.087414" lon="13.133245">
 <ele>560.96</ele>
 <time>2011-10-22T10:38:58Z</time>
 </trkpt>
 <trkpt lat="48.087196" lon="13.133303">
 <ele>560.18</ele>
 <time>2011-10-22T10:39:01Z</time>
 </trkpt>
 <trkpt lat="48.086899" lon="13.133255">
 <ele>559.09</ele>
 <time>2011-10-22T10:39:05Z</time>
 </trkpt>
 <trkpt lat="48.086571" lon="13.132998">
 <ele>558.50</ele>
 <time>2011-10-22T10:39:10Z</time>
 </trkpt>
 <trkpt lat="48.086113" lon="13.132510">
 <ele>557.54</ele>
 <time>2011-10-22T10:39:18Z</time>
 </trkpt>
 <trkpt lat="48.085777" lon="13.132273">
 <ele>557.08</ele>
 <time>2011-10-22T10:39:24Z</time>
 </trkpt>
 <trkpt lat="48.085369" lon="13.132174">
 <ele>557.95</ele>
 <time>2011-10-22T10:39:31Z</time>
 </trkpt>
 <trkpt lat="48.085079" lon="13.132125">
 <ele>558.55</ele>
 <time>2011-10-22T10:39:36Z</time>
 </trkpt>
 <trkpt lat="48.084641" lon="13.132034">
 <ele>558.57</ele>
 <time>2011-10-22T10:39:44Z</time>
 </trkpt>
 <trkpt lat="48.084152" lon="13.131934">
 <ele>559.92</ele>
 <time>2011-10-22T10:39:53Z</time>
 </trkpt>
 <trkpt lat="48.083817" lon="13.131953">
 <ele>560.64</ele>
 <time>2011-10-22T10:39:59Z</time>
 </trkpt>
 <trkpt lat="48.083534" lon="13.132131">
 <ele>559.57</ele>
 <time>2011-10-22T10:40:04Z</time>
 </trkpt>
 <trkpt lat="48.083481" lon="13.132178">
 <ele>559.57</ele>
 <time>2011-10-22T10:40:05Z</time>
 </trkpt>
 <trkpt lat="48.083035" lon="13.132683">
 <ele>558.37</ele>
 <time>2011-10-22T10:40:14Z</time>
 </trkpt>
 <trkpt lat="48.082607" lon="13.133161">
 <ele>558.40</ele>
 <time>2011-10-22T10:40:23Z</time>
 </trkpt>
 <trkpt lat="48.082050" lon="13.133801">
 <ele>558.78</ele>
 <time>2011-10-22T10:40:35Z</time>
 </trkpt>
 <trkpt lat="48.081783" lon="13.134062">
 <ele>558.93</ele>
 <time>2011-10-22T10:40:41Z</time>
 </trkpt>
 <trkpt lat="48.081390" lon="13.134302">
 <ele>559.75</ele>
 <time>2011-10-22T10:40:49Z</time>
 </trkpt>
 <trkpt lat="48.080837" lon="13.134524">
 <ele>560.19</ele>
 <time>2011-10-22T10:40:59Z</time>
 </trkpt>
 <trkpt lat="48.080391" lon="13.134707">
 <ele>560.65</ele>
 <time>2011-10-22T10:41:07Z</time>
 </trkpt>
 <trkpt lat="48.079838" lon="13.134960">
 <ele>560.72</ele>
 <time>2011-10-22T10:41:17Z</time>
 </trkpt>
 <trkpt lat="48.079491" lon="13.135234">
 <ele>560.95</ele>
 <time>2011-10-22T10:41:24Z</time>
 </trkpt>
 <trkpt lat="48.079449" lon="13.135287">
 <ele>560.99</ele>
 <time>2011-10-22T10:41:25Z</time>
 </trkpt>
 <trkpt lat="48.079193" lon="13.135810">
 <ele>560.50</ele>
 <time>2011-10-22T10:41:33Z</time>
 </trkpt>
 <trkpt lat="48.078899" lon="13.136620">
 <ele>560.38</ele>
 <time>2011-10-22T10:41:45Z</time>
 </trkpt>
 <trkpt lat="48.078617" lon="13.137407">
 <ele>561.26</ele>
 <time>2011-10-22T10:41:57Z</time>
 </trkpt>
 <trkpt lat="48.078327" lon="13.138184">
 <ele>560.64</ele>
 <time>2011-10-22T10:42:09Z</time>
 </trkpt>
 <trkpt lat="48.078087" lon="13.138719">
 <ele>560.89</ele>
 <time>2011-10-22T10:42:18Z</time>
 </trkpt>
 <trkpt lat="48.077805" lon="13.139296">
 <ele>560.75</ele>
 <time>2011-10-22T10:42:28Z</time>
 </trkpt>
 <trkpt lat="48.077530" lon="13.139865">
 <ele>561.36</ele>
 <time>2011-10-22T10:42:38Z</time>
 </trkpt>
 <trkpt lat="48.077312" lon="13.140284">
 <ele>561.62</ele>
 <time>2011-10-22T10:42:46Z</time>
 </trkpt>
 <trkpt lat="48.077042" lon="13.140712">
 <ele>561.98</ele>
 <time>2011-10-22T10:42:55Z</time>
 </trkpt>
 <trkpt lat="48.076687" lon="13.141107">
 <ele>562.47</ele>
 <time>2011-10-22T10:43:05Z</time>
 </trkpt>
 <trkpt lat="48.076626" lon="13.141175">
 <ele>562.87</ele>
 <time>2011-10-22T10:43:07Z</time>
 </trkpt>
 <trkpt lat="48.076534" lon="13.141465">
 <ele>562.93</ele>
 <time>2011-10-22T10:43:12Z</time>
 </trkpt>
 <trkpt lat="48.076546" lon="13.141598">
 <ele>562.64</ele>
 <time>2011-10-22T10:43:14Z</time>
 </trkpt>
 <trkpt lat="48.076645" lon="13.142113">
 <ele>562.93</ele>
 <time>2011-10-22T10:43:22Z</time>
 </trkpt>
 <trkpt lat="48.076603" lon="13.142294">
 <ele>563.20</ele>
 <time>2011-10-22T10:43:27Z</time>
 </trkpt>
 <trkpt lat="48.076588" lon="13.142312">
 <ele>563.30</ele>
 <time>2011-10-22T10:43:30Z</time>
 </trkpt>
 <trkpt lat="48.076553" lon="13.142362">
 <ele>563.67</ele>
 <time>2011-10-22T10:43:38Z</time>
 </trkpt>
 <trkpt lat="48.076439" lon="13.142367">
 <ele>563.54</ele>
 <time>2011-10-22T10:43:42Z</time>
 </trkpt>
 <trkpt lat="48.076225" lon="13.142359">
 <ele>563.62</ele>
 <time>2011-10-22T10:43:48Z</time>
 </trkpt>
 <trkpt lat="48.075932" lon="13.142400">
 <ele>563.80</ele>
 <time>2011-10-22T10:43:55Z</time>
 </trkpt>
 <trkpt lat="48.075668" lon="13.142390">
 <ele>564.12</ele>
 <time>2011-10-22T10:44:02Z</time>
 </trkpt>
 <trkpt lat="48.075325" lon="13.142391">
 <ele>564.54</ele>
 <time>2011-10-22T10:44:10Z</time>
 </trkpt>
 <trkpt lat="48.074928" lon="13.142379">
 <ele>564.82</ele>
 <time>2011-10-22T10:44:19Z</time>
 </trkpt>
 <trkpt lat="48.074444" lon="13.142366">
 <ele>565.81</ele>
 <time>2011-10-22T10:44:30Z</time>
 </trkpt>
 <trkpt lat="48.074028" lon="13.142406">
 <ele>566.65</ele>
 <time>2011-10-22T10:44:39Z</time>
 </trkpt>
 <trkpt lat="48.073654" lon="13.142478">
 <ele>566.39</ele>
 <time>2011-10-22T10:44:47Z</time>
 </trkpt>
 <trkpt lat="48.073235" lon="13.142510">
 <ele>566.91</ele>
 <time>2011-10-22T10:44:56Z</time>
 </trkpt>
 <trkpt lat="48.072853" lon="13.142462">
 <ele>567.03</ele>
 <time>2011-10-22T10:45:04Z</time>
 </trkpt>
 <trkpt lat="48.072464" lon="13.142393">
 <ele>567.28</ele>
 <time>2011-10-22T10:45:12Z</time>
 </trkpt>
 <trkpt lat="48.072033" lon="13.142334">
 <ele>567.70</ele>
 <time>2011-10-22T10:45:21Z</time>
 </trkpt>
 <trkpt lat="48.071503" lon="13.142276">
 <ele>568.02</ele>
 <time>2011-10-22T10:45:32Z</time>
 </trkpt>
 <trkpt lat="48.071072" lon="13.142227">
 <ele>568.62</ele>
 <time>2011-10-22T10:45:41Z</time>
 </trkpt>
 <trkpt lat="48.070644" lon="13.142192">
 <ele>568.95</ele>
 <time>2011-10-22T10:45:50Z</time>
 </trkpt>
 <trkpt lat="48.070072" lon="13.142189">
 <ele>569.51</ele>
 <time>2011-10-22T10:46:02Z</time>
 </trkpt>
 <trkpt lat="48.069450" lon="13.142176">
 <ele>570.32</ele>
 <time>2011-10-22T10:46:15Z</time>
 </trkpt>
 <trkpt lat="48.069073" lon="13.142195">
 <ele>570.93</ele>
 <time>2011-10-22T10:46:24Z</time>
 </trkpt>
 <trkpt lat="48.068722" lon="13.142201">
 <ele>571.65</ele>
 <time>2011-10-22T10:46:32Z</time>
 </trkpt>
 <trkpt lat="48.068581" lon="13.142212">
 <ele>571.29</ele>
 <time>2011-10-22T10:46:35Z</time>
 </trkpt>
 <trkpt lat="48.068085" lon="13.142323">
 <ele>571.10</ele>
 <time>2011-10-22T10:46:46Z</time>
 </trkpt>
 <trkpt lat="48.067764" lon="13.142466">
 <ele>570.96</ele>
 <time>2011-10-22T10:46:54Z</time>
 </trkpt>
 <trkpt lat="48.067650" lon="13.142517">
 <ele>571.37</ele>
 <time>2011-10-22T10:46:58Z</time>
 </trkpt>
 <trkpt lat="48.067516" lon="13.142561">
 <ele>572.42</ele>
 <time>2011-10-22T10:47:05Z</time>
 </trkpt>
 <trkpt lat="48.067509" lon="13.142569">
 <ele>572.64</ele>
 <time>2011-10-22T10:47:07Z</time>
 </trkpt>
 <trkpt lat="48.067581" lon="13.142731">
 <ele>572.86</ele>
 <time>2011-10-22T10:47:13Z</time>
 </trkpt>
 <trkpt lat="48.067593" lon="13.142779">
 <ele>572.76</ele>
 <time>2011-10-22T10:47:14Z</time>
 </trkpt>
 <trkpt lat="48.067528" lon="13.142893">
 <ele>572.16</ele>
 <time>2011-10-22T10:47:18Z</time>
 </trkpt>
 <trkpt lat="48.067429" lon="13.142983">
 <ele>572.12</ele>
 <time>2011-10-22T10:47:23Z</time>
 </trkpt>
 <trkpt lat="48.067310" lon="13.143091">
 <ele>572.49</ele>
 <time>2011-10-22T10:47:30Z</time>
 </trkpt>
 <trkpt lat="48.067299" lon="13.143094">
 <ele>572.74</ele>
 <time>2011-10-22T10:47:33Z</time>
 </trkpt>
 <trkpt lat="48.067215" lon="13.143190">
 <ele>572.80</ele>
 <time>2011-10-22T10:47:41Z</time>
 </trkpt>
 <trkpt lat="48.066971" lon="13.143392">
 <ele>572.17</ele>
 <time>2011-10-22T10:47:50Z</time>
 </trkpt>
 <trkpt lat="48.066696" lon="13.143606">
 <ele>571.53</ele>
 <time>2011-10-22T10:47:58Z</time>
 </trkpt>
 <trkpt lat="48.066330" lon="13.143931">
 <ele>572.01</ele>
 <time>2011-10-22T10:48:08Z</time>
 </trkpt>
 <trkpt lat="48.065914" lon="13.144285">
 <ele>572.81</ele>
 <time>2011-10-22T10:48:19Z</time>
 </trkpt>
 <trkpt lat="48.065575" lon="13.144574">
 <ele>572.91</ele>
 <time>2011-10-22T10:48:28Z</time>
 </trkpt>
 <trkpt lat="48.065136" lon="13.144966">
 <ele>573.45</ele>
 <time>2011-10-22T10:48:40Z</time>
 </trkpt>
 <trkpt lat="48.065067" lon="13.145042">
 <ele>573.58</ele>
 <time>2011-10-22T10:48:42Z</time>
 </trkpt>
 <trkpt lat="48.064960" lon="13.145234">
 <ele>573.87</ele>
 <time>2011-10-22T10:48:46Z</time>
 </trkpt>
 <trkpt lat="48.064808" lon="13.145404">
 <ele>573.73</ele>
 <time>2011-10-22T10:48:50Z</time>
 </trkpt>
 <trkpt lat="48.064732" lon="13.145453">
 <ele>573.63</ele>
 <time>2011-10-22T10:48:52Z</time>
 </trkpt>
 <trkpt lat="48.064472" lon="13.145798">
 <ele>574.48</ele>
 <time>2011-10-22T10:49:00Z</time>
 </trkpt>
 <trkpt lat="48.064240" lon="13.146222">
 <ele>573.89</ele>
 <time>2011-10-22T10:49:08Z</time>
 </trkpt>
 <trkpt lat="48.064014" lon="13.146733">
 <ele>573.55</ele>
 <time>2011-10-22T10:49:17Z</time>
 </trkpt>
 <trkpt lat="48.064003" lon="13.146758">
 <ele>573.67</ele>
 <time>2011-10-22T10:49:18Z</time>
 </trkpt>
 <trkpt lat="48.063919" lon="13.146750">
 <ele>574.57</ele>
 <time>2011-10-22T10:49:24Z</time>
 </trkpt>
 <trkpt lat="48.063801" lon="13.146915">
 <ele>574.36</ele>
 <time>2011-10-22T10:49:29Z</time>
 </trkpt>
 <trkpt lat="48.063583" lon="13.147184">
 <ele>573.56</ele>
 <time>2011-10-22T10:49:36Z</time>
 </trkpt>
 <trkpt lat="48.063145" lon="13.147624">
 <ele>573.48</ele>
 <time>2011-10-22T10:49:48Z</time>
 </trkpt>
 <trkpt lat="48.062820" lon="13.147988">
 <ele>573.85</ele>
 <time>2011-10-22T10:49:57Z</time>
 </trkpt>
 <trkpt lat="48.062553" lon="13.148328">
 <ele>573.65</ele>
 <time>2011-10-22T10:50:05Z</time>
 </trkpt>
 <trkpt lat="48.062267" lon="13.148710">
 <ele>574.41</ele>
 <time>2011-10-22T10:50:14Z</time>
 </trkpt>
 <trkpt lat="48.062206" lon="13.148802">
 <ele>574.92</ele>
 <time>2011-10-22T10:50:16Z</time>
 </trkpt>
 <trkpt lat="48.061996" lon="13.149105">
 <ele>575.92</ele>
 <time>2011-10-22T10:50:23Z</time>
 </trkpt>
 <trkpt lat="48.061672" lon="13.149465">
 <ele>576.16</ele>
 <time>2011-10-22T10:50:32Z</time>
 </trkpt>
 <trkpt lat="48.061245" lon="13.149895">
 <ele>577.84</ele>
 <time>2011-10-22T10:50:44Z</time>
 </trkpt>
 <trkpt lat="48.060917" lon="13.150137">
 <ele>578.27</ele>
 <time>2011-10-22T10:50:52Z</time>
 </trkpt>
 <trkpt lat="48.060600" lon="13.150430">
 <ele>578.34</ele>
 <time>2011-10-22T10:51:00Z</time>
 </trkpt>
 <trkpt lat="48.060246" lon="13.150750">
 <ele>578.70</ele>
 <time>2011-10-22T10:51:09Z</time>
 </trkpt>
 <trkpt lat="48.059853" lon="13.150966">
 <ele>579.81</ele>
 <time>2011-10-22T10:51:18Z</time>
 </trkpt>
 <trkpt lat="48.059429" lon="13.151067">
 <ele>580.53</ele>
 <time>2011-10-22T10:51:27Z</time>
 </trkpt>
 <trkpt lat="48.058857" lon="13.151183">
 <ele>581.47</ele>
 <time>2011-10-22T10:51:39Z</time>
 </trkpt>
 <trkpt lat="48.058498" lon="13.151396">
 <ele>581.40</ele>
 <time>2011-10-22T10:51:47Z</time>
 </trkpt>
 <trkpt lat="48.058113" lon="13.151700">
 <ele>581.40</ele>
 <time>2011-10-22T10:51:56Z</time>
 </trkpt>
 <trkpt lat="48.057621" lon="13.152100">
 <ele>581.96</ele>
 <time>2011-10-22T10:52:08Z</time>
 </trkpt>
 <trkpt lat="48.057133" lon="13.152492">
 <ele>582.15</ele>
 <time>2011-10-22T10:52:19Z</time>
 </trkpt>
 <trkpt lat="48.056831" lon="13.152796">
 <ele>581.74</ele>
 <time>2011-10-22T10:52:26Z</time>
 </trkpt>
 <trkpt lat="48.056671" lon="13.153007">
 <ele>581.36</ele>
 <time>2011-10-22T10:52:30Z</time>
 </trkpt>
 <trkpt lat="48.056473" lon="13.153079">
 <ele>580.56</ele>
 <time>2011-10-22T10:52:35Z</time>
 </trkpt>
 <trkpt lat="48.056370" lon="13.152959">
 <ele>580.37</ele>
 <time>2011-10-22T10:52:38Z</time>
 </trkpt>
 <trkpt lat="48.056217" lon="13.152703">
 <ele>580.05</ele>
 <time>2011-10-22T10:52:43Z</time>
 </trkpt>
 <trkpt lat="48.056038" lon="13.152503">
 <ele>580.43</ele>
 <time>2011-10-22T10:52:48Z</time>
 </trkpt>
 <trkpt lat="48.055611" lon="13.152223">
 <ele>581.15</ele>
 <time>2011-10-22T10:52:58Z</time>
 </trkpt>
 <trkpt lat="48.055286" lon="13.151913">
 <ele>580.87</ele>
 <time>2011-10-22T10:53:06Z</time>
 </trkpt>
 <trkpt lat="48.055206" lon="13.151823">
 <ele>580.99</ele>
 <time>2011-10-22T10:53:08Z</time>
 </trkpt>
 <trkpt lat="48.054996" lon="13.151417">
 <ele>581.70</ele>
 <time>2011-10-22T10:53:15Z</time>
 </trkpt>
 <trkpt lat="48.054817" lon="13.151048">
 <ele>582.98</ele>
 <time>2011-10-22T10:53:22Z</time>
 </trkpt>
 <trkpt lat="48.054600" lon="13.150797">
 <ele>583.28</ele>
 <time>2011-10-22T10:53:29Z</time>
 </trkpt>
 <trkpt lat="48.054218" lon="13.150511">
 <ele>582.94</ele>
 <time>2011-10-22T10:53:38Z</time>
 </trkpt>
 <trkpt lat="48.053810" lon="13.150293">
 <ele>583.02</ele>
 <time>2011-10-22T10:53:47Z</time>
 </trkpt>
 <trkpt lat="48.053410" lon="13.150134">
 <ele>583.29</ele>
 <time>2011-10-22T10:53:56Z</time>
 </trkpt>
 <trkpt lat="48.052963" lon="13.149925">
 <ele>584.55</ele>
 <time>2011-10-22T10:54:06Z</time>
 </trkpt>
 <trkpt lat="48.052475" lon="13.149617">
 <ele>585.50</ele>
 <time>2011-10-22T10:54:18Z</time>
 </trkpt>
 <trkpt lat="48.052082" lon="13.149371">
 <ele>586.88</ele>
 <time>2011-10-22T10:54:28Z</time>
 </trkpt>
 <trkpt lat="48.051659" lon="13.149064">
 <ele>587.92</ele>
 <time>2011-10-22T10:54:39Z</time>
 </trkpt>
 <trkpt lat="48.051346" lon="13.148742">
 <ele>588.66</ele>
 <time>2011-10-22T10:54:48Z</time>
 </trkpt>
 <trkpt lat="48.051167" lon="13.148574">
 <ele>589.00</ele>
 <time>2011-10-22T10:54:53Z</time>
 </trkpt>
 <trkpt lat="48.050739" lon="13.148375">
 <ele>588.03</ele>
 <time>2011-10-22T10:55:02Z</time>
 </trkpt>
 <trkpt lat="48.050255" lon="13.148192">
 <ele>587.59</ele>
 <time>2011-10-22T10:55:12Z</time>
 </trkpt>
 <trkpt lat="48.049839" lon="13.148123">
 <ele>587.91</ele>
 <time>2011-10-22T10:55:21Z</time>
 </trkpt>
 <trkpt lat="48.049446" lon="13.148131">
 <ele>587.76</ele>
 <time>2011-10-22T10:55:29Z</time>
 </trkpt>
 <trkpt lat="48.049088" lon="13.148182">
 <ele>587.34</ele>
 <time>2011-10-22T10:55:36Z</time>
 </trkpt>
 <trkpt lat="48.048721" lon="13.148243">
 <ele>587.66</ele>
 <time>2011-10-22T10:55:44Z</time>
 </trkpt>
 <trkpt lat="48.048248" lon="13.148212">
 <ele>588.14</ele>
 <time>2011-10-22T10:55:54Z</time>
 </trkpt>
 <trkpt lat="48.048016" lon="13.148176">
 <ele>588.36</ele>
 <time>2011-10-22T10:55:59Z</time>
 </trkpt>
 <trkpt lat="48.047852" lon="13.148238">
 <ele>588.41</ele>
 <time>2011-10-22T10:56:03Z</time>
 </trkpt>
 <trkpt lat="48.047668" lon="13.148512">
 <ele>588.19</ele>
 <time>2011-10-22T10:56:09Z</time>
 </trkpt>
 <trkpt lat="48.047626" lon="13.148646">
 <ele>587.82</ele>
 <time>2011-10-22T10:56:11Z</time>
 </trkpt>
 <trkpt lat="48.047539" lon="13.149193">
 <ele>586.16</ele>
 <time>2011-10-22T10:56:18Z</time>
 </trkpt>
 <trkpt lat="48.047417" lon="13.149695">
 <ele>585.95</ele>
 <time>2011-10-22T10:56:25Z</time>
 </trkpt>
 <trkpt lat="48.047394" lon="13.149755">
 <ele>586.20</ele>
 <time>2011-10-22T10:56:26Z</time>
 </trkpt>
 <trkpt lat="48.047253" lon="13.149968">
 <ele>587.59</ele>
 <time>2011-10-22T10:56:31Z</time>
 </trkpt>
 <trkpt lat="48.047199" lon="13.150008">
 <ele>588.71</ele>
 <time>2011-10-22T10:56:35Z</time>
 </trkpt>
 <trkpt lat="48.047195" lon="13.150018">
 <ele>589.29</ele>
 <time>2011-10-22T10:56:37Z</time>
 </trkpt>
 <trkpt lat="48.047203" lon="13.150128">
 <ele>589.50</ele>
 <time>2011-10-22T10:56:46Z</time>
 </trkpt>
 <trkpt lat="48.047176" lon="13.150167">
 <ele>590.00</ele>
 <time>2011-10-22T10:56:51Z</time>
 </trkpt>
 <trkpt lat="48.047142" lon="13.150164">
 <ele>590.23</ele>
 <time>2011-10-22T10:56:56Z</time>
 </trkpt>
 <trkpt lat="48.047081" lon="13.150166">
 <ele>590.24</ele>
 <time>2011-10-22T10:57:45Z</time>
 </trkpt>
 <trkpt lat="48.047024" lon="13.150124">
 <ele>590.36</ele>
 <time>2011-10-22T10:57:48Z</time>
 </trkpt>
 <trkpt lat="48.046818" lon="13.150105">
 <ele>592.05</ele>
 <time>2011-10-22T10:57:57Z</time>
 </trkpt>
 <trkpt lat="48.046646" lon="13.150108">
 <ele>593.50</ele>
 <time>2011-10-22T10:58:05Z</time>
 </trkpt>
 <trkpt lat="48.046501" lon="13.150141">
 <ele>595.14</ele>
 <time>2011-10-22T10:58:12Z</time>
 </trkpt>
 <trkpt lat="48.046383" lon="13.150127">
 <ele>596.72</ele>
 <time>2011-10-22T10:58:17Z</time>
 </trkpt>
 <trkpt lat="48.046272" lon="13.150086">
 <ele>597.90</ele>
 <time>2011-10-22T10:58:22Z</time>
 </trkpt>
 <trkpt lat="48.046162" lon="13.150033">
 <ele>598.67</ele>
 <time>2011-10-22T10:58:27Z</time>
 </trkpt>
 <trkpt lat="48.045979" lon="13.149903">
 <ele>600.05</ele>
 <time>2011-10-22T10:58:35Z</time>
 </trkpt>
 <trkpt lat="48.045734" lon="13.149717">
 <ele>601.43</ele>
 <time>2011-10-22T10:58:45Z</time>
 </trkpt>
 <trkpt lat="48.045429" lon="13.149492">
 <ele>601.70</ele>
 <time>2011-10-22T10:58:56Z</time>
 </trkpt>
 <trkpt lat="48.045097" lon="13.149267">
 <ele>602.43</ele>
 <time>2011-10-22T10:59:08Z</time>
 </trkpt>
 <trkpt lat="48.044811" lon="13.149166">
 <ele>602.74</ele>
 <time>2011-10-22T10:59:17Z</time>
 </trkpt>
 <trkpt lat="48.044533" lon="13.149070">
 <ele>603.32</ele>
 <time>2011-10-22T10:59:25Z</time>
 </trkpt>
 <trkpt lat="48.044247" lon="13.148937">
 <ele>603.60</ele>
 <time>2011-10-22T10:59:34Z</time>
 </trkpt>
 <trkpt lat="48.043919" lon="13.148762">
 <ele>604.48</ele>
 <time>2011-10-22T10:59:45Z</time>
 </trkpt>
 <trkpt lat="48.043648" lon="13.148616">
 <ele>605.26</ele>
 <time>2011-10-22T10:59:54Z</time>
 </trkpt>
 <trkpt lat="48.043304" lon="13.148440">
 <ele>605.84</ele>
 <time>2011-10-22T11:00:05Z</time>
 </trkpt>
 <trkpt lat="48.042889" lon="13.148248">
 <ele>607.30</ele>
 <time>2011-10-22T11:00:18Z</time>
 </trkpt>
 <trkpt lat="48.042446" lon="13.148081">
 <ele>608.40</ele>
 <time>2011-10-22T11:00:31Z</time>
 </trkpt>
 <trkpt lat="48.042175" lon="13.147984">
 <ele>608.87</ele>
 <time>2011-10-22T11:00:39Z</time>
 </trkpt>
 <trkpt lat="48.041832" lon="13.147844">
 <ele>609.18</ele>
 <time>2011-10-22T11:00:49Z</time>
 </trkpt>
 <trkpt lat="48.041515" lon="13.147729">
 <ele>609.13</ele>
 <time>2011-10-22T11:00:58Z</time>
 </trkpt>
 <trkpt lat="48.041199" lon="13.147633">
 <ele>609.76</ele>
 <time>2011-10-22T11:01:07Z</time>
 </trkpt>
 <trkpt lat="48.040852" lon="13.147543">
 <ele>610.55</ele>
 <time>2011-10-22T11:01:17Z</time>
 </trkpt>
 <trkpt lat="48.040539" lon="13.147469">
 <ele>611.41</ele>
 <time>2011-10-22T11:01:26Z</time>
 </trkpt>
 <trkpt lat="48.040295" lon="13.147408">
 <ele>612.00</ele>
 <time>2011-10-22T11:01:33Z</time>
 </trkpt>
 <trkpt lat="48.039944" lon="13.147355">
 <ele>612.02</ele>
 <time>2011-10-22T11:01:43Z</time>
 </trkpt>
 <trkpt lat="48.039700" lon="13.147283">
 <ele>611.98</ele>
 <time>2011-10-22T11:01:50Z</time>
 </trkpt>
 <trkpt lat="48.039272" lon="13.147106">
 <ele>613.15</ele>
 <time>2011-10-22T11:02:02Z</time>
 </trkpt>
 <trkpt lat="48.038830" lon="13.146905">
 <ele>614.09</ele>
 <time>2011-10-22T11:02:14Z</time>
 </trkpt>
 <trkpt lat="48.038376" lon="13.146783">
 <ele>614.79</ele>
 <time>2011-10-22T11:02:26Z</time>
 </trkpt>
 <trkpt lat="48.037968" lon="13.146731">
 <ele>616.14</ele>
 <time>2011-10-22T11:02:36Z</time>
 </trkpt>
 <trkpt lat="48.037373" lon="13.146664">
 <ele>616.33</ele>
 <time>2011-10-22T11:02:51Z</time>
 </trkpt>
 <trkpt lat="48.036922" lon="13.146589">
 <ele>617.56</ele>
 <time>2011-10-22T11:03:02Z</time>
 </trkpt>
 <trkpt lat="48.036606" lon="13.146395">
 <ele>617.40</ele>
 <time>2011-10-22T11:03:10Z</time>
 </trkpt>
 <trkpt lat="48.036369" lon="13.146191">
 <ele>618.55</ele>
 <time>2011-10-22T11:03:17Z</time>
 </trkpt>
 <trkpt lat="48.036335" lon="13.146161">
 <ele>618.74</ele>
 <time>2011-10-22T11:03:18Z</time>
 </trkpt>
 <trkpt lat="48.036057" lon="13.145924">
 <ele>619.52</ele>
 <time>2011-10-22T11:03:26Z</time>
 </trkpt>
 <trkpt lat="48.035809" lon="13.145712">
 <ele>620.10</ele>
 <time>2011-10-22T11:03:33Z</time>
 </trkpt>
 <trkpt lat="48.035580" lon="13.145511">
 <ele>621.41</ele>
 <time>2011-10-22T11:03:39Z</time>
 </trkpt>
 <trkpt lat="48.035324" lon="13.145300">
 <ele>621.82</ele>
 <time>2011-10-22T11:03:46Z</time>
 </trkpt>
 <trkpt lat="48.035061" lon="13.145061">
 <ele>621.74</ele>
 <time>2011-10-22T11:03:53Z</time>
 </trkpt>
 <trkpt lat="48.034725" lon="13.144779">
 <ele>621.68</ele>
 <time>2011-10-22T11:04:02Z</time>
 </trkpt>
 <trkpt lat="48.034523" lon="13.144637">
 <ele>621.56</ele>
 <time>2011-10-22T11:04:07Z</time>
 </trkpt>
 <trkpt lat="48.034481" lon="13.144607">
 <ele>621.39</ele>
 <time>2011-10-22T11:04:08Z</time>
 </trkpt>
 <trkpt lat="48.034130" lon="13.144296">
 <ele>620.28</ele>
 <time>2011-10-22T11:04:17Z</time>
 </trkpt>
 <trkpt lat="48.033703" lon="13.143962">
 <ele>620.62</ele>
 <time>2011-10-22T11:04:27Z</time>
 </trkpt>
 <trkpt lat="48.033298" lon="13.143654">
 <ele>621.33</ele>
 <time>2011-10-22T11:04:36Z</time>
 </trkpt>
 <trkpt lat="48.032837" lon="13.143312">
 <ele>621.70</ele>
 <time>2011-10-22T11:04:47Z</time>
 </trkpt>
 <trkpt lat="48.032497" lon="13.143055">
 <ele>623.09</ele>
 <time>2011-10-22T11:04:56Z</time>
 </trkpt>
 <trkpt lat="48.032150" lon="13.142798">
 <ele>625.84</ele>
 <time>2011-10-22T11:05:06Z</time>
 </trkpt>
 <trkpt lat="48.031979" lon="13.142686">
 <ele>626.60</ele>
 <time>2011-10-22T11:05:11Z</time>
 </trkpt>
 <trkpt lat="48.031799" lon="13.142588">
 <ele>628.40</ele>
 <time>2011-10-22T11:05:16Z</time>
 </trkpt>
 <trkpt lat="48.031612" lon="13.142504">
 <ele>630.53</ele>
 <time>2011-10-22T11:05:21Z</time>
 </trkpt>
 <trkpt lat="48.031399" lon="13.142429">
 <ele>631.69</ele>
 <time>2011-10-22T11:05:28Z</time>
 </trkpt>
 <trkpt lat="48.031116" lon="13.142360">
 <ele>631.77</ele>
 <time>2011-10-22T11:05:36Z</time>
 </trkpt>
 <trkpt lat="48.030708" lon="13.142288">
 <ele>630.41</ele>
 <time>2011-10-22T11:05:46Z</time>
 </trkpt>
 <trkpt lat="48.030212" lon="13.142207">
 <ele>629.41</ele>
 <time>2011-10-22T11:05:56Z</time>
 </trkpt>
 <trkpt lat="48.029789" lon="13.142138">
 <ele>627.43</ele>
 <time>2011-10-22T11:06:04Z</time>
 </trkpt>
 <trkpt lat="48.029594" lon="13.142106">
 <ele>627.12</ele>
 <time>2011-10-22T11:06:08Z</time>
 </trkpt>
 <trkpt lat="48.029011" lon="13.141984">
 <ele>625.88</ele>
 <time>2011-10-22T11:06:21Z</time>
 </trkpt>
 <trkpt lat="48.028744" lon="13.141864">
 <ele>626.33</ele>
 <time>2011-10-22T11:06:27Z</time>
 </trkpt>
 <trkpt lat="48.028511" lon="13.141706">
 <ele>625.89</ele>
 <time>2011-10-22T11:06:32Z</time>
 </trkpt>
 <trkpt lat="48.028168" lon="13.141384">
 <ele>623.32</ele>
 <time>2011-10-22T11:06:39Z</time>
 </trkpt>
 <trkpt lat="48.028076" lon="13.141284">
 <ele>622.90</ele>
 <time>2011-10-22T11:06:41Z</time>
 </trkpt>
 <trkpt lat="48.027744" lon="13.140709">
 <ele>622.19</ele>
 <time>2011-10-22T11:06:50Z</time>
 </trkpt>
 <trkpt lat="48.027592" lon="13.140301">
 <ele>621.92</ele>
 <time>2011-10-22T11:06:56Z</time>
 </trkpt>
 <trkpt lat="48.027576" lon="13.139999">
 <ele>622.33</ele>
 <time>2011-10-22T11:07:01Z</time>
 </trkpt>
 <trkpt lat="48.027592" lon="13.139833">
 <ele>622.82</ele>
 <time>2011-10-22T11:07:06Z</time>
 </trkpt>
 <trkpt lat="48.027607" lon="13.139805">
 <ele>622.82</ele>
 <time>2011-10-22T11:07:07Z</time>
 </trkpt>
 <trkpt lat="48.027740" lon="13.139587">
 <ele>622.79</ele>
 <time>2011-10-22T11:07:14Z</time>
 </trkpt>
 <trkpt lat="48.027782" lon="13.139545">
 <ele>622.60</ele>
 <time>2011-10-22T11:07:19Z</time>
 </trkpt>
 <trkpt lat="48.027779" lon="13.139546">
 <ele>622.74</ele>
 <time>2011-10-22T11:07:33Z</time>
 </trkpt>
 <trkpt lat="48.027748" lon="13.139523">
 <ele>622.77</ele>
 <time>2011-10-22T11:08:34Z</time>
 </trkpt>
 <trkpt lat="48.027718" lon="13.139545">
 <ele>622.60</ele>
 <time>2011-10-22T11:08:36Z</time>
 </trkpt>
 <trkpt lat="48.027615" lon="13.139662">
 <ele>621.92</ele>
 <time>2011-10-22T11:08:42Z</time>
 </trkpt>
 <trkpt lat="48.027500" lon="13.139737">
 <ele>622.06</ele>
 <time>2011-10-22T11:08:47Z</time>
 </trkpt>
 <trkpt lat="48.027340" lon="13.139676">
 <ele>622.96</ele>
 <time>2011-10-22T11:08:53Z</time>
 </trkpt>
 <trkpt lat="48.027210" lon="13.139491">
 <ele>623.28</ele>
 <time>2011-10-22T11:08:58Z</time>
 </trkpt>
 <trkpt lat="48.026951" lon="13.139028">
 <ele>623.61</ele>
 <time>2011-10-22T11:09:07Z</time>
 </trkpt>
 <trkpt lat="48.026646" lon="13.138487">
 <ele>623.30</ele>
 <time>2011-10-22T11:09:17Z</time>
 </trkpt>
 <trkpt lat="48.026241" lon="13.137768">
 <ele>624.34</ele>
 <time>2011-10-22T11:09:30Z</time>
 </trkpt>
 <trkpt lat="48.025936" lon="13.137217">
 <ele>623.39</ele>
 <time>2011-10-22T11:09:39Z</time>
 </trkpt>
 <trkpt lat="48.025543" lon="13.136511">
 <ele>622.84</ele>
 <time>2011-10-22T11:09:50Z</time>
 </trkpt>
 <trkpt lat="48.025146" lon="13.135779">
 <ele>623.96</ele>
 <time>2011-10-22T11:10:02Z</time>
 </trkpt>
 <trkpt lat="48.024822" lon="13.135108">
 <ele>626.14</ele>
 <time>2011-10-22T11:10:13Z</time>
 </trkpt>
 <trkpt lat="48.024593" lon="13.134565">
 <ele>625.77</ele>
 <time>2011-10-22T11:10:20Z</time>
 </trkpt>
 <trkpt lat="48.024326" lon="13.133908">
 <ele>623.95</ele>
 <time>2011-10-22T11:10:27Z</time>
 </trkpt>
 <trkpt lat="48.023998" lon="13.133217">
 <ele>620.87</ele>
 <time>2011-10-22T11:10:34Z</time>
 </trkpt>
 <trkpt lat="48.023663" lon="13.132905">
 <ele>619.64</ele>
 <time>2011-10-22T11:10:39Z</time>
 </trkpt>
 <trkpt lat="48.023457" lon="13.132824">
 <ele>619.45</ele>
 <time>2011-10-22T11:10:42Z</time>
 </trkpt>
 <trkpt lat="48.022968" lon="13.132783">
 <ele>619.98</ele>
 <time>2011-10-22T11:10:50Z</time>
 </trkpt>
 <trkpt lat="48.022301" lon="13.132757">
 <ele>620.98</ele>
 <time>2011-10-22T11:11:02Z</time>
 </trkpt>
 <trkpt lat="48.021637" lon="13.132712">
 <ele>621.42</ele>
 <time>2011-10-22T11:11:13Z</time>
 </trkpt>
 <trkpt lat="48.021275" lon="13.132586">
 <ele>620.67</ele>
 <time>2011-10-22T11:11:19Z</time>
 </trkpt>
 <trkpt lat="48.020966" lon="13.132353">
 <ele>620.92</ele>
 <time>2011-10-22T11:11:25Z</time>
 </trkpt>
 <trkpt lat="48.020592" lon="13.131990">
 <ele>622.35</ele>
 <time>2011-10-22T11:11:34Z</time>
 </trkpt>
 <trkpt lat="48.020172" lon="13.131620">
 <ele>624.06</ele>
 <time>2011-10-22T11:11:44Z</time>
 </trkpt>
 <trkpt lat="48.019821" lon="13.131216">
 <ele>624.56</ele>
 <time>2011-10-22T11:11:53Z</time>
 </trkpt>
 <trkpt lat="48.019363" lon="13.130551">
 <ele>625.12</ele>
 <time>2011-10-22T11:12:05Z</time>
 </trkpt>
 <trkpt lat="48.018974" lon="13.129975">
 <ele>623.69</ele>
 <time>2011-10-22T11:12:14Z</time>
 </trkpt>
 <trkpt lat="48.018570" lon="13.129377">
 <ele>621.94</ele>
 <time>2011-10-22T11:12:22Z</time>
 </trkpt>
 <trkpt lat="48.018227" lon="13.128874">
 <ele>619.44</ele>
 <time>2011-10-22T11:12:28Z</time>
 </trkpt>
 <trkpt lat="48.017731" lon="13.128243">
 <ele>616.18</ele>
 <time>2011-10-22T11:12:36Z</time>
 </trkpt>
 <trkpt lat="48.017395" lon="13.127920">
 <ele>614.71</ele>
 <time>2011-10-22T11:12:41Z</time>
 </trkpt>
 <trkpt lat="48.017105" lon="13.127690">
 <ele>614.68</ele>
 <time>2011-10-22T11:12:46Z</time>
 </trkpt>
 <trkpt lat="48.016891" lon="13.127551">
 <ele>616.12</ele>
 <time>2011-10-22T11:12:51Z</time>
 </trkpt>
 <trkpt lat="48.016663" lon="13.127429">
 <ele>618.05</ele>
 <time>2011-10-22T11:12:57Z</time>
 </trkpt>
 <trkpt lat="48.016468" lon="13.127340">
 <ele>619.88</ele>
 <time>2011-10-22T11:13:02Z</time>
 </trkpt>
 <trkpt lat="48.016308" lon="13.127275">
 <ele>621.02</ele>
 <time>2011-10-22T11:13:06Z</time>
 </trkpt>
 <trkpt lat="48.016018" lon="13.127193">
 <ele>622.99</ele>
 <time>2011-10-22T11:13:13Z</time>
 </trkpt>
 <trkpt lat="48.015839" lon="13.127158">
 <ele>623.78</ele>
 <time>2011-10-22T11:13:19Z</time>
 </trkpt>
 <trkpt lat="48.015606" lon="13.127105">
 <ele>624.85</ele>
 <time>2011-10-22T11:13:26Z</time>
 </trkpt>
 <trkpt lat="48.015247" lon="13.127042">
 <ele>626.37</ele>
 <time>2011-10-22T11:13:35Z</time>
 </trkpt>
 <trkpt lat="48.014938" lon="13.126988">
 <ele>626.72</ele>
 <time>2011-10-22T11:13:43Z</time>
 </trkpt>
 <trkpt lat="48.014629" lon="13.126931">
 <ele>627.40</ele>
 <time>2011-10-22T11:13:50Z</time>
 </trkpt>
 <trkpt lat="48.014271" lon="13.126863">
 <ele>627.24</ele>
 <time>2011-10-22T11:13:57Z</time>
 </trkpt>
 <trkpt lat="48.013672" lon="13.126755">
 <ele>625.26</ele>
 <time>2011-10-22T11:14:07Z</time>
 </trkpt>
 <trkpt lat="48.012951" lon="13.126619">
 <ele>623.18</ele>
 <time>2011-10-22T11:14:18Z</time>
 </trkpt>
 <trkpt lat="48.012165" lon="13.126477">
 <ele>621.09</ele>
 <time>2011-10-22T11:14:30Z</time>
 </trkpt>
 <trkpt lat="48.011456" lon="13.126356">
 <ele>621.60</ele>
 <time>2011-10-22T11:14:41Z</time>
 </trkpt>
 <trkpt lat="48.011078" lon="13.126295">
 <ele>621.09</ele>
 <time>2011-10-22T11:14:47Z</time>
 </trkpt>
 <trkpt lat="48.010929" lon="13.126276">
 <ele>621.55</ele>
 <time>2011-10-22T11:14:51Z</time>
 </trkpt>
 <trkpt lat="48.010857" lon="13.126369">
 <ele>622.24</ele>
 <time>2011-10-22T11:14:55Z</time>
 </trkpt>
 <trkpt lat="48.010838" lon="13.126386">
 <ele>622.17</ele>
 <time>2011-10-22T11:14:58Z</time>
 </trkpt>
 <trkpt lat="48.010803" lon="13.126418">
 <ele>622.01</ele>
 <time>2011-10-22T11:15:09Z</time>
 </trkpt>
 <trkpt lat="48.010643" lon="13.126446">
 <ele>621.96</ele>
 <time>2011-10-22T11:15:14Z</time>
 </trkpt>
 <trkpt lat="48.010334" lon="13.126519">
 <ele>621.46</ele>
 <time>2011-10-22T11:15:21Z</time>
 </trkpt>
 <trkpt lat="48.009876" lon="13.126641">
 <ele>620.42</ele>
 <time>2011-10-22T11:15:30Z</time>
 </trkpt>
 <trkpt lat="48.009579" lon="13.126786">
 <ele>621.37</ele>
 <time>2011-10-22T11:15:37Z</time>
 </trkpt>
 <trkpt lat="48.009220" lon="13.126978">
 <ele>622.84</ele>
 <time>2011-10-22T11:15:46Z</time>
 </trkpt>
 <trkpt lat="48.008766" lon="13.127235">
 <ele>623.07</ele>
 <time>2011-10-22T11:15:57Z</time>
 </trkpt>
 <trkpt lat="48.008392" lon="13.127472">
 <ele>623.25</ele>
 <time>2011-10-22T11:16:06Z</time>
 </trkpt>
 <trkpt lat="48.008320" lon="13.127549">
 <ele>623.20</ele>
 <time>2011-10-22T11:16:08Z</time>
 </trkpt>
 <trkpt lat="48.008152" lon="13.127860">
 <ele>623.09</ele>
 <time>2011-10-22T11:16:14Z</time>
 </trkpt>
 <trkpt lat="48.007977" lon="13.128238">
 <ele>623.91</ele>
 <time>2011-10-22T11:16:21Z</time>
 </trkpt>
 <trkpt lat="48.007828" lon="13.128567">
 <ele>624.56</ele>
 <time>2011-10-22T11:16:27Z</time>
 </trkpt>
 <trkpt lat="48.007610" lon="13.128915">
 <ele>625.79</ele>
 <time>2011-10-22T11:16:35Z</time>
 </trkpt>
 <trkpt lat="48.007366" lon="13.129022">
 <ele>626.96</ele>
 <time>2011-10-22T11:16:42Z</time>
 </trkpt>
 <trkpt lat="48.007240" lon="13.128874">
 <ele>627.41</ele>
 <time>2011-10-22T11:16:47Z</time>
 </trkpt>
 <trkpt lat="48.007145" lon="13.128665">
 <ele>627.73</ele>
 <time>2011-10-22T11:16:51Z</time>
 </trkpt>
 <trkpt lat="48.007038" lon="13.128320">
 <ele>627.34</ele>
 <time>2011-10-22T11:16:56Z</time>
 </trkpt>
 <trkpt lat="48.007011" lon="13.128233">
 <ele>626.95</ele>
 <time>2011-10-22T11:16:57Z</time>
 </trkpt>
 <trkpt lat="48.006874" lon="13.127786">
 <ele>624.13</ele>
 <time>2011-10-22T11:17:02Z</time>
 </trkpt>
 <trkpt lat="48.006817" lon="13.127662">
 <ele>623.53</ele>
 <time>2011-10-22T11:17:04Z</time>
 </trkpt>
 <trkpt lat="48.006664" lon="13.127214">
 <ele>621.83</ele>
 <time>2011-10-22T11:17:10Z</time>
 </trkpt>
 <trkpt lat="48.006580" lon="13.126989">
 <ele>621.25</ele>
 <time>2011-10-22T11:17:13Z</time>
 </trkpt>
 <trkpt lat="48.006321" lon="13.126613">
 <ele>621.43</ele>
 <time>2011-10-22T11:17:20Z</time>
 </trkpt>
 <trkpt lat="48.006245" lon="13.126526">
 <ele>621.63</ele>
 <time>2011-10-22T11:17:22Z</time>
 </trkpt>
 <trkpt lat="48.005985" lon="13.126106">
 <ele>622.90</ele>
 <time>2011-10-22T11:17:30Z</time>
 </trkpt>
 <trkpt lat="48.005783" lon="13.125530">
 <ele>624.05</ele>
 <time>2011-10-22T11:17:39Z</time>
 </trkpt>
 <trkpt lat="48.005589" lon="13.124946">
 <ele>624.91</ele>
 <time>2011-10-22T11:17:48Z</time>
 </trkpt>
 <trkpt lat="48.005566" lon="13.124877">
 <ele>624.92</ele>
 <time>2011-10-22T11:17:49Z</time>
 </trkpt>
 <trkpt lat="48.005478" lon="13.124675">
 <ele>624.81</ele>
 <time>2011-10-22T11:17:52Z</time>
 </trkpt>
 <trkpt lat="48.005253" lon="13.124496">
 <ele>624.64</ele>
 <time>2011-10-22T11:17:57Z</time>
 </trkpt>
 <trkpt lat="48.004845" lon="13.124291">
 <ele>624.45</ele>
 <time>2011-10-22T11:18:05Z</time>
 </trkpt>
 <trkpt lat="48.004414" lon="13.124070">
 <ele>623.85</ele>
 <time>2011-10-22T11:18:13Z</time>
 </trkpt>
 <trkpt lat="48.003929" lon="13.123825">
 <ele>623.77</ele>
 <time>2011-10-22T11:18:22Z</time>
 </trkpt>
 <trkpt lat="48.003448" lon="13.123554">
 <ele>623.55</ele>
 <time>2011-10-22T11:18:31Z</time>
 </trkpt>
 <trkpt lat="48.003086" lon="13.123242">
 <ele>622.71</ele>
 <time>2011-10-22T11:18:38Z</time>
 </trkpt>
 <trkpt lat="48.002560" lon="13.122707">
 <ele>621.75</ele>
 <time>2011-10-22T11:18:48Z</time>
 </trkpt>
 <trkpt lat="48.002110" lon="13.122416">
 <ele>620.83</ele>
 <time>2011-10-22T11:18:56Z</time>
 </trkpt>
 <trkpt lat="48.001991" lon="13.122358">
 <ele>620.84</ele>
 <time>2011-10-22T11:18:59Z</time>
 </trkpt>
 <trkpt lat="48.001961" lon="13.122340">
 <ele>621.16</ele>
 <time>2011-10-22T11:19:03Z</time>
 </trkpt>
 <trkpt lat="48.001942" lon="13.122309">
 <ele>622.22</ele>
 <time>2011-10-22T11:19:14Z</time>
 </trkpt>
 <trkpt lat="48.001945" lon="13.122299">
 <ele>622.06</ele>
 <time>2011-10-22T11:19:16Z</time>
 </trkpt>
 <trkpt lat="48.001934" lon="13.122211">
 <ele>622.18</ele>
 <time>2011-10-22T11:19:22Z</time>
 </trkpt>
 <trkpt lat="48.001869" lon="13.121982">
 <ele>622.37</ele>
 <time>2011-10-22T11:19:27Z</time>
 </trkpt>
 <trkpt lat="48.001774" lon="13.121591">
 <ele>621.52</ele>
 <time>2011-10-22T11:19:33Z</time>
 </trkpt>
 <trkpt lat="48.001637" lon="13.121199">
 <ele>620.92</ele>
 <time>2011-10-22T11:19:39Z</time>
 </trkpt>
 <trkpt lat="48.001312" lon="13.120558">
 <ele>620.53</ele>
 <time>2011-10-22T11:19:49Z</time>
 </trkpt>
 <trkpt lat="48.001049" lon="13.120128">
 <ele>620.41</ele>
 <time>2011-10-22T11:19:56Z</time>
 </trkpt>
 <trkpt lat="48.000977" lon="13.119990">
 <ele>620.45</ele>
 <time>2011-10-22T11:19:58Z</time>
 </trkpt>
 <trkpt lat="48.000904" lon="13.119508">
 <ele>619.50</ele>
 <time>2011-10-22T11:20:03Z</time>
 </trkpt>
 <trkpt lat="48.000927" lon="13.118982">
 <ele>616.71</ele>
 <time>2011-10-22T11:20:07Z</time>
 </trkpt>
 <trkpt lat="48.001011" lon="13.118030">
 <ele>612.01</ele>
 <time>2011-10-22T11:20:14Z</time>
 </trkpt>
 <trkpt lat="48.000980" lon="13.117382">
 <ele>610.28</ele>
 <time>2011-10-22T11:20:19Z</time>
 </trkpt>
 <trkpt lat="48.000969" lon="13.117264">
 <ele>610.34</ele>
 <time>2011-10-22T11:20:20Z</time>
 </trkpt>
 <trkpt lat="48.001011" lon="13.116752">
 <ele>611.19</ele>
 <time>2011-10-22T11:20:25Z</time>
 </trkpt>
 <trkpt lat="48.001175" lon="13.116228">
 <ele>613.59</ele>
 <time>2011-10-22T11:20:32Z</time>
 </trkpt>
 <trkpt lat="48.001259" lon="13.115773">
 <ele>615.84</ele>
 <time>2011-10-22T11:20:39Z</time>
 </trkpt>
 <trkpt lat="48.001270" lon="13.115240">
 <ele>617.94</ele>
 <time>2011-10-22T11:20:48Z</time>
 </trkpt>
 <trkpt lat="48.001274" lon="13.114808">
 <ele>618.84</ele>
 <time>2011-10-22T11:20:56Z</time>
 </trkpt>
 <trkpt lat="48.001286" lon="13.114467">
 <ele>620.03</ele>
 <time>2011-10-22T11:21:03Z</time>
 </trkpt>
 <trkpt lat="48.001308" lon="13.113971">
 <ele>624.53</ele>
 <time>2011-10-22T11:21:14Z</time>
 </trkpt>
 <trkpt lat="48.001354" lon="13.113623">
 <ele>626.82</ele>
 <time>2011-10-22T11:21:23Z</time>
 </trkpt>
 <trkpt lat="48.001476" lon="13.113260">
 <ele>627.96</ele>
 <time>2011-10-22T11:21:32Z</time>
 </trkpt>
 <trkpt lat="48.001656" lon="13.112977">
 <ele>628.32</ele>
 <time>2011-10-22T11:21:39Z</time>
 </trkpt>
 <trkpt lat="48.001980" lon="13.112642">
 <ele>627.11</ele>
 <time>2011-10-22T11:21:47Z</time>
 </trkpt>
 <trkpt lat="48.002403" lon="13.112203">
 <ele>626.04</ele>
 <time>2011-10-22T11:21:56Z</time>
 </trkpt>
 <trkpt lat="48.002777" lon="13.111882">
 <ele>626.36</ele>
 <time>2011-10-22T11:22:05Z</time>
 </trkpt>
 <trkpt lat="48.003227" lon="13.111542">
 <ele>626.67</ele>
 <time>2011-10-22T11:22:16Z</time>
 </trkpt>
 <trkpt lat="48.003632" lon="13.111123">
 <ele>627.11</ele>
 <time>2011-10-22T11:22:26Z</time>
 </trkpt>
 <trkpt lat="48.003971" lon="13.110703">
 <ele>627.63</ele>
 <time>2011-10-22T11:22:35Z</time>
 </trkpt>
 <trkpt lat="48.004097" lon="13.110370">
 <ele>627.19</ele>
 <time>2011-10-22T11:22:40Z</time>
 </trkpt>
 <trkpt lat="48.004227" lon="13.109656">
 <ele>625.78</ele>
 <time>2011-10-22T11:22:48Z</time>
 </trkpt>
 <trkpt lat="48.004253" lon="13.109562">
 <ele>625.42</ele>
 <time>2011-10-22T11:22:49Z</time>
 </trkpt>
 <trkpt lat="48.004311" lon="13.109385">
 <ele>625.09</ele>
 <time>2011-10-22T11:22:51Z</time>
 </trkpt>
 <trkpt lat="48.004395" lon="13.109023">
 <ele>624.67</ele>
 <time>2011-10-22T11:22:55Z</time>
 </trkpt>
 <trkpt lat="48.004414" lon="13.108839">
 <ele>624.43</ele>
 <time>2011-10-22T11:22:57Z</time>
 </trkpt>
 <trkpt lat="48.004360" lon="13.108100">
 <ele>624.17</ele>
 <time>2011-10-22T11:23:05Z</time>
 </trkpt>
 <trkpt lat="48.004288" lon="13.107771">
 <ele>624.03</ele>
 <time>2011-10-22T11:23:09Z</time>
 </trkpt>
 <trkpt lat="48.004189" lon="13.107268">
 <ele>623.86</ele>
 <time>2011-10-22T11:23:15Z</time>
 </trkpt>
 <trkpt lat="48.004143" lon="13.106680">
 <ele>623.81</ele>
 <time>2011-10-22T11:23:22Z</time>
 </trkpt>
 <trkpt lat="48.004131" lon="13.106189">
 <ele>623.55</ele>
 <time>2011-10-22T11:23:28Z</time>
 </trkpt>
 <trkpt lat="48.004120" lon="13.105846">
 <ele>623.61</ele>
 <time>2011-10-22T11:23:32Z</time>
 </trkpt>
 <trkpt lat="48.004055" lon="13.105359">
 <ele>624.00</ele>
 <time>2011-10-22T11:23:38Z</time>
 </trkpt>
 <trkpt lat="48.003967" lon="13.104779">
 <ele>623.65</ele>
 <time>2011-10-22T11:23:45Z</time>
 </trkpt>
 <trkpt lat="48.003834" lon="13.104162">
 <ele>623.85</ele>
 <time>2011-10-22T11:23:53Z</time>
 </trkpt>
 <trkpt lat="48.003647" lon="13.103583">
 <ele>624.63</ele>
 <time>2011-10-22T11:24:01Z</time>
 </trkpt>
 <trkpt lat="48.003487" lon="13.102911">
 <ele>624.94</ele>
 <time>2011-10-22T11:24:10Z</time>
 </trkpt>
 <trkpt lat="48.003311" lon="13.102309">
 <ele>626.22</ele>
 <time>2011-10-22T11:24:19Z</time>
 </trkpt>
 <trkpt lat="48.003147" lon="13.101782">
 <ele>626.07</ele>
 <time>2011-10-22T11:24:26Z</time>
 </trkpt>
 <trkpt lat="48.003021" lon="13.101256">
 <ele>625.85</ele>
 <time>2011-10-22T11:24:33Z</time>
 </trkpt>
 <trkpt lat="48.003002" lon="13.100989">
 <ele>626.22</ele>
 <time>2011-10-22T11:24:37Z</time>
 </trkpt>
 <trkpt lat="48.003006" lon="13.100372">
 <ele>628.45</ele>
 <time>2011-10-22T11:24:47Z</time>
 </trkpt>
 <trkpt lat="48.002953" lon="13.100094">
 <ele>629.60</ele>
 <time>2011-10-22T11:24:52Z</time>
 </trkpt>
 <trkpt lat="48.002922" lon="13.099948">
 <ele>630.22</ele>
 <time>2011-10-22T11:24:57Z</time>
 </trkpt>
 <trkpt lat="48.002869" lon="13.099934">
 <ele>630.53</ele>
 <time>2011-10-22T11:25:03Z</time>
 </trkpt>
 <trkpt lat="48.002808" lon="13.099708">
 <ele>630.61</ele>
 <time>2011-10-22T11:25:12Z</time>
 </trkpt>
 <trkpt lat="48.002712" lon="13.099535">
 <ele>630.51</ele>
 <time>2011-10-22T11:25:16Z</time>
 </trkpt>
 <trkpt lat="48.002636" lon="13.099490">
 <ele>630.67</ele>
 <time>2011-10-22T11:25:18Z</time>
 </trkpt>
 <trkpt lat="48.002502" lon="13.099403">
 <ele>630.48</ele>
 <time>2011-10-22T11:25:21Z</time>
 </trkpt>
 <trkpt lat="48.002205" lon="13.099066">
 <ele>629.76</ele>
 <time>2011-10-22T11:25:29Z</time>
 </trkpt>
 <trkpt lat="48.001911" lon="13.098614">
 <ele>628.21</ele>
 <time>2011-10-22T11:25:37Z</time>
 </trkpt>
 <trkpt lat="48.001720" lon="13.098207">
 <ele>627.69</ele>
 <time>2011-10-22T11:25:43Z</time>
 </trkpt>
 <trkpt lat="48.001602" lon="13.097917">
 <ele>627.76</ele>
 <time>2011-10-22T11:25:47Z</time>
 </trkpt>
 <trkpt lat="48.001354" lon="13.097296">
 <ele>627.90</ele>
 <time>2011-10-22T11:25:56Z</time>
 </trkpt>
 <trkpt lat="48.001118" lon="13.096586">
 <ele>628.35</ele>
 <time>2011-10-22T11:26:06Z</time>
 </trkpt>
 <trkpt lat="48.000935" lon="13.096016">
 <ele>628.48</ele>
 <time>2011-10-22T11:26:14Z</time>
 </trkpt>
 <trkpt lat="48.000748" lon="13.095456">
 <ele>628.96</ele>
 <time>2011-10-22T11:26:22Z</time>
 </trkpt>
 <trkpt lat="48.000546" lon="13.094826">
 <ele>629.50</ele>
 <time>2011-10-22T11:26:31Z</time>
 </trkpt>
 <trkpt lat="48.000290" lon="13.094108">
 <ele>629.53</ele>
 <time>2011-10-22T11:26:41Z</time>
 </trkpt>
 <trkpt lat="48.000092" lon="13.093546">
 <ele>627.55</ele>
 <time>2011-10-22T11:26:47Z</time>
 </trkpt>
 <trkpt lat="47.999821" lon="13.092767">
 <ele>623.67</ele>
 <time>2011-10-22T11:26:54Z</time>
 </trkpt>
 <trkpt lat="47.999756" lon="13.092566">
 <ele>623.75</ele>
 <time>2011-10-22T11:26:57Z</time>
 </trkpt>
 <trkpt lat="47.999680" lon="13.092416">
 <ele>625.63</ele>
 <time>2011-10-22T11:27:02Z</time>
 </trkpt>
 <trkpt lat="47.999660" lon="13.092398">
 <ele>626.12</ele>
 <time>2011-10-22T11:27:05Z</time>
 </trkpt>
 <trkpt lat="47.999664" lon="13.092433">
 <ele>626.08</ele>
 <time>2011-10-22T11:27:15Z</time>
 </trkpt>
 <trkpt lat="47.999676" lon="13.092450">
 <ele>626.07</ele>
 <time>2011-10-22T11:27:18Z</time>
 </trkpt>
 <trkpt lat="47.999668" lon="13.092393">
 <ele>626.68</ele>
 <time>2011-10-22T11:27:40Z</time>
 </trkpt>
 <trkpt lat="47.999626" lon="13.092365">
 <ele>626.69</ele>
 <time>2011-10-22T11:27:42Z</time>
 </trkpt>
 <trkpt lat="47.999390" lon="13.092207">
 <ele>626.50</ele>
 <time>2011-10-22T11:27:50Z</time>
 </trkpt>
 <trkpt lat="47.999222" lon="13.092073">
 <ele>626.84</ele>
 <time>2011-10-22T11:27:55Z</time>
 </trkpt>
 <trkpt lat="47.999023" lon="13.091931">
 <ele>627.61</ele>
 <time>2011-10-22T11:28:01Z</time>
 </trkpt>
 <trkpt lat="47.998760" lon="13.091714">
 <ele>628.88</ele>
 <time>2011-10-22T11:28:09Z</time>
 </trkpt>
 <trkpt lat="47.998531" lon="13.091520">
 <ele>629.66</ele>
 <time>2011-10-22T11:28:16Z</time>
 </trkpt>
 <trkpt lat="47.998192" lon="13.091179">
 <ele>631.27</ele>
 <time>2011-10-22T11:28:27Z</time>
 </trkpt>
 <trkpt lat="47.998005" lon="13.090974">
 <ele>632.39</ele>
 <time>2011-10-22T11:28:33Z</time>
 </trkpt>
 <trkpt lat="47.997692" lon="13.090608">
 <ele>633.42</ele>
 <time>2011-10-22T11:28:43Z</time>
 </trkpt>
 <trkpt lat="47.997406" lon="13.090267">
 <ele>634.16</ele>
 <time>2011-10-22T11:28:52Z</time>
 </trkpt>
 <trkpt lat="47.997150" lon="13.089958">
 <ele>635.14</ele>
 <time>2011-10-22T11:29:00Z</time>
 </trkpt>
 <trkpt lat="47.996891" lon="13.089663">
 <ele>635.92</ele>
 <time>2011-10-22T11:29:08Z</time>
 </trkpt>
 <trkpt lat="47.996590" lon="13.089314">
 <ele>636.22</ele>
 <time>2011-10-22T11:29:17Z</time>
 </trkpt>
 <trkpt lat="47.996391" lon="13.089017">
 <ele>635.64</ele>
 <time>2011-10-22T11:29:23Z</time>
 </trkpt>
 <trkpt lat="47.996357" lon="13.088939">
 <ele>635.42</ele>
 <time>2011-10-22T11:29:24Z</time>
 </trkpt>
 <trkpt lat="47.996140" lon="13.088456">
 <ele>633.37</ele>
 <time>2011-10-22T11:29:31Z</time>
 </trkpt>
 <trkpt lat="47.996063" lon="13.088330">
 <ele>633.17</ele>
 <time>2011-10-22T11:29:35Z</time>
 </trkpt>
 <trkpt lat="47.996059" lon="13.088322">
 <ele>633.41</ele>
 <time>2011-10-22T11:29:37Z</time>
 </trkpt>
 <trkpt lat="47.996014" lon="13.088290">
 <ele>633.84</ele>
 <time>2011-10-22T11:29:45Z</time>
 </trkpt>
 <trkpt lat="47.995911" lon="13.088219">
 <ele>633.53</ele>
 <time>2011-10-22T11:29:49Z</time>
 </trkpt>
 <trkpt lat="47.995743" lon="13.088139">
 <ele>632.38</ele>
 <time>2011-10-22T11:29:53Z</time>
 </trkpt>
 <trkpt lat="47.995361" lon="13.087936">
 <ele>630.85</ele>
 <time>2011-10-22T11:30:01Z</time>
 </trkpt>
 <trkpt lat="47.994987" lon="13.087732">
 <ele>631.39</ele>
 <time>2011-10-22T11:30:09Z</time>
 </trkpt>
 <trkpt lat="47.994694" lon="13.087509">
 <ele>632.68</ele>
 <time>2011-10-22T11:30:17Z</time>
 </trkpt>
 <trkpt lat="47.994503" lon="13.087429">
 <ele>633.21</ele>
 <time>2011-10-22T11:30:23Z</time>
 </trkpt>
 <trkpt lat="47.994320" lon="13.087257">
 <ele>634.12</ele>
 <time>2011-10-22T11:30:29Z</time>
 </trkpt>
 <trkpt lat="47.994148" lon="13.087098">
 <ele>635.32</ele>
 <time>2011-10-22T11:30:34Z</time>
 </trkpt>
 <trkpt lat="47.993961" lon="13.086924">
 <ele>636.16</ele>
 <time>2011-10-22T11:30:40Z</time>
 </trkpt>
 <trkpt lat="47.993687" lon="13.086656">
 <ele>636.91</ele>
 <time>2011-10-22T11:30:48Z</time>
 </trkpt>
 <trkpt lat="47.993439" lon="13.086417">
 <ele>638.13</ele>
 <time>2011-10-22T11:30:56Z</time>
 </trkpt>
 <trkpt lat="47.993160" lon="13.086133">
 <ele>640.95</ele>
 <time>2011-10-22T11:31:06Z</time>
 </trkpt>
 <trkpt lat="47.992916" lon="13.085868">
 <ele>642.28</ele>
 <time>2011-10-22T11:31:15Z</time>
 </trkpt>
 <trkpt lat="47.992714" lon="13.085597">
 <ele>641.32</ele>
 <time>2011-10-22T11:31:21Z</time>
 </trkpt>
 <trkpt lat="47.992420" lon="13.085297">
 <ele>639.16</ele>
 <time>2011-10-22T11:31:27Z</time>
 </trkpt>
 <trkpt lat="47.992123" lon="13.085070">
 <ele>636.60</ele>
 <time>2011-10-22T11:31:32Z</time>
 </trkpt>
 <trkpt lat="47.991810" lon="13.085003">
 <ele>634.17</ele>
 <time>2011-10-22T11:31:37Z</time>
 </trkpt>
 <trkpt lat="47.991310" lon="13.085005">
 <ele>629.91</ele>
 <time>2011-10-22T11:31:44Z</time>
 </trkpt>
 <trkpt lat="47.990856" lon="13.084885">
 <ele>624.88</ele>
 <time>2011-10-22T11:31:50Z</time>
 </trkpt>
 <trkpt lat="47.990719" lon="13.084801">
 <ele>624.07</ele>
 <time>2011-10-22T11:31:52Z</time>
 </trkpt>
 <trkpt lat="47.990479" lon="13.084581">
 <ele>623.62</ele>
 <time>2011-10-22T11:31:56Z</time>
 </trkpt>
 <trkpt lat="47.990238" lon="13.084272">
 <ele>623.27</ele>
 <time>2011-10-22T11:32:01Z</time>
 </trkpt>
 <trkpt lat="47.990162" lon="13.084144">
 <ele>623.31</ele>
 <time>2011-10-22T11:32:03Z</time>
 </trkpt>
 <trkpt lat="47.990067" lon="13.083944">
 <ele>623.40</ele>
 <time>2011-10-22T11:32:06Z</time>
 </trkpt>
 <trkpt lat="47.989819" lon="13.083599">
 <ele>624.03</ele>
 <time>2011-10-22T11:32:12Z</time>
 </trkpt>
 <trkpt lat="47.989510" lon="13.083239">
 <ele>623.70</ele>
 <time>2011-10-22T11:32:19Z</time>
 </trkpt>
 <trkpt lat="47.989265" lon="13.083078">
 <ele>623.31</ele>
 <time>2011-10-22T11:32:24Z</time>
 </trkpt>
 <trkpt lat="47.989040" lon="13.082919">
 <ele>623.75</ele>
 <time>2011-10-22T11:32:29Z</time>
 </trkpt>
 <trkpt lat="47.988663" lon="13.082764">
 <ele>625.06</ele>
 <time>2011-10-22T11:32:37Z</time>
 </trkpt>
 <trkpt lat="47.988354" lon="13.082567">
 <ele>625.39</ele>
 <time>2011-10-22T11:32:44Z</time>
 </trkpt>
 <trkpt lat="47.988022" lon="13.082320">
 <ele>623.94</ele>
 <time>2011-10-22T11:32:51Z</time>
 </trkpt>
 <trkpt lat="47.987755" lon="13.082137">
 <ele>622.79</ele>
 <time>2011-10-22T11:32:55Z</time>
 </trkpt>
 <trkpt lat="47.987690" lon="13.082082">
 <ele>622.18</ele>
 <time>2011-10-22T11:32:56Z</time>
 </trkpt>
 <trkpt lat="47.987438" lon="13.081990">
 <ele>619.78</ele>
 <time>2011-10-22T11:33:00Z</time>
 </trkpt>
 <trkpt lat="47.987190" lon="13.081911">
 <ele>617.21</ele>
 <time>2011-10-22T11:33:04Z</time>
 </trkpt>
 <trkpt lat="47.987080" lon="13.081784">
 <ele>615.96</ele>
 <time>2011-10-22T11:33:06Z</time>
 </trkpt>
 <trkpt lat="47.986942" lon="13.081592">
 <ele>614.72</ele>
 <time>2011-10-22T11:33:09Z</time>
 </trkpt>
 <trkpt lat="47.986725" lon="13.081242">
 <ele>615.70</ele>
 <time>2011-10-22T11:33:15Z</time>
 </trkpt>
 <trkpt lat="47.986507" lon="13.080915">
 <ele>616.32</ele>
 <time>2011-10-22T11:33:21Z</time>
 </trkpt>
 <trkpt lat="47.986412" lon="13.080756">
 <ele>616.49</ele>
 <time>2011-10-22T11:33:24Z</time>
 </trkpt>
 <trkpt lat="47.986206" lon="13.080641">
 <ele>617.03</ele>
 <time>2011-10-22T11:33:29Z</time>
 </trkpt>
 <trkpt lat="47.985764" lon="13.080713">
 <ele>616.14</ele>
 <time>2011-10-22T11:33:37Z</time>
 </trkpt>
 <trkpt lat="47.985489" lon="13.080784">
 <ele>616.17</ele>
 <time>2011-10-22T11:33:43Z</time>
 </trkpt>
 <trkpt lat="47.985443" lon="13.080761">
 <ele>616.64</ele>
 <time>2011-10-22T11:33:47Z</time>
 </trkpt>
 <trkpt lat="47.985394" lon="13.080721">
 <ele>617.27</ele>
 <time>2011-10-22T11:33:51Z</time>
 </trkpt>
 <trkpt lat="47.985195" lon="13.080774">
 <ele>616.88</ele>
 <time>2011-10-22T11:33:57Z</time>
 </trkpt>
 <trkpt lat="47.984859" lon="13.080860">
 <ele>616.74</ele>
 <time>2011-10-22T11:34:05Z</time>
 </trkpt>
 <trkpt lat="47.984383" lon="13.081079">
 <ele>616.94</ele>
 <time>2011-10-22T11:34:16Z</time>
 </trkpt>
 <trkpt lat="47.983803" lon="13.081402">
 <ele>618.04</ele>
 <time>2011-10-22T11:34:30Z</time>
 </trkpt>
 <trkpt lat="47.983433" lon="13.081613">
 <ele>618.79</ele>
 <time>2011-10-22T11:34:39Z</time>
 </trkpt>
 <trkpt lat="47.983101" lon="13.081789">
 <ele>619.30</ele>
 <time>2011-10-22T11:34:48Z</time>
 </trkpt>
 <trkpt lat="47.983017" lon="13.081787">
 <ele>620.29</ele>
 <time>2011-10-22T11:34:54Z</time>
 </trkpt>
 <trkpt lat="47.982910" lon="13.081889">
 <ele>619.95</ele>
 <time>2011-10-22T11:34:59Z</time>
 </trkpt>
 <trkpt lat="47.982738" lon="13.082039">
 <ele>618.92</ele>
 <time>2011-10-22T11:35:05Z</time>
 </trkpt>
 <trkpt lat="47.982529" lon="13.082066">
 <ele>618.01</ele>
 <time>2011-10-22T11:35:10Z</time>
 </trkpt>
 <trkpt lat="47.982220" lon="13.082127">
 <ele>617.14</ele>
 <time>2011-10-22T11:35:16Z</time>
 </trkpt>
 <trkpt lat="47.981796" lon="13.082145">
 <ele>616.17</ele>
 <time>2011-10-22T11:35:23Z</time>
 </trkpt>
 <trkpt lat="47.981251" lon="13.082015">
 <ele>616.58</ele>
 <time>2011-10-22T11:35:32Z</time>
 </trkpt>
 <trkpt lat="47.980808" lon="13.081778">
 <ele>617.25</ele>
 <time>2011-10-22T11:35:40Z</time>
 </trkpt>
 <trkpt lat="47.980267" lon="13.081365">
 <ele>618.74</ele>
 <time>2011-10-22T11:35:51Z</time>
 </trkpt>
 <trkpt lat="47.979748" lon="13.080963">
 <ele>620.15</ele>
 <time>2011-10-22T11:36:02Z</time>
 </trkpt>
 <trkpt lat="47.979160" lon="13.080513">
 <ele>620.65</ele>
 <time>2011-10-22T11:36:14Z</time>
 </trkpt>
 <trkpt lat="47.978733" lon="13.080189">
 <ele>620.64</ele>
 <time>2011-10-22T11:36:22Z</time>
 </trkpt>
 <trkpt lat="47.978085" lon="13.079690">
 <ele>618.43</ele>
 <time>2011-10-22T11:36:33Z</time>
 </trkpt>
 <trkpt lat="47.977798" lon="13.079474">
 <ele>617.37</ele>
 <time>2011-10-22T11:36:38Z</time>
 </trkpt>
 <trkpt lat="47.977345" lon="13.079109">
 <ele>617.66</ele>
 <time>2011-10-22T11:36:46Z</time>
 </trkpt>
 <trkpt lat="47.976761" lon="13.078660">
 <ele>617.26</ele>
 <time>2011-10-22T11:36:56Z</time>
 </trkpt>
 <trkpt lat="47.976124" lon="13.078213">
 <ele>617.10</ele>
 <time>2011-10-22T11:37:07Z</time>
 </trkpt>
 <trkpt lat="47.975468" lon="13.077904">
 <ele>617.04</ele>
 <time>2011-10-22T11:37:18Z</time>
 </trkpt>
 <trkpt lat="47.974991" lon="13.077763">
 <ele>617.76</ele>
 <time>2011-10-22T11:37:26Z</time>
 </trkpt>
 <trkpt lat="47.974400" lon="13.077681">
 <ele>617.52</ele>
 <time>2011-10-22T11:37:36Z</time>
 </trkpt>
 <trkpt lat="47.973743" lon="13.077692">
 <ele>617.65</ele>
 <time>2011-10-22T11:37:47Z</time>
 </trkpt>
 <trkpt lat="47.973160" lon="13.077812">
 <ele>617.20</ele>
 <time>2011-10-22T11:37:57Z</time>
 </trkpt>
 <trkpt lat="47.972668" lon="13.077938">
 <ele>617.63</ele>
 <time>2011-10-22T11:38:06Z</time>
 </trkpt>
 <trkpt lat="47.972565" lon="13.077951">
 <ele>617.79</ele>
 <time>2011-10-22T11:38:08Z</time>
 </trkpt>
 <trkpt lat="47.972336" lon="13.077909">
 <ele>618.23</ele>
 <time>2011-10-22T11:38:14Z</time>
 </trkpt>
 <trkpt lat="47.972263" lon="13.077905">
 <ele>618.14</ele>
 <time>2011-10-22T11:38:16Z</time>
 </trkpt>
 <trkpt lat="47.972103" lon="13.077964">
 <ele>617.92</ele>
 <time>2011-10-22T11:38:20Z</time>
 </trkpt>
 <trkpt lat="47.971832" lon="13.078007">
 <ele>617.50</ele>
 <time>2011-10-22T11:38:27Z</time>
 </trkpt>
 <trkpt lat="47.971710" lon="13.078003">
 <ele>617.43</ele>
 <time>2011-10-22T11:38:30Z</time>
 </trkpt>
 <trkpt lat="47.971584" lon="13.078014">
 <ele>617.60</ele>
 <time>2011-10-22T11:38:33Z</time>
 </trkpt>
 <trkpt lat="47.971172" lon="13.078147">
 <ele>617.14</ele>
 <time>2011-10-22T11:38:42Z</time>
 </trkpt>
 <trkpt lat="47.971077" lon="13.078185">
 <ele>617.06</ele>
 <time>2011-10-22T11:38:44Z</time>
 </trkpt>
 <trkpt lat="47.970684" lon="13.078394">
 <ele>617.14</ele>
 <time>2011-10-22T11:38:53Z</time>
 </trkpt>
 <trkpt lat="47.970428" lon="13.078475">
 <ele>617.65</ele>
 <time>2011-10-22T11:38:59Z</time>
 </trkpt>
 <trkpt lat="47.970036" lon="13.078540">
 <ele>618.61</ele>
 <time>2011-10-22T11:39:08Z</time>
 </trkpt>
 <trkpt lat="47.969921" lon="13.078577">
 <ele>618.90</ele>
 <time>2011-10-22T11:39:11Z</time>
 </trkpt>
 <trkpt lat="47.969547" lon="13.078572">
 <ele>618.97</ele>
 <time>2011-10-22T11:39:19Z</time>
 </trkpt>
 <trkpt lat="47.969444" lon="13.078580">
 <ele>618.86</ele>
 <time>2011-10-22T11:39:21Z</time>
 </trkpt>
 <trkpt lat="47.969051" lon="13.078747">
 <ele>618.11</ele>
 <time>2011-10-22T11:39:28Z</time>
 </trkpt>
 <trkpt lat="47.968929" lon="13.078783">
 <ele>617.88</ele>
 <time>2011-10-22T11:39:30Z</time>
 </trkpt>
 <trkpt lat="47.968807" lon="13.078788">
 <ele>617.59</ele>
 <time>2011-10-22T11:39:32Z</time>
 </trkpt>
 <trkpt lat="47.968513" lon="13.078663">
 <ele>617.29</ele>
 <time>2011-10-22T11:39:37Z</time>
 </trkpt>
 <trkpt lat="47.968357" lon="13.078564">
 <ele>617.25</ele>
 <time>2011-10-22T11:39:40Z</time>
 </trkpt>
 <trkpt lat="47.968002" lon="13.078415">
 <ele>617.97</ele>
 <time>2011-10-22T11:39:47Z</time>
 </trkpt>
 <trkpt lat="47.967834" lon="13.078274">
 <ele>618.33</ele>
 <time>2011-10-22T11:39:51Z</time>
 </trkpt>
 <trkpt lat="47.967636" lon="13.077947">
 <ele>619.16</ele>
 <time>2011-10-22T11:39:59Z</time>
 </trkpt>
 <trkpt lat="47.967480" lon="13.077666">
 <ele>620.16</ele>
 <time>2011-10-22T11:40:06Z</time>
 </trkpt>
 <trkpt lat="47.967365" lon="13.077487">
 <ele>620.98</ele>
 <time>2011-10-22T11:40:11Z</time>
 </trkpt>
 <trkpt lat="47.967056" lon="13.077205">
 <ele>620.37</ele>
 <time>2011-10-22T11:40:18Z</time>
 </trkpt>
 <trkpt lat="47.966606" lon="13.076834">
 <ele>619.16</ele>
 <time>2011-10-22T11:40:26Z</time>
 </trkpt>
 <trkpt lat="47.966007" lon="13.076272">
 <ele>617.98</ele>
 <time>2011-10-22T11:40:37Z</time>
 </trkpt>
 <trkpt lat="47.965439" lon="13.075768">
 <ele>616.81</ele>
 <time>2011-10-22T11:40:47Z</time>
 </trkpt>
 <trkpt lat="47.964951" lon="13.075495">
 <ele>616.15</ele>
 <time>2011-10-22T11:40:55Z</time>
 </trkpt>
 <trkpt lat="47.964504" lon="13.075392">
 <ele>616.20</ele>
 <time>2011-10-22T11:41:02Z</time>
 </trkpt>
 <trkpt lat="47.963863" lon="13.075304">
 <ele>615.60</ele>
 <time>2011-10-22T11:41:12Z</time>
 </trkpt>
 <trkpt lat="47.963326" lon="13.075146">
 <ele>616.16</ele>
 <time>2011-10-22T11:41:21Z</time>
 </trkpt>
 <trkpt lat="47.962906" lon="13.074983">
 <ele>617.26</ele>
 <time>2011-10-22T11:41:29Z</time>
 </trkpt>
 <trkpt lat="47.962578" lon="13.074823">
 <ele>618.09</ele>
 <time>2011-10-22T11:41:36Z</time>
 </trkpt>
 <trkpt lat="47.962219" lon="13.074684">
 <ele>619.55</ele>
 <time>2011-10-22T11:41:44Z</time>
 </trkpt>
 <trkpt lat="47.961861" lon="13.074579">
 <ele>619.87</ele>
 <time>2011-10-22T11:41:52Z</time>
 </trkpt>
 <trkpt lat="47.961391" lon="13.074473">
 <ele>620.90</ele>
 <time>2011-10-22T11:42:02Z</time>
 </trkpt>
 <trkpt lat="47.961021" lon="13.074339">
 <ele>621.61</ele>
 <time>2011-10-22T11:42:10Z</time>
 </trkpt>
 <trkpt lat="47.960636" lon="13.074116">
 <ele>622.81</ele>
 <time>2011-10-22T11:42:19Z</time>
 </trkpt>
 <trkpt lat="47.960239" lon="13.073838">
 <ele>624.81</ele>
 <time>2011-10-22T11:42:29Z</time>
 </trkpt>
 <trkpt lat="47.959778" lon="13.073538">
 <ele>626.19</ele>
 <time>2011-10-22T11:42:40Z</time>
 </trkpt>
 <trkpt lat="47.959404" lon="13.073428">
 <ele>626.47</ele>
 <time>2011-10-22T11:42:48Z</time>
 </trkpt>
 <trkpt lat="47.959057" lon="13.073441">
 <ele>626.07</ele>
 <time>2011-10-22T11:42:55Z</time>
 </trkpt>
 <trkpt lat="47.958622" lon="13.073522">
 <ele>625.57</ele>
 <time>2011-10-22T11:43:03Z</time>
 </trkpt>
 <trkpt lat="47.958031" lon="13.073617">
 <ele>624.32</ele>
 <time>2011-10-22T11:43:13Z</time>
 </trkpt>
 <trkpt lat="47.957779" lon="13.073600">
 <ele>623.83</ele>
 <time>2011-10-22T11:43:17Z</time>
 </trkpt>
 <trkpt lat="47.957249" lon="13.073428">
 <ele>622.36</ele>
 <time>2011-10-22T11:43:25Z</time>
 </trkpt>
 <trkpt lat="47.956898" lon="13.073373">
 <ele>621.34</ele>
 <time>2011-10-22T11:43:30Z</time>
 </trkpt>
 <trkpt lat="47.956371" lon="13.073385">
 <ele>620.41</ele>
 <time>2011-10-22T11:43:37Z</time>
 </trkpt>
 <trkpt lat="47.955742" lon="13.073499">
 <ele>618.57</ele>
 <time>2011-10-22T11:43:45Z</time>
 </trkpt>
 <trkpt lat="47.955666" lon="13.073497">
 <ele>618.57</ele>
 <time>2011-10-22T11:43:46Z</time>
 </trkpt>
 <trkpt lat="47.955311" lon="13.073316">
 <ele>617.93</ele>
 <time>2011-10-22T11:43:51Z</time>
 </trkpt>
 <trkpt lat="47.954777" lon="13.072857">
 <ele>617.48</ele>
 <time>2011-10-22T11:43:59Z</time>
 </trkpt>
 <trkpt lat="47.954063" lon="13.072171">
 <ele>616.38</ele>
 <time>2011-10-22T11:44:10Z</time>
 </trkpt>
 <trkpt lat="47.953434" lon="13.071537">
 <ele>615.75</ele>
 <time>2011-10-22T11:44:20Z</time>
 </trkpt>
 <trkpt lat="47.952930" lon="13.071147">
 <ele>615.81</ele>
 <time>2011-10-22T11:44:28Z</time>
 </trkpt>
 <trkpt lat="47.952374" lon="13.070849">
 <ele>616.60</ele>
 <time>2011-10-22T11:44:37Z</time>
 </trkpt>
 <trkpt lat="47.951946" lon="13.070662">
 <ele>618.97</ele>
 <time>2011-10-22T11:44:45Z</time>
 </trkpt>
 <trkpt lat="47.951462" lon="13.070455">
 <ele>621.27</ele>
 <time>2011-10-22T11:44:55Z</time>
 </trkpt>
 <trkpt lat="47.950985" lon="13.070252">
 <ele>622.75</ele>
 <time>2011-10-22T11:45:06Z</time>
 </trkpt>
 <trkpt lat="47.950535" lon="13.070035">
 <ele>624.15</ele>
 <time>2011-10-22T11:45:17Z</time>
 </trkpt>
 <trkpt lat="47.950218" lon="13.069869">
 <ele>625.58</ele>
 <time>2011-10-22T11:45:25Z</time>
 </trkpt>
 <trkpt lat="47.949905" lon="13.069680">
 <ele>626.38</ele>
 <time>2011-10-22T11:45:33Z</time>
 </trkpt>
 <trkpt lat="47.949501" lon="13.069445">
 <ele>627.18</ele>
 <time>2011-10-22T11:45:43Z</time>
 </trkpt>
 <trkpt lat="47.949066" lon="13.069254">
 <ele>627.65</ele>
 <time>2011-10-22T11:45:53Z</time>
 </trkpt>
 <trkpt lat="47.948719" lon="13.069164">
 <ele>628.04</ele>
 <time>2011-10-22T11:46:01Z</time>
 </trkpt>
 <trkpt lat="47.948269" lon="13.069113">
 <ele>628.55</ele>
 <time>2011-10-22T11:46:11Z</time>
 </trkpt>
 <trkpt lat="47.947762" lon="13.069125">
 <ele>628.77</ele>
 <time>2011-10-22T11:46:22Z</time>
 </trkpt>
 <trkpt lat="47.947365" lon="13.069127">
 <ele>629.17</ele>
 <time>2011-10-22T11:46:30Z</time>
 </trkpt>
 <trkpt lat="47.946877" lon="13.069118">
 <ele>628.73</ele>
 <time>2011-10-22T11:46:39Z</time>
 </trkpt>
 <trkpt lat="47.946297" lon="13.069054">
 <ele>627.88</ele>
 <time>2011-10-22T11:46:49Z</time>
 </trkpt>
 <trkpt lat="47.945759" lon="13.068965">
 <ele>627.41</ele>
 <time>2011-10-22T11:46:58Z</time>
 </trkpt>
 <trkpt lat="47.945263" lon="13.068841">
 <ele>627.37</ele>
 <time>2011-10-22T11:47:06Z</time>
 </trkpt>
 <trkpt lat="47.944824" lon="13.068722">
 <ele>627.11</ele>
 <time>2011-10-22T11:47:13Z</time>
 </trkpt>
 <trkpt lat="47.944199" lon="13.068481">
 <ele>625.74</ele>
 <time>2011-10-22T11:47:23Z</time>
 </trkpt>
 <trkpt lat="47.943569" lon="13.068335">
 <ele>624.68</ele>
 <time>2011-10-22T11:47:33Z</time>
 </trkpt>
 <trkpt lat="47.943111" lon="13.068333">
 <ele>624.14</ele>
 <time>2011-10-22T11:47:40Z</time>
 </trkpt>
 <trkpt lat="47.942680" lon="13.068447">
 <ele>623.14</ele>
 <time>2011-10-22T11:47:46Z</time>
 </trkpt>
 <trkpt lat="47.942322" lon="13.068674">
 <ele>621.80</ele>
 <time>2011-10-22T11:47:51Z</time>
 </trkpt>
 <trkpt lat="47.941933" lon="13.069098">
 <ele>620.18</ele>
 <time>2011-10-22T11:47:57Z</time>
 </trkpt>
 <trkpt lat="47.941551" lon="13.069705">
 <ele>618.42</ele>
 <time>2011-10-22T11:48:04Z</time>
 </trkpt>
 <trkpt lat="47.941128" lon="13.070413">
 <ele>617.76</ele>
 <time>2011-10-22T11:48:13Z</time>
 </trkpt>
 <trkpt lat="47.940884" lon="13.070878">
 <ele>617.03</ele>
 <time>2011-10-22T11:48:19Z</time>
 </trkpt>
 <trkpt lat="47.940678" lon="13.071014">
 <ele>616.31</ele>
 <time>2011-10-22T11:48:23Z</time>
 </trkpt>
 <trkpt lat="47.940228" lon="13.071168">
 <ele>616.45</ele>
 <time>2011-10-22T11:48:31Z</time>
 </trkpt>
 <trkpt lat="47.939754" lon="13.071410">
 <ele>616.81</ele>
 <time>2011-10-22T11:48:40Z</time>
 </trkpt>
 <trkpt lat="47.939396" lon="13.071640">
 <ele>617.99</ele>
 <time>2011-10-22T11:48:48Z</time>
 </trkpt>
 <trkpt lat="47.939095" lon="13.071860">
 <ele>619.00</ele>
 <time>2011-10-22T11:48:55Z</time>
 </trkpt>
 <trkpt lat="47.938679" lon="13.072199">
 <ele>619.84</ele>
 <time>2011-10-22T11:49:05Z</time>
 </trkpt>
 <trkpt lat="47.938263" lon="13.072564">
 <ele>621.13</ele>
 <time>2011-10-22T11:49:15Z</time>
 </trkpt>
 <trkpt lat="47.937862" lon="13.072948">
 <ele>622.63</ele>
 <time>2011-10-22T11:49:25Z</time>
 </trkpt>
 <trkpt lat="47.937630" lon="13.073268">
 <ele>623.50</ele>
 <time>2011-10-22T11:49:32Z</time>
 </trkpt>
 <trkpt lat="47.937542" lon="13.073562">
 <ele>623.68</ele>
 <time>2011-10-22T11:49:37Z</time>
 </trkpt>
 <trkpt lat="47.937508" lon="13.073936">
 <ele>623.30</ele>
 <time>2011-10-22T11:49:42Z</time>
 </trkpt>
 <trkpt lat="47.937546" lon="13.074399">
 <ele>621.28</ele>
 <time>2011-10-22T11:49:47Z</time>
 </trkpt>
 <trkpt lat="47.937626" lon="13.075073">
 <ele>618.96</ele>
 <time>2011-10-22T11:49:54Z</time>
 </trkpt>
 <trkpt lat="47.937618" lon="13.075816">
 <ele>617.41</ele>
 <time>2011-10-22T11:50:02Z</time>
 </trkpt>
 <trkpt lat="47.937538" lon="13.076400">
 <ele>617.42</ele>
 <time>2011-10-22T11:50:09Z</time>
 </trkpt>
 <trkpt lat="47.937508" lon="13.076547">
 <ele>617.63</ele>
 <time>2011-10-22T11:50:11Z</time>
 </trkpt>
 <trkpt lat="47.937416" lon="13.076796">
 <ele>617.97</ele>
 <time>2011-10-22T11:50:15Z</time>
 </trkpt>
 <trkpt lat="47.937222" lon="13.077033">
 <ele>619.10</ele>
 <time>2011-10-22T11:50:21Z</time>
 </trkpt>
 <trkpt lat="47.937027" lon="13.077265">
 <ele>620.30</ele>
 <time>2011-10-22T11:50:28Z</time>
 </trkpt>
 <trkpt lat="47.936966" lon="13.077276">
 <ele>620.29</ele>
 <time>2011-10-22T11:50:30Z</time>
 </trkpt>
 <trkpt lat="47.936848" lon="13.077126">
 <ele>619.58</ele>
 <time>2011-10-22T11:50:34Z</time>
 </trkpt>
 <trkpt lat="47.936653" lon="13.076631">
 <ele>617.84</ele>
 <time>2011-10-22T11:50:42Z</time>
 </trkpt>
 <trkpt lat="47.936539" lon="13.076264">
 <ele>617.85</ele>
 <time>2011-10-22T11:50:48Z</time>
 </trkpt>
 <trkpt lat="47.936428" lon="13.075969">
 <ele>617.98</ele>
 <time>2011-10-22T11:50:54Z</time>
 </trkpt>
 <trkpt lat="47.936382" lon="13.075749">
 <ele>618.40</ele>
 <time>2011-10-22T11:50:59Z</time>
 </trkpt>
 <trkpt lat="47.936283" lon="13.075707">
 <ele>618.40</ele>
 <time>2011-10-22T11:51:03Z</time>
 </trkpt>
 <trkpt lat="47.935905" lon="13.075860">
 <ele>619.18</ele>
 <time>2011-10-22T11:51:12Z</time>
 </trkpt>
 <trkpt lat="47.935406" lon="13.076044">
 <ele>617.92</ele>
 <time>2011-10-22T11:51:22Z</time>
 </trkpt>
 <trkpt lat="47.934814" lon="13.076274">
 <ele>617.93</ele>
 <time>2011-10-22T11:51:34Z</time>
 </trkpt>
 <trkpt lat="47.934422" lon="13.076404">
 <ele>617.96</ele>
 <time>2011-10-22T11:51:42Z</time>
 </trkpt>
 <trkpt lat="47.934017" lon="13.076495">
 <ele>618.57</ele>
 <time>2011-10-22T11:51:51Z</time>
 </trkpt>
 <trkpt lat="47.933586" lon="13.076546">
 <ele>619.09</ele>
 <time>2011-10-22T11:52:00Z</time>
 </trkpt>
 <trkpt lat="47.933083" lon="13.076596">
 <ele>619.12</ele>
 <time>2011-10-22T11:52:10Z</time>
 </trkpt>
 <trkpt lat="47.932602" lon="13.076644">
 <ele>619.93</ele>
 <time>2011-10-22T11:52:20Z</time>
 </trkpt>
 <trkpt lat="47.932121" lon="13.076658">
 <ele>620.50</ele>
 <time>2011-10-22T11:52:30Z</time>
 </trkpt>
 <trkpt lat="47.931744" lon="13.076528">
 <ele>620.67</ele>
 <time>2011-10-22T11:52:38Z</time>
 </trkpt>
 <trkpt lat="47.931335" lon="13.076281">
 <ele>620.58</ele>
 <time>2011-10-22T11:52:47Z</time>
 </trkpt>
 <trkpt lat="47.930920" lon="13.076017">
 <ele>620.92</ele>
 <time>2011-10-22T11:52:56Z</time>
 </trkpt>
 <trkpt lat="47.930450" lon="13.075729">
 <ele>621.14</ele>
 <time>2011-10-22T11:53:06Z</time>
 </trkpt>
 <trkpt lat="47.929886" lon="13.075387">
 <ele>621.76</ele>
 <time>2011-10-22T11:53:18Z</time>
 </trkpt>
 <trkpt lat="47.929344" lon="13.075046">
 <ele>622.88</ele>
 <time>2011-10-22T11:53:30Z</time>
 </trkpt>
 <trkpt lat="47.928764" lon="13.074687">
 <ele>623.40</ele>
 <time>2011-10-22T11:53:43Z</time>
 </trkpt>
 <trkpt lat="47.928341" lon="13.074423">
 <ele>624.82</ele>
 <time>2011-10-22T11:53:53Z</time>
 </trkpt>
 <trkpt lat="47.927731" lon="13.074076">
 <ele>625.87</ele>
 <time>2011-10-22T11:54:07Z</time>
 </trkpt>
 <trkpt lat="47.927368" lon="13.073968">
 <ele>626.60</ele>
 <time>2011-10-22T11:54:15Z</time>
 </trkpt>
 <trkpt lat="47.926956" lon="13.073981">
 <ele>627.20</ele>
 <time>2011-10-22T11:54:24Z</time>
 </trkpt>
 <trkpt lat="47.926525" lon="13.074036">
 <ele>628.54</ele>
 <time>2011-10-22T11:54:34Z</time>
 </trkpt>
 <trkpt lat="47.926155" lon="13.074074">
 <ele>629.71</ele>
 <time>2011-10-22T11:54:43Z</time>
 </trkpt>
 <trkpt lat="47.925751" lon="13.074120">
 <ele>630.32</ele>
 <time>2011-10-22T11:54:53Z</time>
 </trkpt>
 <trkpt lat="47.925339" lon="13.074161">
 <ele>631.45</ele>
 <time>2011-10-22T11:55:03Z</time>
 </trkpt>
 <trkpt lat="47.925014" lon="13.074155">
 <ele>631.99</ele>
 <time>2011-10-22T11:55:11Z</time>
 </trkpt>
 <trkpt lat="47.924686" lon="13.074067">
 <ele>633.29</ele>
 <time>2011-10-22T11:55:20Z</time>
 </trkpt>
 <trkpt lat="47.924435" lon="13.073958">
 <ele>634.56</ele>
 <time>2011-10-22T11:55:28Z</time>
 </trkpt>
 <trkpt lat="47.924110" lon="13.073794">
 <ele>635.67</ele>
 <time>2011-10-22T11:55:39Z</time>
 </trkpt>
 <trkpt lat="47.923786" lon="13.073625">
 <ele>637.50</ele>
 <time>2011-10-22T11:55:50Z</time>
 </trkpt>
 <trkpt lat="47.923550" lon="13.073486">
 <ele>639.47</ele>
 <time>2011-10-22T11:55:59Z</time>
 </trkpt>
 <trkpt lat="47.923508" lon="13.073449">
 <ele>639.91</ele>
 <time>2011-10-22T11:56:03Z</time>
 </trkpt>
 <trkpt lat="47.923508" lon="13.073478">
 <ele>640.73</ele>
 <time>2011-10-22T11:56:14Z</time>
 </trkpt>
 <trkpt lat="47.923603" lon="13.073544">
 <ele>640.50</ele>
 <time>2011-10-22T11:56:19Z</time>
 </trkpt>
 <trkpt lat="47.923756" lon="13.073639">
 <ele>639.65</ele>
 <time>2011-10-22T11:56:23Z</time>
 </trkpt>
 <trkpt lat="47.923874" lon="13.073846">
 <ele>638.11</ele>
 <time>2011-10-22T11:56:27Z</time>
 </trkpt>
 <trkpt lat="47.923862" lon="13.074085">
 <ele>637.39</ele>
 <time>2011-10-22T11:56:32Z</time>
 </trkpt>
 <trkpt lat="47.923832" lon="13.074379">
 <ele>637.55</ele>
 <time>2011-10-22T11:56:38Z</time>
 </trkpt>
 <trkpt lat="47.923756" lon="13.074677">
 <ele>637.63</ele>
 <time>2011-10-22T11:56:44Z</time>
 </trkpt>
 <trkpt lat="47.923737" lon="13.074726">
 <ele>637.62</ele>
 <time>2011-10-22T11:56:45Z</time>
 </trkpt>
 <trkpt lat="47.923546" lon="13.075028">
 <ele>637.49</ele>
 <time>2011-10-22T11:56:52Z</time>
 </trkpt>
 <trkpt lat="47.923317" lon="13.075317">
 <ele>636.47</ele>
 <time>2011-10-22T11:56:58Z</time>
 </trkpt>
 <trkpt lat="47.923000" lon="13.075700">
 <ele>634.85</ele>
 <time>2011-10-22T11:57:06Z</time>
 </trkpt>
 <trkpt lat="47.922783" lon="13.075916">
 <ele>635.92</ele>
 <time>2011-10-22T11:57:13Z</time>
 </trkpt>
 <trkpt lat="47.922539" lon="13.076133">
 <ele>639.67</ele>
 <time>2011-10-22T11:57:22Z</time>
 </trkpt>
 <trkpt lat="47.922398" lon="13.076326">
 <ele>641.04</ele>
 <time>2011-10-22T11:57:29Z</time>
 </trkpt>
 <trkpt lat="47.922279" lon="13.076611">
 <ele>642.10</ele>
 <time>2011-10-22T11:57:37Z</time>
 </trkpt>
 <trkpt lat="47.922180" lon="13.076927">
 <ele>642.76</ele>
 <time>2011-10-22T11:57:45Z</time>
 </trkpt>
 <trkpt lat="47.922077" lon="13.077178">
 <ele>643.30</ele>
 <time>2011-10-22T11:57:52Z</time>
 </trkpt>
 <trkpt lat="47.921917" lon="13.077470">
 <ele>644.38</ele>
 <time>2011-10-22T11:58:01Z</time>
 </trkpt>
 <trkpt lat="47.921768" lon="13.077748">
 <ele>646.87</ele>
 <time>2011-10-22T11:58:11Z</time>
 </trkpt>
 <trkpt lat="47.921635" lon="13.077983">
 <ele>649.46</ele>
 <time>2011-10-22T11:58:21Z</time>
 </trkpt>
 <trkpt lat="47.921539" lon="13.078158">
 <ele>650.94</ele>
 <time>2011-10-22T11:58:29Z</time>
 </trkpt>
 <trkpt lat="47.921440" lon="13.078343">
 <ele>652.95</ele>
 <time>2011-10-22T11:58:38Z</time>
 </trkpt>
 <trkpt lat="47.921314" lon="13.078565">
 <ele>655.45</ele>
 <time>2011-10-22T11:58:49Z</time>
 </trkpt>
 <trkpt lat="47.921200" lon="13.078722">
 <ele>657.15</ele>
 <time>2011-10-22T11:58:58Z</time>
 </trkpt>
 <trkpt lat="47.921051" lon="13.078858">
 <ele>659.50</ele>
 <time>2011-10-22T11:59:08Z</time>
 </trkpt>
 <trkpt lat="47.920898" lon="13.078948">
 <ele>661.04</ele>
 <time>2011-10-22T11:59:17Z</time>
 </trkpt>
 <trkpt lat="47.920753" lon="13.079010">
 <ele>661.57</ele>
 <time>2011-10-22T11:59:25Z</time>
 </trkpt>
 <trkpt lat="47.920589" lon="13.079056">
 <ele>663.17</ele>
 <time>2011-10-22T11:59:34Z</time>
 </trkpt>
 <trkpt lat="47.920437" lon="13.079092">
 <ele>664.38</ele>
 <time>2011-10-22T11:59:42Z</time>
 </trkpt>
 <trkpt lat="47.920277" lon="13.079117">
 <ele>664.98</ele>
 <time>2011-10-22T11:59:50Z</time>
 </trkpt>
 <trkpt lat="47.920086" lon="13.079098">
 <ele>666.64</ele>
 <time>2011-10-22T12:00:00Z</time>
 </trkpt>
 <trkpt lat="47.919861" lon="13.079050">
 <ele>668.40</ele>
 <time>2011-10-22T12:00:11Z</time>
 </trkpt>
 <trkpt lat="47.919662" lon="13.079013">
 <ele>669.12</ele>
 <time>2011-10-22T12:00:20Z</time>
 </trkpt>
 <trkpt lat="47.919453" lon="13.078965">
 <ele>670.16</ele>
 <time>2011-10-22T12:00:29Z</time>
 </trkpt>
 <trkpt lat="47.919212" lon="13.078903">
 <ele>671.01</ele>
 <time>2011-10-22T12:00:39Z</time>
 </trkpt>
 <trkpt lat="47.918983" lon="13.078853">
 <ele>672.09</ele>
 <time>2011-10-22T12:00:48Z</time>
 </trkpt>
 <trkpt lat="47.918766" lon="13.078793">
 <ele>673.07</ele>
 <time>2011-10-22T12:00:57Z</time>
 </trkpt>
 <trkpt lat="47.918549" lon="13.078745">
 <ele>674.60</ele>
 <time>2011-10-22T12:01:06Z</time>
 </trkpt>
 <trkpt lat="47.918259" lon="13.078684">
 <ele>676.22</ele>
 <time>2011-10-22T12:01:18Z</time>
 </trkpt>
 <trkpt lat="47.917961" lon="13.078641">
 <ele>677.53</ele>
 <time>2011-10-22T12:01:29Z</time>
 </trkpt>
 <trkpt lat="47.917671" lon="13.078609">
 <ele>678.23</ele>
 <time>2011-10-22T12:01:39Z</time>
 </trkpt>
 <trkpt lat="47.917439" lon="13.078591">
 <ele>679.17</ele>
 <time>2011-10-22T12:01:47Z</time>
 </trkpt>
 <trkpt lat="47.917187" lon="13.078569">
 <ele>679.54</ele>
 <time>2011-10-22T12:01:56Z</time>
 </trkpt>
 <trkpt lat="47.916962" lon="13.078549">
 <ele>680.89</ele>
 <time>2011-10-22T12:02:04Z</time>
 </trkpt>
 <trkpt lat="47.916683" lon="13.078569">
 <ele>682.21</ele>
 <time>2011-10-22T12:02:14Z</time>
 </trkpt>
 <trkpt lat="47.916382" lon="13.078628">
 <ele>683.65</ele>
 <time>2011-10-22T12:02:25Z</time>
 </trkpt>
 <trkpt lat="47.916092" lon="13.078700">
 <ele>684.28</ele>
 <time>2011-10-22T12:02:35Z</time>
 </trkpt>
 <trkpt lat="47.915699" lon="13.078785">
 <ele>684.98</ele>
 <time>2011-10-22T12:02:47Z</time>
 </trkpt>
 <trkpt lat="47.915375" lon="13.078837">
 <ele>684.65</ele>
 <time>2011-10-22T12:02:55Z</time>
 </trkpt>
 <trkpt lat="47.914921" lon="13.078868">
 <ele>683.86</ele>
 <time>2011-10-22T12:03:04Z</time>
 </trkpt>
 <trkpt lat="47.914509" lon="13.078864">
 <ele>682.46</ele>
 <time>2011-10-22T12:03:11Z</time>
 </trkpt>
 <trkpt lat="47.913990" lon="13.078863">
 <ele>681.16</ele>
 <time>2011-10-22T12:03:20Z</time>
 </trkpt>
 <trkpt lat="47.913582" lon="13.078861">
 <ele>681.48</ele>
 <time>2011-10-22T12:03:28Z</time>
 </trkpt>
 <trkpt lat="47.913204" lon="13.078898">
 <ele>682.25</ele>
 <time>2011-10-22T12:03:36Z</time>
 </trkpt>
 <trkpt lat="47.912872" lon="13.078971">
 <ele>683.47</ele>
 <time>2011-10-22T12:03:44Z</time>
 </trkpt>
 <trkpt lat="47.912468" lon="13.079136">
 <ele>684.40</ele>
 <time>2011-10-22T12:03:54Z</time>
 </trkpt>
 <trkpt lat="47.912136" lon="13.079356">
 <ele>684.42</ele>
 <time>2011-10-22T12:04:02Z</time>
 </trkpt>
 <trkpt lat="47.911812" lon="13.079600">
 <ele>683.21</ele>
 <time>2011-10-22T12:04:10Z</time>
 </trkpt>
 <trkpt lat="47.911465" lon="13.079812">
 <ele>682.62</ele>
 <time>2011-10-22T12:04:18Z</time>
 </trkpt>
 <trkpt lat="47.911213" lon="13.079892">
 <ele>683.46</ele>
 <time>2011-10-22T12:04:25Z</time>
 </trkpt>
 <trkpt lat="47.910896" lon="13.080026">
 <ele>683.74</ele>
 <time>2011-10-22T12:04:33Z</time>
 </trkpt>
 <trkpt lat="47.910854" lon="13.080051">
 <ele>683.80</ele>
 <time>2011-10-22T12:04:34Z</time>
 </trkpt>
 <trkpt lat="47.910709" lon="13.080292">
 <ele>683.69</ele>
 <time>2011-10-22T12:04:39Z</time>
 </trkpt>
 <trkpt lat="47.910648" lon="13.080476">
 <ele>683.54</ele>
 <time>2011-10-22T12:04:42Z</time>
 </trkpt>
 <trkpt lat="47.910507" lon="13.080639">
 <ele>683.17</ele>
 <time>2011-10-22T12:04:46Z</time>
 </trkpt>
 <trkpt lat="47.910461" lon="13.080647">
 <ele>683.11</ele>
 <time>2011-10-22T12:04:47Z</time>
 </trkpt>
 <trkpt lat="47.910244" lon="13.080646">
 <ele>684.23</ele>
 <time>2011-10-22T12:04:53Z</time>
 </trkpt>
 <trkpt lat="47.910069" lon="13.080644">
 <ele>686.18</ele>
 <time>2011-10-22T12:05:01Z</time>
 </trkpt>
 <trkpt lat="47.909924" lon="13.080662">
 <ele>687.46</ele>
 <time>2011-10-22T12:05:08Z</time>
 </trkpt>
 <trkpt lat="47.909775" lon="13.080671">
 <ele>689.68</ele>
 <time>2011-10-22T12:05:16Z</time>
 </trkpt>
 <trkpt lat="47.909626" lon="13.080705">
 <ele>691.95</ele>
 <time>2011-10-22T12:05:24Z</time>
 </trkpt>
 <trkpt lat="47.909523" lon="13.080752">
 <ele>693.10</ele>
 <time>2011-10-22T12:05:30Z</time>
 </trkpt>
 <trkpt lat="47.909382" lon="13.080856">
 <ele>694.74</ele>
 <time>2011-10-22T12:05:38Z</time>
 </trkpt>
 <trkpt lat="47.909286" lon="13.080936">
 <ele>695.98</ele>
 <time>2011-10-22T12:05:44Z</time>
 </trkpt>
 <trkpt lat="47.909164" lon="13.081025">
 <ele>697.26</ele>
 <time>2011-10-22T12:05:51Z</time>
 </trkpt>
 <trkpt lat="47.909058" lon="13.081107">
 <ele>698.12</ele>
 <time>2011-10-22T12:05:57Z</time>
 </trkpt>
 <trkpt lat="47.908897" lon="13.081177">
 <ele>699.16</ele>
 <time>2011-10-22T12:06:05Z</time>
 </trkpt>
 <trkpt lat="47.908684" lon="13.081183">
 <ele>700.03</ele>
 <time>2011-10-22T12:06:14Z</time>
 </trkpt>
 <trkpt lat="47.908424" lon="13.081168">
 <ele>700.62</ele>
 <time>2011-10-22T12:06:23Z</time>
 </trkpt>
 <trkpt lat="47.908119" lon="13.081124">
 <ele>700.78</ele>
 <time>2011-10-22T12:06:32Z</time>
 </trkpt>
 <trkpt lat="47.907715" lon="13.081027">
 <ele>700.93</ele>
 <time>2011-10-22T12:06:43Z</time>
 </trkpt>
 <trkpt lat="47.907333" lon="13.080847">
 <ele>701.96</ele>
 <time>2011-10-22T12:06:54Z</time>
 </trkpt>
 <trkpt lat="47.907074" lon="13.080720">
 <ele>702.97</ele>
 <time>2011-10-22T12:07:02Z</time>
 </trkpt>
 <trkpt lat="47.906750" lon="13.080550">
 <ele>704.21</ele>
 <time>2011-10-22T12:07:12Z</time>
 </trkpt>
 <trkpt lat="47.906361" lon="13.080354">
 <ele>705.76</ele>
 <time>2011-10-22T12:07:24Z</time>
 </trkpt>
 <trkpt lat="47.906029" lon="13.080213">
 <ele>706.83</ele>
 <time>2011-10-22T12:07:34Z</time>
 </trkpt>
 <trkpt lat="47.905674" lon="13.080065">
 <ele>707.44</ele>
 <time>2011-10-22T12:07:45Z</time>
 </trkpt>
 <trkpt lat="47.905640" lon="13.079920">
 <ele>707.86</ele>
 <time>2011-10-22T12:07:49Z</time>
 </trkpt>
 <trkpt lat="47.905682" lon="13.079575">
 <ele>708.31</ele>
 <time>2011-10-22T12:07:56Z</time>
 </trkpt>
 <trkpt lat="47.905701" lon="13.079232">
 <ele>708.22</ele>
 <time>2011-10-22T12:08:02Z</time>
 </trkpt>
 <trkpt lat="47.905712" lon="13.078912">
 <ele>707.26</ele>
 <time>2011-10-22T12:08:07Z</time>
 </trkpt>
 <trkpt lat="47.905712" lon="13.078855">
 <ele>706.07</ele>
 <time>2011-10-22T12:08:11Z</time>
 </trkpt>
 <trkpt lat="47.905720" lon="13.078942">
 <ele>705.45</ele>
 <time>2011-10-22T12:08:35Z</time>
 </trkpt>
 <trkpt lat="47.905701" lon="13.079134">
 <ele>705.70</ele>
 <time>2011-10-22T12:08:41Z</time>
 </trkpt>
 <trkpt lat="47.905678" lon="13.079438">
 <ele>706.54</ele>
 <time>2011-10-22T12:08:49Z</time>
 </trkpt>
 <trkpt lat="47.905640" lon="13.079814">
 <ele>707.24</ele>
 <time>2011-10-22T12:08:58Z</time>
 </trkpt>
 <trkpt lat="47.905598" lon="13.080036">
 <ele>707.64</ele>
 <time>2011-10-22T12:09:05Z</time>
 </trkpt>
 <trkpt lat="47.905594" lon="13.080041">
 <ele>707.88</ele>
 <time>2011-10-22T12:09:07Z</time>
 </trkpt>
 <trkpt lat="47.905460" lon="13.080048">
 <ele>708.18</ele>
 <time>2011-10-22T12:09:20Z</time>
 </trkpt>
 <trkpt lat="47.905205" lon="13.079974">
 <ele>707.98</ele>
 <time>2011-10-22T12:09:27Z</time>
 </trkpt>
 <trkpt lat="47.904900" lon="13.079881">
 <ele>708.05</ele>
 <time>2011-10-22T12:09:35Z</time>
 </trkpt>
 <trkpt lat="47.904892" lon="13.079876">
 <ele>708.17</ele>
 <time>2011-10-22T12:09:37Z</time>
 </trkpt>
 <trkpt lat="47.904915" lon="13.079964">
 <ele>707.90</ele>
 <time>2011-10-22T12:10:23Z</time>
 </trkpt>
 <trkpt lat="47.904961" lon="13.079989">
 <ele>707.90</ele>
 <time>2011-10-22T12:10:25Z</time>
 </trkpt>
 <trkpt lat="47.905205" lon="13.080029">
 <ele>707.70</ele>
 <time>2011-10-22T12:10:31Z</time>
 </trkpt>
 <trkpt lat="47.905521" lon="13.080119">
 <ele>707.48</ele>
 <time>2011-10-22T12:10:38Z</time>
 </trkpt>
 <trkpt lat="47.905655" lon="13.080030">
 <ele>707.92</ele>
 <time>2011-10-22T12:10:42Z</time>
 </trkpt>
 <trkpt lat="47.905670" lon="13.079929">
 <ele>708.39</ele>
 <time>2011-10-22T12:10:44Z</time>
 </trkpt>
 <trkpt lat="47.905720" lon="13.079562">
 <ele>709.27</ele>
 <time>2011-10-22T12:10:51Z</time>
 </trkpt>
 <trkpt lat="47.905739" lon="13.079099">
 <ele>709.27</ele>
 <time>2011-10-22T12:10:58Z</time>
 </trkpt>
 <trkpt lat="47.905743" lon="13.078612">
 <ele>708.06</ele>
 <time>2011-10-22T12:11:03Z</time>
 </trkpt>
 <trkpt lat="47.905777" lon="13.077950">
 <ele>701.33</ele>
 <time>2011-10-22T12:11:10Z</time>
 </trkpt>
 <trkpt lat="47.905865" lon="13.077457">
 <ele>696.76</ele>
 <time>2011-10-22T12:11:15Z</time>
 </trkpt>
 <trkpt lat="47.906033" lon="13.076920">
 <ele>692.29</ele>
 <time>2011-10-22T12:11:20Z</time>
 </trkpt>
 <trkpt lat="47.906147" lon="13.076380">
 <ele>692.29</ele>
 <time>2011-10-22T12:11:25Z</time>
 </trkpt>
 <trkpt lat="47.906242" lon="13.075741">
 <ele>690.16</ele>
 <time>2011-10-22T12:11:30Z</time>
 </trkpt>
 <trkpt lat="47.906284" lon="13.075485">
 <ele>687.46</ele>
 <time>2011-10-22T12:11:32Z</time>
 </trkpt>
 <trkpt lat="47.906376" lon="13.075067">
 <ele>676.55</ele>
 <time>2011-10-22T12:11:36Z</time>
 </trkpt>
 <trkpt lat="47.906567" lon="13.074519">
 <ele>665.87</ele>
 <time>2011-10-22T12:11:41Z</time>
 </trkpt>
 <trkpt lat="47.906773" lon="13.074000">
 <ele>659.05</ele>
 <time>2011-10-22T12:11:45Z</time>
 </trkpt>
 <trkpt lat="47.906837" lon="13.073877">
 <ele>659.04</ele>
 <time>2011-10-22T12:11:46Z</time>
 </trkpt>
 <trkpt lat="47.907093" lon="13.073486">
 <ele>655.06</ele>
 <time>2011-10-22T12:11:50Z</time>
 </trkpt>
 <trkpt lat="47.907150" lon="13.073404">
 <ele>654.93</ele>
 <time>2011-10-22T12:11:51Z</time>
 </trkpt>
 <trkpt lat="47.907299" lon="13.073076">
 <ele>656.23</ele>
 <time>2011-10-22T12:11:55Z</time>
 </trkpt>
 <trkpt lat="47.907368" lon="13.072681">
 <ele>658.61</ele>
 <time>2011-10-22T12:12:01Z</time>
 </trkpt>
 <trkpt lat="47.907387" lon="13.072419">
 <ele>659.97</ele>
 <time>2011-10-22T12:12:07Z</time>
 </trkpt>
 <trkpt lat="47.907417" lon="13.072121">
 <ele>661.10</ele>
 <time>2011-10-22T12:12:15Z</time>
 </trkpt>
 <trkpt lat="47.907440" lon="13.071946">
 <ele>661.90</ele>
 <time>2011-10-22T12:12:21Z</time>
 </trkpt>
 <trkpt lat="47.907475" lon="13.071646">
 <ele>662.71</ele>
 <time>2011-10-22T12:12:29Z</time>
 </trkpt>
 <trkpt lat="47.907486" lon="13.071487">
 <ele>663.80</ele>
 <time>2011-10-22T12:12:34Z</time>
 </trkpt>
 <trkpt lat="47.907505" lon="13.071335">
 <ele>664.89</ele>
 <time>2011-10-22T12:12:39Z</time>
 </trkpt>
 <trkpt lat="47.907528" lon="13.071203">
 <ele>666.23</ele>
 <time>2011-10-22T12:12:44Z</time>
 </trkpt>
 <trkpt lat="47.907547" lon="13.071090">
 <ele>667.61</ele>
 <time>2011-10-22T12:12:48Z</time>
 </trkpt>
 <trkpt lat="47.907616" lon="13.070916">
 <ele>669.89</ele>
 <time>2011-10-22T12:12:55Z</time>
 </trkpt>
 <trkpt lat="47.907719" lon="13.070839">
 <ele>671.34</ele>
 <time>2011-10-22T12:13:01Z</time>
 </trkpt>
 <trkpt lat="47.907829" lon="13.070842">
 <ele>672.62</ele>
 <time>2011-10-22T12:13:07Z</time>
 </trkpt>
 <trkpt lat="47.908001" lon="13.070854">
 <ele>673.58</ele>
 <time>2011-10-22T12:13:16Z</time>
 </trkpt>
 <trkpt lat="47.908157" lon="13.070772">
 <ele>675.10</ele>
 <time>2011-10-22T12:13:25Z</time>
 </trkpt>
 <trkpt lat="47.908237" lon="13.070596">
 <ele>676.28</ele>
 <time>2011-10-22T12:13:33Z</time>
 </trkpt>
 <trkpt lat="47.908245" lon="13.070429">
 <ele>677.62</ele>
 <time>2011-10-22T12:13:40Z</time>
 </trkpt>
 <trkpt lat="47.908230" lon="13.070239">
 <ele>679.24</ele>
 <time>2011-10-22T12:13:49Z</time>
 </trkpt>
 <trkpt lat="47.908226" lon="13.070093">
 <ele>680.39</ele>
 <time>2011-10-22T12:13:56Z</time>
 </trkpt>
 <trkpt lat="47.908279" lon="13.070018">
 <ele>681.55</ele>
 <time>2011-10-22T12:14:02Z</time>
 </trkpt>
 <trkpt lat="47.908352" lon="13.070031">
 <ele>682.78</ele>
 <time>2011-10-22T12:14:08Z</time>
 </trkpt>
 <trkpt lat="47.908478" lon="13.070042">
 <ele>684.59</ele>
 <time>2011-10-22T12:14:18Z</time>
 </trkpt>
 <trkpt lat="47.908604" lon="13.070013">
 <ele>686.47</ele>
 <time>2011-10-22T12:14:27Z</time>
 </trkpt>
 <trkpt lat="47.908707" lon="13.069912">
 <ele>688.32</ele>
 <time>2011-10-22T12:14:36Z</time>
 </trkpt>
 <trkpt lat="47.908802" lon="13.069783">
 <ele>690.55</ele>
 <time>2011-10-22T12:14:46Z</time>
 </trkpt>
 <trkpt lat="47.908882" lon="13.069690">
 <ele>692.09</ele>
 <time>2011-10-22T12:14:54Z</time>
 </trkpt>
 <trkpt lat="47.908951" lon="13.069601">
 <ele>693.64</ele>
 <time>2011-10-22T12:15:01Z</time>
 </trkpt>
 <trkpt lat="47.909050" lon="13.069452">
 <ele>695.73</ele>
 <time>2011-10-22T12:15:12Z</time>
 </trkpt>
 <trkpt lat="47.909149" lon="13.069304">
 <ele>697.59</ele>
 <time>2011-10-22T12:15:23Z</time>
 </trkpt>
 <trkpt lat="47.909237" lon="13.069149">
 <ele>699.53</ele>
 <time>2011-10-22T12:15:34Z</time>
 </trkpt>
 <trkpt lat="47.909302" lon="13.069007">
 <ele>701.36</ele>
 <time>2011-10-22T12:15:43Z</time>
 </trkpt>
 <trkpt lat="47.909367" lon="13.068885">
 <ele>702.60</ele>
 <time>2011-10-22T12:15:51Z</time>
 </trkpt>
 <trkpt lat="47.909451" lon="13.068718">
 <ele>703.22</ele>
 <time>2011-10-22T12:16:01Z</time>
 </trkpt>
 <trkpt lat="47.909485" lon="13.068610">
 <ele>704.71</ele>
 <time>2011-10-22T12:16:07Z</time>
 </trkpt>
 <trkpt lat="47.909561" lon="13.068445">
 <ele>707.01</ele>
 <time>2011-10-22T12:16:17Z</time>
 </trkpt>
 <trkpt lat="47.909626" lon="13.068282">
 <ele>708.85</ele>
 <time>2011-10-22T12:16:26Z</time>
 </trkpt>
 <trkpt lat="47.909695" lon="13.068124">
 <ele>710.23</ele>
 <time>2011-10-22T12:16:35Z</time>
 </trkpt>
 <trkpt lat="47.909725" lon="13.067966">
 <ele>710.66</ele>
 <time>2011-10-22T12:16:42Z</time>
 </trkpt>
 <trkpt lat="47.909687" lon="13.067896">
 <ele>710.77</ele>
 <time>2011-10-22T12:16:45Z</time>
 </trkpt>
 <trkpt lat="47.909508" lon="13.067705">
 <ele>711.40</ele>
 <time>2011-10-22T12:16:56Z</time>
 </trkpt>
 <trkpt lat="47.909378" lon="13.067569">
 <ele>712.01</ele>
 <time>2011-10-22T12:17:04Z</time>
 </trkpt>
 <trkpt lat="47.909252" lon="13.067436">
 <ele>712.88</ele>
 <time>2011-10-22T12:17:11Z</time>
 </trkpt>
 <trkpt lat="47.909103" lon="13.067301">
 <ele>714.14</ele>
 <time>2011-10-22T12:17:18Z</time>
 </trkpt>
 <trkpt lat="47.908859" lon="13.067063">
 <ele>714.78</ele>
 <time>2011-10-22T12:17:28Z</time>
 </trkpt>
 <trkpt lat="47.908669" lon="13.066875">
 <ele>714.96</ele>
 <time>2011-10-22T12:17:35Z</time>
 </trkpt>
 <trkpt lat="47.908440" lon="13.066643">
 <ele>715.33</ele>
 <time>2011-10-22T12:17:43Z</time>
 </trkpt>
 <trkpt lat="47.908340" lon="13.066558">
 <ele>715.40</ele>
 <time>2011-10-22T12:17:46Z</time>
 </trkpt>
 <trkpt lat="47.908035" lon="13.066246">
 <ele>714.89</ele>
 <time>2011-10-22T12:17:54Z</time>
 </trkpt>
 <trkpt lat="47.907841" lon="13.066072">
 <ele>713.95</ele>
 <time>2011-10-22T12:17:58Z</time>
 </trkpt>
 <trkpt lat="47.907520" lon="13.065751">
 <ele>712.71</ele>
 <time>2011-10-22T12:18:04Z</time>
 </trkpt>
 <trkpt lat="47.907078" lon="13.065361">
 <ele>709.97</ele>
 <time>2011-10-22T12:18:11Z</time>
 </trkpt>
 <trkpt lat="47.906651" lon="13.065022">
 <ele>709.26</ele>
 <time>2011-10-22T12:18:18Z</time>
 </trkpt>
 <trkpt lat="47.906288" lon="13.064646">
 <ele>709.57</ele>
 <time>2011-10-22T12:18:25Z</time>
 </trkpt>
 <trkpt lat="47.906029" lon="13.064242">
 <ele>709.40</ele>
 <time>2011-10-22T12:18:31Z</time>
 </trkpt>
 <trkpt lat="47.905689" lon="13.063585">
 <ele>709.09</ele>
 <time>2011-10-22T12:18:40Z</time>
 </trkpt>
 <trkpt lat="47.905434" lon="13.063190">
 <ele>708.13</ele>
 <time>2011-10-22T12:18:46Z</time>
 </trkpt>
 <trkpt lat="47.905125" lon="13.062842">
 <ele>707.46</ele>
 <time>2011-10-22T12:18:53Z</time>
 </trkpt>
 <trkpt lat="47.904846" lon="13.062553">
 <ele>707.86</ele>
 <time>2011-10-22T12:19:00Z</time>
 </trkpt>
 <trkpt lat="47.904415" lon="13.062172">
 <ele>708.50</ele>
 <time>2011-10-22T12:19:10Z</time>
 </trkpt>
 <trkpt lat="47.904129" lon="13.061934">
 <ele>708.42</ele>
 <time>2011-10-22T12:19:17Z</time>
 </trkpt>
 <trkpt lat="47.903774" lon="13.061615">
 <ele>707.80</ele>
 <time>2011-10-22T12:19:26Z</time>
 </trkpt>
 <trkpt lat="47.903488" lon="13.061362">
 <ele>706.44</ele>
 <time>2011-10-22T12:19:32Z</time>
 </trkpt>
 <trkpt lat="47.903358" lon="13.061220">
 <ele>706.12</ele>
 <time>2011-10-22T12:19:35Z</time>
 </trkpt>
 <trkpt lat="47.903214" lon="13.060826">
 <ele>706.34</ele>
 <time>2011-10-22T12:19:41Z</time>
 </trkpt>
 <trkpt lat="47.903179" lon="13.060357">
 <ele>707.41</ele>
 <time>2011-10-22T12:19:48Z</time>
 </trkpt>
 <trkpt lat="47.903118" lon="13.059904">
 <ele>708.81</ele>
 <time>2011-10-22T12:19:55Z</time>
 </trkpt>
 <trkpt lat="47.903030" lon="13.059670">
 <ele>709.69</ele>
 <time>2011-10-22T12:19:59Z</time>
 </trkpt>
 <trkpt lat="47.902966" lon="13.059560">
 <ele>710.00</ele>
 <time>2011-10-22T12:20:01Z</time>
 </trkpt>
 <trkpt lat="47.902714" lon="13.059287">
 <ele>710.89</ele>
 <time>2011-10-22T12:20:08Z</time>
 </trkpt>
 <trkpt lat="47.902439" lon="13.059122">
 <ele>710.95</ele>
 <time>2011-10-22T12:20:14Z</time>
 </trkpt>
 <trkpt lat="47.902027" lon="13.058902">
 <ele>709.97</ele>
 <time>2011-10-22T12:20:22Z</time>
 </trkpt>
 <trkpt lat="47.901497" lon="13.058618">
 <ele>709.25</ele>
 <time>2011-10-22T12:20:32Z</time>
 </trkpt>
 <trkpt lat="47.901001" lon="13.058344">
 <ele>707.43</ele>
 <time>2011-10-22T12:20:40Z</time>
 </trkpt>
 <trkpt lat="47.900497" lon="13.058011">
 <ele>704.65</ele>
 <time>2011-10-22T12:20:47Z</time>
 </trkpt>
 <trkpt lat="47.899921" lon="13.057590">
 <ele>702.92</ele>
 <time>2011-10-22T12:20:55Z</time>
 </trkpt>
 <trkpt lat="47.899357" lon="13.057174">
 <ele>703.12</ele>
 <time>2011-10-22T12:21:04Z</time>
 </trkpt>
 <trkpt lat="47.899002" lon="13.056921">
 <ele>704.52</ele>
 <time>2011-10-22T12:21:11Z</time>
 </trkpt>
 <trkpt lat="47.898647" lon="13.056660">
 <ele>704.78</ele>
 <time>2011-10-22T12:21:18Z</time>
 </trkpt>
 <trkpt lat="47.898590" lon="13.056617">
 <ele>704.55</ele>
 <time>2011-10-22T12:21:19Z</time>
 </trkpt>
 <trkpt lat="47.898350" lon="13.056542">
 <ele>703.53</ele>
 <time>2011-10-22T12:21:23Z</time>
 </trkpt>
 <trkpt lat="47.897934" lon="13.056613">
 <ele>702.80</ele>
 <time>2011-10-22T12:21:31Z</time>
 </trkpt>
 <trkpt lat="47.897881" lon="13.056615">
 <ele>702.99</ele>
 <time>2011-10-22T12:21:32Z</time>
 </trkpt>
 <trkpt lat="47.897736" lon="13.056597">
 <ele>703.62</ele>
 <time>2011-10-22T12:21:35Z</time>
 </trkpt>
 <trkpt lat="47.897339" lon="13.056539">
 <ele>704.48</ele>
 <time>2011-10-22T12:21:43Z</time>
 </trkpt>
 <trkpt lat="47.896950" lon="13.056654">
 <ele>704.52</ele>
 <time>2011-10-22T12:21:51Z</time>
 </trkpt>
 <trkpt lat="47.896442" lon="13.056929">
 <ele>703.70</ele>
 <time>2011-10-22T12:22:01Z</time>
 </trkpt>
 <trkpt lat="47.895947" lon="13.057183">
 <ele>702.29</ele>
 <time>2011-10-22T12:22:10Z</time>
 </trkpt>
 <trkpt lat="47.895500" lon="13.057279">
 <ele>700.96</ele>
 <time>2011-10-22T12:22:17Z</time>
 </trkpt>
 <trkpt lat="47.895164" lon="13.057433">
 <ele>700.07</ele>
 <time>2011-10-22T12:22:22Z</time>
 </trkpt>
 <trkpt lat="47.894661" lon="13.057762">
 <ele>696.62</ele>
 <time>2011-10-22T12:22:29Z</time>
 </trkpt>
 <trkpt lat="47.894512" lon="13.057834">
 <ele>696.00</ele>
 <time>2011-10-22T12:22:31Z</time>
 </trkpt>
 <trkpt lat="47.894218" lon="13.057857">
 <ele>695.39</ele>
 <time>2011-10-22T12:22:35Z</time>
 </trkpt>
 <trkpt lat="47.893639" lon="13.057838">
 <ele>694.31</ele>
 <time>2011-10-22T12:22:43Z</time>
 </trkpt>
 <trkpt lat="47.893009" lon="13.057959">
 <ele>692.78</ele>
 <time>2011-10-22T12:22:52Z</time>
 </trkpt>
 <trkpt lat="47.892597" lon="13.058087">
 <ele>693.07</ele>
 <time>2011-10-22T12:22:59Z</time>
 </trkpt>
 <trkpt lat="47.892551" lon="13.058115">
 <ele>693.13</ele>
 <time>2011-10-22T12:23:00Z</time>
 </trkpt>
 <trkpt lat="47.892391" lon="13.058214">
 <ele>693.53</ele>
 <time>2011-10-22T12:23:04Z</time>
 </trkpt>
 <trkpt lat="47.892250" lon="13.058066">
 <ele>694.18</ele>
 <time>2011-10-22T12:23:09Z</time>
 </trkpt>
 <trkpt lat="47.891994" lon="13.057752">
 <ele>694.10</ele>
 <time>2011-10-22T12:23:16Z</time>
 </trkpt>
 <trkpt lat="47.891567" lon="13.057370">
 <ele>693.72</ele>
 <time>2011-10-22T12:23:25Z</time>
 </trkpt>
 <trkpt lat="47.890972" lon="13.056817">
 <ele>692.84</ele>
 <time>2011-10-22T12:23:37Z</time>
 </trkpt>
 <trkpt lat="47.890553" lon="13.056424">
 <ele>692.42</ele>
 <time>2011-10-22T12:23:45Z</time>
 </trkpt>
 <trkpt lat="47.889980" lon="13.055898">
 <ele>691.99</ele>
 <time>2011-10-22T12:23:56Z</time>
 </trkpt>
 <trkpt lat="47.889645" lon="13.055500">
 <ele>691.57</ele>
 <time>2011-10-22T12:24:03Z</time>
 </trkpt>
 <trkpt lat="47.889214" lon="13.054942">
 <ele>691.74</ele>
 <time>2011-10-22T12:24:13Z</time>
 </trkpt>
 <trkpt lat="47.888935" lon="13.054733">
 <ele>691.81</ele>
 <time>2011-10-22T12:24:19Z</time>
 </trkpt>
 <trkpt lat="47.888813" lon="13.054632">
 <ele>691.94</ele>
 <time>2011-10-22T12:24:23Z</time>
 </trkpt>
 <trkpt lat="47.888741" lon="13.054536">
 <ele>692.38</ele>
 <time>2011-10-22T12:24:28Z</time>
 </trkpt>
 <trkpt lat="47.888729" lon="13.054529">
 <ele>692.34</ele>
 <time>2011-10-22T12:24:30Z</time>
 </trkpt>
 <trkpt lat="47.888645" lon="13.054580">
 <ele>692.08</ele>
 <time>2011-10-22T12:24:35Z</time>
 </trkpt>
 <trkpt lat="47.888615" lon="13.054574">
 <ele>692.02</ele>
 <time>2011-10-22T12:24:36Z</time>
 </trkpt>
 <trkpt lat="47.888386" lon="13.054451">
 <ele>690.83</ele>
 <time>2011-10-22T12:24:42Z</time>
 </trkpt>
 <trkpt lat="47.888023" lon="13.054331">
 <ele>690.61</ele>
 <time>2011-10-22T12:24:50Z</time>
 </trkpt>
 <trkpt lat="47.887974" lon="13.054326">
 <ele>690.66</ele>
 <time>2011-10-22T12:24:51Z</time>
 </trkpt>
 <trkpt lat="47.887714" lon="13.054426">
 <ele>690.14</ele>
 <time>2011-10-22T12:24:56Z</time>
 </trkpt>
 <trkpt lat="47.887619" lon="13.054541">
 <ele>689.57</ele>
 <time>2011-10-22T12:24:58Z</time>
 </trkpt>
 <trkpt lat="47.887344" lon="13.054991">
 <ele>687.19</ele>
 <time>2011-10-22T12:25:04Z</time>
 </trkpt>
 <trkpt lat="47.887104" lon="13.055216">
 <ele>686.08</ele>
 <time>2011-10-22T12:25:08Z</time>
 </trkpt>
 <trkpt lat="47.886948" lon="13.055248">
 <ele>685.23</ele>
 <time>2011-10-22T12:25:10Z</time>
 </trkpt>
 <trkpt lat="47.886219" lon="13.055314">
 <ele>680.98</ele>
 <time>2011-10-22T12:25:19Z</time>
 </trkpt>
 <trkpt lat="47.885883" lon="13.055193">
 <ele>678.96</ele>
 <time>2011-10-22T12:25:23Z</time>
 </trkpt>
 <trkpt lat="47.885559" lon="13.055225">
 <ele>677.65</ele>
 <time>2011-10-22T12:25:27Z</time>
 </trkpt>
 <trkpt lat="47.885414" lon="13.055324">
 <ele>677.31</ele>
 <time>2011-10-22T12:25:29Z</time>
 </trkpt>
 <trkpt lat="47.885067" lon="13.055446">
 <ele>677.09</ele>
 <time>2011-10-22T12:25:34Z</time>
 </trkpt>
 <trkpt lat="47.885006" lon="13.055403">
 <ele>677.13</ele>
 <time>2011-10-22T12:25:35Z</time>
 </trkpt>
 <trkpt lat="47.884789" lon="13.055269">
 <ele>678.64</ele>
 <time>2011-10-22T12:25:41Z</time>
 </trkpt>
 <trkpt lat="47.884743" lon="13.055323">
 <ele>679.73</ele>
 <time>2011-10-22T12:25:45Z</time>
 </trkpt>
 <trkpt lat="47.884743" lon="13.055587">
 <ele>680.56</ele>
 <time>2011-10-22T12:25:53Z</time>
 </trkpt>
 <trkpt lat="47.884762" lon="13.055740">
 <ele>681.24</ele>
 <time>2011-10-22T12:25:57Z</time>
 </trkpt>
 <trkpt lat="47.884777" lon="13.055905">
 <ele>681.75</ele>
 <time>2011-10-22T12:26:01Z</time>
 </trkpt>
 <trkpt lat="47.884796" lon="13.056135">
 <ele>682.91</ele>
 <time>2011-10-22T12:26:06Z</time>
 </trkpt>
 <trkpt lat="47.884789" lon="13.056345">
 <ele>683.72</ele>
 <time>2011-10-22T12:26:10Z</time>
 </trkpt>
 <trkpt lat="47.884747" lon="13.056657">
 <ele>684.35</ele>
 <time>2011-10-22T12:26:16Z</time>
 </trkpt>
 <trkpt lat="47.884720" lon="13.056776">
 <ele>684.02</ele>
 <time>2011-10-22T12:26:18Z</time>
 </trkpt>
 <trkpt lat="47.884567" lon="13.057123">
 <ele>682.29</ele>
 <time>2011-10-22T12:26:23Z</time>
 </trkpt>
 <trkpt lat="47.884468" lon="13.057276">
 <ele>681.02</ele>
 <time>2011-10-22T12:26:25Z</time>
 </trkpt>
 <trkpt lat="47.884109" lon="13.057593">
 <ele>677.17</ele>
 <time>2011-10-22T12:26:30Z</time>
 </trkpt>
 <trkpt lat="47.883434" lon="13.057988">
 <ele>671.88</ele>
 <time>2011-10-22T12:26:38Z</time>
 </trkpt>
 <trkpt lat="47.882904" lon="13.058263">
 <ele>669.95</ele>
 <time>2011-10-22T12:26:44Z</time>
 </trkpt>
 <trkpt lat="47.882633" lon="13.058474">
 <ele>670.47</ele>
 <time>2011-10-22T12:26:48Z</time>
 </trkpt>
 <trkpt lat="47.882526" lon="13.058596">
 <ele>671.22</ele>
 <time>2011-10-22T12:26:50Z</time>
 </trkpt>
 <trkpt lat="47.882271" lon="13.059085">
 <ele>673.27</ele>
 <time>2011-10-22T12:26:57Z</time>
 </trkpt>
 <trkpt lat="47.882145" lon="13.059644">
 <ele>672.65</ele>
 <time>2011-10-22T12:27:04Z</time>
 </trkpt>
 <trkpt lat="47.882141" lon="13.060098">
 <ele>671.68</ele>
 <time>2011-10-22T12:27:09Z</time>
 </trkpt>
 <trkpt lat="47.882153" lon="13.060296">
 <ele>671.23</ele>
 <time>2011-10-22T12:27:11Z</time>
 </trkpt>
 <trkpt lat="47.882137" lon="13.060705">
 <ele>670.15</ele>
 <time>2011-10-22T12:27:15Z</time>
 </trkpt>
 <trkpt lat="47.882099" lon="13.060891">
 <ele>669.63</ele>
 <time>2011-10-22T12:27:17Z</time>
 </trkpt>
 <trkpt lat="47.881966" lon="13.061169">
 <ele>669.91</ele>
 <time>2011-10-22T12:27:21Z</time>
 </trkpt>
 <trkpt lat="47.881840" lon="13.061304">
 <ele>670.64</ele>
 <time>2011-10-22T12:27:24Z</time>
 </trkpt>
 <trkpt lat="47.881699" lon="13.061514">
 <ele>670.98</ele>
 <time>2011-10-22T12:27:28Z</time>
 </trkpt>
 <trkpt lat="47.881416" lon="13.062010">
 <ele>670.78</ele>
 <time>2011-10-22T12:27:36Z</time>
 </trkpt>
 <trkpt lat="47.881348" lon="13.062119">
 <ele>670.85</ele>
 <time>2011-10-22T12:27:38Z</time>
 </trkpt>
 <trkpt lat="47.881153" lon="13.062485">
 <ele>671.81</ele>
 <time>2011-10-22T12:27:44Z</time>
 </trkpt>
 <trkpt lat="47.881016" lon="13.062712">
 <ele>672.28</ele>
 <time>2011-10-22T12:27:48Z</time>
 </trkpt>
 <trkpt lat="47.880951" lon="13.062823">
 <ele>672.64</ele>
 <time>2011-10-22T12:27:50Z</time>
 </trkpt>
 <trkpt lat="47.880913" lon="13.063017">
 <ele>673.06</ele>
 <time>2011-10-22T12:27:53Z</time>
 </trkpt>
 <trkpt lat="47.880875" lon="13.063412">
 <ele>674.21</ele>
 <time>2011-10-22T12:27:59Z</time>
 </trkpt>
 <trkpt lat="47.880863" lon="13.063765">
 <ele>675.14</ele>
 <time>2011-10-22T12:28:05Z</time>
 </trkpt>
 <trkpt lat="47.880840" lon="13.063899">
 <ele>675.40</ele>
 <time>2011-10-22T12:28:07Z</time>
 </trkpt>
 <trkpt lat="47.880814" lon="13.064232">
 <ele>676.24</ele>
 <time>2011-10-22T12:28:13Z</time>
 </trkpt>
 <trkpt lat="47.880852" lon="13.064542">
 <ele>677.30</ele>
 <time>2011-10-22T12:28:19Z</time>
 </trkpt>
 <trkpt lat="47.880875" lon="13.064752">
 <ele>678.96</ele>
 <time>2011-10-22T12:28:24Z</time>
 </trkpt>
 <trkpt lat="47.880890" lon="13.064946">
 <ele>680.20</ele>
 <time>2011-10-22T12:28:29Z</time>
 </trkpt>
 <trkpt lat="47.880833" lon="13.065205">
 <ele>682.25</ele>
 <time>2011-10-22T12:28:37Z</time>
 </trkpt>
 <trkpt lat="47.880730" lon="13.065231">
 <ele>683.20</ele>
 <time>2011-10-22T12:28:41Z</time>
 </trkpt>
 <trkpt lat="47.880451" lon="13.065277">
 <ele>683.85</ele>
 <time>2011-10-22T12:28:50Z</time>
 </trkpt>
 <trkpt lat="47.880077" lon="13.065303">
 <ele>685.21</ele>
 <time>2011-10-22T12:29:02Z</time>
 </trkpt>
 <trkpt lat="47.879749" lon="13.065326">
 <ele>686.44</ele>
 <time>2011-10-22T12:29:13Z</time>
 </trkpt>
 <trkpt lat="47.879593" lon="13.065302">
 <ele>687.01</ele>
 <time>2011-10-22T12:29:20Z</time>
 </trkpt>
 <trkpt lat="47.879593" lon="13.065296">
 <ele>687.20</ele>
 <time>2011-10-22T12:29:22Z</time>
 </trkpt>
 <trkpt lat="47.879562" lon="13.065363">
 <ele>687.70</ele>
 <time>2011-10-22T12:30:01Z</time>
 </trkpt>
 <trkpt lat="47.879448" lon="13.065371">
 <ele>687.70</ele>
 <time>2011-10-22T12:30:05Z</time>
 </trkpt>
 <trkpt lat="47.879139" lon="13.065398">
 <ele>688.36</ele>
 <time>2011-10-22T12:30:15Z</time>
 </trkpt>
 <trkpt lat="47.878784" lon="13.065445">
 <ele>689.74</ele>
 <time>2011-10-22T12:30:26Z</time>
 </trkpt>
 <trkpt lat="47.878494" lon="13.065499">
 <ele>690.12</ele>
 <time>2011-10-22T12:30:35Z</time>
 </trkpt>
 <trkpt lat="47.878197" lon="13.065586">
 <ele>690.09</ele>
 <time>2011-10-22T12:30:43Z</time>
 </trkpt>
 <trkpt lat="47.877815" lon="13.065728">
 <ele>689.14</ele>
 <time>2011-10-22T12:30:51Z</time>
 </trkpt>
 <trkpt lat="47.877407" lon="13.065923">
 <ele>687.16</ele>
 <time>2011-10-22T12:30:58Z</time>
 </trkpt>
 <trkpt lat="47.877022" lon="13.066116">
 <ele>686.11</ele>
 <time>2011-10-22T12:31:04Z</time>
 </trkpt>
 <trkpt lat="47.876484" lon="13.066281">
 <ele>684.98</ele>
 <time>2011-10-22T12:31:12Z</time>
 </trkpt>
 <trkpt lat="47.875996" lon="13.066307">
 <ele>683.54</ele>
 <time>2011-10-22T12:31:19Z</time>
 </trkpt>
 <trkpt lat="47.875473" lon="13.066199">
 <ele>681.98</ele>
 <time>2011-10-22T12:31:26Z</time>
 </trkpt>
 <trkpt lat="47.874920" lon="13.066047">
 <ele>679.68</ele>
 <time>2011-10-22T12:31:33Z</time>
 </trkpt>
 <trkpt lat="47.874516" lon="13.065981">
 <ele>678.15</ele>
 <time>2011-10-22T12:31:39Z</time>
 </trkpt>
 <trkpt lat="47.873943" lon="13.065992">
 <ele>674.09</ele>
 <time>2011-10-22T12:31:46Z</time>
 </trkpt>
 <trkpt lat="47.873352" lon="13.066138">
 <ele>670.96</ele>
 <time>2011-10-22T12:31:53Z</time>
 </trkpt>
 <trkpt lat="47.872669" lon="13.066378">
 <ele>668.41</ele>
 <time>2011-10-22T12:32:01Z</time>
 </trkpt>
 <trkpt lat="47.872059" lon="13.066607">
 <ele>667.12</ele>
 <time>2011-10-22T12:32:09Z</time>
 </trkpt>
 <trkpt lat="47.871796" lon="13.066663">
 <ele>667.06</ele>
 <time>2011-10-22T12:32:13Z</time>
 </trkpt>
 <trkpt lat="47.871609" lon="13.066595">
 <ele>667.06</ele>
 <time>2011-10-22T12:32:16Z</time>
 </trkpt>
 <trkpt lat="47.871365" lon="13.066620">
 <ele>666.46</ele>
 <time>2011-10-22T12:32:20Z</time>
 </trkpt>
 <trkpt lat="47.871014" lon="13.066683">
 <ele>665.42</ele>
 <time>2011-10-22T12:32:26Z</time>
 </trkpt>
 <trkpt lat="47.870567" lon="13.066595">
 <ele>664.91</ele>
 <time>2011-10-22T12:32:33Z</time>
 </trkpt>
 <trkpt lat="47.870102" lon="13.066397">
 <ele>664.08</ele>
 <time>2011-10-22T12:32:40Z</time>
 </trkpt>
 <trkpt lat="47.869518" lon="13.066043">
 <ele>662.93</ele>
 <time>2011-10-22T12:32:49Z</time>
 </trkpt>
 <trkpt lat="47.869076" lon="13.065776">
 <ele>661.53</ele>
 <time>2011-10-22T12:32:55Z</time>
 </trkpt>
 <trkpt lat="47.868553" lon="13.065490">
 <ele>658.36</ele>
 <time>2011-10-22T12:33:01Z</time>
 </trkpt>
 <trkpt lat="47.868252" lon="13.065364">
 <ele>656.85</ele>
 <time>2011-10-22T12:33:04Z</time>
 </trkpt>
 <trkpt lat="47.867565" lon="13.065180">
 <ele>650.64</ele>
 <time>2011-10-22T12:33:10Z</time>
 </trkpt>
 <trkpt lat="47.866703" lon="13.064961">
 <ele>641.26</ele>
 <time>2011-10-22T12:33:17Z</time>
 </trkpt>
 <trkpt lat="47.866077" lon="13.064639">
 <ele>635.21</ele>
 <time>2011-10-22T12:33:22Z</time>
 </trkpt>
 <trkpt lat="47.865608" lon="13.064239">
 <ele>629.99</ele>
 <time>2011-10-22T12:33:26Z</time>
 </trkpt>
 <trkpt lat="47.865288" lon="13.063874">
 <ele>627.28</ele>
 <time>2011-10-22T12:33:29Z</time>
 </trkpt>
 <trkpt lat="47.864471" lon="13.062927">
 <ele>619.10</ele>
 <time>2011-10-22T12:33:37Z</time>
 </trkpt>
 <trkpt lat="47.864265" lon="13.062733">
 <ele>618.33</ele>
 <time>2011-10-22T12:33:39Z</time>
 </trkpt>
 <trkpt lat="47.863625" lon="13.062270">
 <ele>614.42</ele>
 <time>2011-10-22T12:33:45Z</time>
 </trkpt>
 <trkpt lat="47.862663" lon="13.061686">
 <ele>609.16</ele>
 <time>2011-10-22T12:33:54Z</time>
 </trkpt>
 <trkpt lat="47.862091" lon="13.061216">
 <ele>606.78</ele>
 <time>2011-10-22T12:34:00Z</time>
 </trkpt>
 <trkpt lat="47.861523" lon="13.060576">
 <ele>604.66</ele>
 <time>2011-10-22T12:34:07Z</time>
 </trkpt>
 <trkpt lat="47.860863" lon="13.059808">
 <ele>603.45</ele>
 <time>2011-10-22T12:34:16Z</time>
 </trkpt>
 <trkpt lat="47.860432" lon="13.059404">
 <ele>603.63</ele>
 <time>2011-10-22T12:34:22Z</time>
 </trkpt>
 <trkpt lat="47.860023" lon="13.059062">
 <ele>603.52</ele>
 <time>2011-10-22T12:34:28Z</time>
 </trkpt>
 <trkpt lat="47.859417" lon="13.058629">
 <ele>603.47</ele>
 <time>2011-10-22T12:34:37Z</time>
 </trkpt>
 <trkpt lat="47.858799" lon="13.058348">
 <ele>604.26</ele>
 <time>2011-10-22T12:34:46Z</time>
 </trkpt>
 <trkpt lat="47.858162" lon="13.058169">
 <ele>603.92</ele>
 <time>2011-10-22T12:34:55Z</time>
 </trkpt>
 <trkpt lat="47.857689" lon="13.058033">
 <ele>601.38</ele>
 <time>2011-10-22T12:35:01Z</time>
 </trkpt>
 <trkpt lat="47.857204" lon="13.057863">
 <ele>597.35</ele>
 <time>2011-10-22T12:35:06Z</time>
 </trkpt>
 <trkpt lat="47.856758" lon="13.057639">
 <ele>593.12</ele>
 <time>2011-10-22T12:35:10Z</time>
 </trkpt>
 <trkpt lat="47.856277" lon="13.057352">
 <ele>586.09</ele>
 <time>2011-10-22T12:35:14Z</time>
 </trkpt>
 <trkpt lat="47.855461" lon="13.056800">
 <ele>578.32</ele>
 <time>2011-10-22T12:35:21Z</time>
 </trkpt>
 <trkpt lat="47.854671" lon="13.056163">
 <ele>576.15</ele>
 <time>2011-10-22T12:35:29Z</time>
 </trkpt>
 <trkpt lat="47.854160" lon="13.055636">
 <ele>574.79</ele>
 <time>2011-10-22T12:35:35Z</time>
 </trkpt>
 <trkpt lat="47.853569" lon="13.054892">
 <ele>572.36</ele>
 <time>2011-10-22T12:35:43Z</time>
 </trkpt>
 <trkpt lat="47.853001" lon="13.053990">
 <ele>569.70</ele>
 <time>2011-10-22T12:35:52Z</time>
 </trkpt>
 <trkpt lat="47.852360" lon="13.052776">
 <ele>566.17</ele>
 <time>2011-10-22T12:36:03Z</time>
 </trkpt>
 <trkpt lat="47.852001" lon="13.051923">
 <ele>563.41</ele>
 <time>2011-10-22T12:36:10Z</time>
 </trkpt>
 <trkpt lat="47.851551" lon="13.050983">
 <ele>560.10</ele>
 <time>2011-10-22T12:36:18Z</time>
 </trkpt>
 <trkpt lat="47.851196" lon="13.050420">
 <ele>558.92</ele>
 <time>2011-10-22T12:36:24Z</time>
 </trkpt>
 <trkpt lat="47.850815" lon="13.049928">
 <ele>559.60</ele>
 <time>2011-10-22T12:36:31Z</time>
 </trkpt>
 <trkpt lat="47.850353" lon="13.049428">
 <ele>561.20</ele>
 <time>2011-10-22T12:36:40Z</time>
 </trkpt>
 <trkpt lat="47.850021" lon="13.049043">
 <ele>562.68</ele>
 <time>2011-10-22T12:36:47Z</time>
 </trkpt>
 <trkpt lat="47.849747" lon="13.048641">
 <ele>563.48</ele>
 <time>2011-10-22T12:36:54Z</time>
 </trkpt>
 <trkpt lat="47.849586" lon="13.048356">
 <ele>564.06</ele>
 <time>2011-10-22T12:36:59Z</time>
 </trkpt>
 <trkpt lat="47.849396" lon="13.047965">
 <ele>563.97</ele>
 <time>2011-10-22T12:37:05Z</time>
 </trkpt>
 <trkpt lat="47.849121" lon="13.047356">
 <ele>563.24</ele>
 <time>2011-10-22T12:37:13Z</time>
 </trkpt>
 <trkpt lat="47.848812" lon="13.046826">
 <ele>562.42</ele>
 <time>2011-10-22T12:37:20Z</time>
 </trkpt>
 <trkpt lat="47.848404" lon="13.046333">
 <ele>559.69</ele>
 <time>2011-10-22T12:37:27Z</time>
 </trkpt>
 <trkpt lat="47.847950" lon="13.045982">
 <ele>556.16</ele>
 <time>2011-10-22T12:37:33Z</time>
 </trkpt>
 <trkpt lat="47.847584" lon="13.045870">
 <ele>552.84</ele>
 <time>2011-10-22T12:37:37Z</time>
 </trkpt>
 <trkpt lat="47.847488" lon="13.045862">
 <ele>552.07</ele>
 <time>2011-10-22T12:37:38Z</time>
 </trkpt>
 <trkpt lat="47.847317" lon="13.045877">
 <ele>551.36</ele>
 <time>2011-10-22T12:37:40Z</time>
 </trkpt>
 <trkpt lat="47.847160" lon="13.045907">
 <ele>549.95</ele>
 <time>2011-10-22T12:37:43Z</time>
 </trkpt>
 <trkpt lat="47.847118" lon="13.045889">
 <ele>549.85</ele>
 <time>2011-10-22T12:37:46Z</time>
 </trkpt>
 <trkpt lat="47.847118" lon="13.045888">
 <ele>550.00</ele>
 <time>2011-10-22T12:37:47Z</time>
 </trkpt>
 <trkpt lat="47.847046" lon="13.045836">
 <ele>550.15</ele>
 <time>2011-10-22T12:37:53Z</time>
 </trkpt>
 <trkpt lat="47.846996" lon="13.045778">
 <ele>549.38</ele>
 <time>2011-10-22T12:37:57Z</time>
 </trkpt>
 <trkpt lat="47.846992" lon="13.045778">
 <ele>549.27</ele>
 <time>2011-10-22T12:37:58Z</time>
 </trkpt>
 <trkpt lat="47.846966" lon="13.045855">
 <ele>549.35</ele>
 <time>2011-10-22T12:38:04Z</time>
 </trkpt>
 <trkpt lat="47.846928" lon="13.045909">
 <ele>549.45</ele>
 <time>2011-10-22T12:38:08Z</time>
 </trkpt>
 <trkpt lat="47.846779" lon="13.046004">
 <ele>549.69</ele>
 <time>2011-10-22T12:38:14Z</time>
 </trkpt>
 <trkpt lat="47.846588" lon="13.046130">
 <ele>549.48</ele>
 <time>2011-10-22T12:38:21Z</time>
 </trkpt>
 <trkpt lat="47.846481" lon="13.046126">
 <ele>549.40</ele>
 <time>2011-10-22T12:38:26Z</time>
 </trkpt>
 <trkpt lat="47.846371" lon="13.046004">
 <ele>549.07</ele>
 <time>2011-10-22T12:38:30Z</time>
 </trkpt>
 <trkpt lat="47.846237" lon="13.045963">
 <ele>548.76</ele>
 <time>2011-10-22T12:38:34Z</time>
 </trkpt>
 <trkpt lat="47.846088" lon="13.045907">
 <ele>548.74</ele>
 <time>2011-10-22T12:38:39Z</time>
 </trkpt>
 <trkpt lat="47.845921" lon="13.045845">
 <ele>549.08</ele>
 <time>2011-10-22T12:38:44Z</time>
 </trkpt>
 <trkpt lat="47.845711" lon="13.045775">
 <ele>549.52</ele>
 <time>2011-10-22T12:38:50Z</time>
 </trkpt>
 <trkpt lat="47.845589" lon="13.045831">
 <ele>549.88</ele>
 <time>2011-10-22T12:38:54Z</time>
 </trkpt>
 <trkpt lat="47.845432" lon="13.046050">
 <ele>550.01</ele>
 <time>2011-10-22T12:39:00Z</time>
 </trkpt>
 <trkpt lat="47.845409" lon="13.046078">
 <ele>549.96</ele>
 <time>2011-10-22T12:39:01Z</time>
 </trkpt>
 <trkpt lat="47.845276" lon="13.045996">
 <ele>550.15</ele>
 <time>2011-10-22T12:39:06Z</time>
 </trkpt>
 <trkpt lat="47.845249" lon="13.045957">
 <ele>550.20</ele>
 <time>2011-10-22T12:39:07Z</time>
 </trkpt>
 <trkpt lat="47.845142" lon="13.045709">
 <ele>550.49</ele>
 <time>2011-10-22T12:39:13Z</time>
 </trkpt>
 <trkpt lat="47.845093" lon="13.045492">
 <ele>550.35</ele>
 <time>2011-10-22T12:39:17Z</time>
 </trkpt>
 <trkpt lat="47.844963" lon="13.045021">
 <ele>549.88</ele>
 <time>2011-10-22T12:39:25Z</time>
 </trkpt>
 <trkpt lat="47.844769" lon="13.044523">
 <ele>548.22</ele>
 <time>2011-10-22T12:39:33Z</time>
 </trkpt>
 <trkpt lat="47.844528" lon="13.044017">
 <ele>547.57</ele>
 <time>2011-10-22T12:39:41Z</time>
 </trkpt>
 <trkpt lat="47.844337" lon="13.043722">
 <ele>547.28</ele>
 <time>2011-10-22T12:39:47Z</time>
 </trkpt>
 <trkpt lat="47.844330" lon="13.043702">
 <ele>547.39</ele>
 <time>2011-10-22T12:39:49Z</time>
 </trkpt>
 <trkpt lat="47.844379" lon="13.043499">
 <ele>547.01</ele>
 <time>2011-10-22T12:39:56Z</time>
 </trkpt>
 <trkpt lat="47.844463" lon="13.043273">
 <ele>544.80</ele>
 <time>2011-10-22T12:40:01Z</time>
 </trkpt>
 <trkpt lat="47.844482" lon="13.043230">
 <ele>544.44</ele>
 <time>2011-10-22T12:40:03Z</time>
 </trkpt>
 <trkpt lat="47.844444" lon="13.043041">
 <ele>543.50</ele>
 <time>2011-10-22T12:40:08Z</time>
 </trkpt>
 <trkpt lat="47.844322" lon="13.042653">
 <ele>542.98</ele>
 <time>2011-10-22T12:40:15Z</time>
 </trkpt>
 <trkpt lat="47.844177" lon="13.042233">
 <ele>542.72</ele>
 <time>2011-10-22T12:40:22Z</time>
 </trkpt>
 <trkpt lat="47.844124" lon="13.041955">
 <ele>542.27</ele>
 <time>2011-10-22T12:40:26Z</time>
 </trkpt>
 <trkpt lat="47.844128" lon="13.041690">
 <ele>542.01</ele>
 <time>2011-10-22T12:40:30Z</time>
 </trkpt>
 <trkpt lat="47.844231" lon="13.041329">
 <ele>541.42</ele>
 <time>2011-10-22T12:40:36Z</time>
 </trkpt>
 <trkpt lat="47.844257" lon="13.041281">
 <ele>541.36</ele>
 <time>2011-10-22T12:40:37Z</time>
 </trkpt>
 <trkpt lat="47.844437" lon="13.041082">
 <ele>540.47</ele>
 <time>2011-10-22T12:40:42Z</time>
 </trkpt>
 <trkpt lat="47.844788" lon="13.040927">
 <ele>540.23</ele>
 <time>2011-10-22T12:40:50Z</time>
 </trkpt>
 <trkpt lat="47.845104" lon="13.040725">
 <ele>540.56</ele>
 <time>2011-10-22T12:40:57Z</time>
 </trkpt>
 <trkpt lat="47.845398" lon="13.040485">
 <ele>539.97</ele>
 <time>2011-10-22T12:41:04Z</time>
 </trkpt>
 <trkpt lat="47.845627" lon="13.040390">
 <ele>539.64</ele>
 <time>2011-10-22T12:41:09Z</time>
 </trkpt>
 <trkpt lat="47.845844" lon="13.040378">
 <ele>539.47</ele>
 <time>2011-10-22T12:41:13Z</time>
 </trkpt>
 <trkpt lat="47.846001" lon="13.040405">
 <ele>539.51</ele>
 <time>2011-10-22T12:41:16Z</time>
 </trkpt>
 <trkpt lat="47.846306" lon="13.040581">
 <ele>539.74</ele>
 <time>2011-10-22T12:41:22Z</time>
 </trkpt>
 <trkpt lat="47.846561" lon="13.040626">
 <ele>539.42</ele>
 <time>2011-10-22T12:41:27Z</time>
 </trkpt>
 <trkpt lat="47.846729" lon="13.040463">
 <ele>539.10</ele>
 <time>2011-10-22T12:41:31Z</time>
 </trkpt>
 <trkpt lat="47.846828" lon="13.040192">
 <ele>539.01</ele>
 <time>2011-10-22T12:41:35Z</time>
 </trkpt>
 <trkpt lat="47.846832" lon="13.040114">
 <ele>538.97</ele>
 <time>2011-10-22T12:41:36Z</time>
 </trkpt>
 <trkpt lat="47.846855" lon="13.039310">
 <ele>538.26</ele>
 <time>2011-10-22T12:41:46Z</time>
 </trkpt>
 <trkpt lat="47.846813" lon="13.038753">
 <ele>537.39</ele>
 <time>2011-10-22T12:41:53Z</time>
 </trkpt>
 <trkpt lat="47.846798" lon="13.038541">
 <ele>537.31</ele>
 <time>2011-10-22T12:41:56Z</time>
 </trkpt>
 <trkpt lat="47.846714" lon="13.038022">
 <ele>537.16</ele>
 <time>2011-10-22T12:42:03Z</time>
 </trkpt>
 <trkpt lat="47.846600" lon="13.037498">
 <ele>536.74</ele>
 <time>2011-10-22T12:42:10Z</time>
 </trkpt>
 <trkpt lat="47.846420" lon="13.036926">
 <ele>536.63</ele>
 <time>2011-10-22T12:42:18Z</time>
 </trkpt>
 <trkpt lat="47.846218" lon="13.036437">
 <ele>536.57</ele>
 <time>2011-10-22T12:42:25Z</time>
 </trkpt>
 <trkpt lat="47.845985" lon="13.035974">
 <ele>536.08</ele>
 <time>2011-10-22T12:42:32Z</time>
 </trkpt>
 <trkpt lat="47.845821" lon="13.035654">
 <ele>535.80</ele>
 <time>2011-10-22T12:42:37Z</time>
 </trkpt>
 <trkpt lat="47.845669" lon="13.035059">
 <ele>535.62</ele>
 <time>2011-10-22T12:42:45Z</time>
 </trkpt>
 <trkpt lat="47.845657" lon="13.034828">
 <ele>535.61</ele>
 <time>2011-10-22T12:42:48Z</time>
 </trkpt>
 <trkpt lat="47.845768" lon="13.034300">
 <ele>535.47</ele>
 <time>2011-10-22T12:42:55Z</time>
 </trkpt>
 <trkpt lat="47.845943" lon="13.033886">
 <ele>535.02</ele>
 <time>2011-10-22T12:43:01Z</time>
 </trkpt>
 <trkpt lat="47.846046" lon="13.033712">
 <ele>535.13</ele>
 <time>2011-10-22T12:43:04Z</time>
 </trkpt>
 <trkpt lat="47.846325" lon="13.033357">
 <ele>535.28</ele>
 <time>2011-10-22T12:43:11Z</time>
 </trkpt>
 <trkpt lat="47.846554" lon="13.033133">
 <ele>535.13</ele>
 <time>2011-10-22T12:43:17Z</time>
 </trkpt>
 <trkpt lat="47.846664" lon="13.032988">
 <ele>535.22</ele>
 <time>2011-10-22T12:43:21Z</time>
 </trkpt>
 <trkpt lat="47.846676" lon="13.032933">
 <ele>535.17</ele>
 <time>2011-10-22T12:43:22Z</time>
 </trkpt>
 <trkpt lat="47.846664" lon="13.032550">
 <ele>534.65</ele>
 <time>2011-10-22T12:43:28Z</time>
 </trkpt>
 <trkpt lat="47.846687" lon="13.032173">
 <ele>534.04</ele>
 <time>2011-10-22T12:43:33Z</time>
 </trkpt>
 <trkpt lat="47.846737" lon="13.031883">
 <ele>533.65</ele>
 <time>2011-10-22T12:43:37Z</time>
 </trkpt>
 <trkpt lat="47.846760" lon="13.031816">
 <ele>533.72</ele>
 <time>2011-10-22T12:43:38Z</time>
 </trkpt>
 <trkpt lat="47.846909" lon="13.031365">
 <ele>533.72</ele>
 <time>2011-10-22T12:43:45Z</time>
 </trkpt>
 <trkpt lat="47.847095" lon="13.030905">
 <ele>532.77</ele>
 <time>2011-10-22T12:43:53Z</time>
 </trkpt>
 <trkpt lat="47.847267" lon="13.030459">
 <ele>532.52</ele>
 <time>2011-10-22T12:44:00Z</time>
 </trkpt>
 <trkpt lat="47.847416" lon="13.030091">
 <ele>532.39</ele>
 <time>2011-10-22T12:44:06Z</time>
 </trkpt>
 <trkpt lat="47.847557" lon="13.029699">
 <ele>532.44</ele>
 <time>2011-10-22T12:44:13Z</time>
 </trkpt>
 <trkpt lat="47.847610" lon="13.029471">
 <ele>533.20</ele>
 <time>2011-10-22T12:44:19Z</time>
 </trkpt>
 <trkpt lat="47.847614" lon="13.029462">
 <ele>533.60</ele>
 <time>2011-10-22T12:44:22Z</time>
 </trkpt>
 <trkpt lat="47.847637" lon="13.029394">
 <ele>533.85</ele>
 <time>2011-10-22T12:44:30Z</time>
 </trkpt>
 <trkpt lat="47.847687" lon="13.029180">
 <ele>533.21</ele>
 <time>2011-10-22T12:44:35Z</time>
 </trkpt>
 <trkpt lat="47.847755" lon="13.028798">
 <ele>531.36</ele>
 <time>2011-10-22T12:44:40Z</time>
 </trkpt>
 <trkpt lat="47.847786" lon="13.028575">
 <ele>530.48</ele>
 <time>2011-10-22T12:44:44Z</time>
 </trkpt>
 <trkpt lat="47.847790" lon="13.028519">
 <ele>530.46</ele>
 <time>2011-10-22T12:44:45Z</time>
 </trkpt>
 <trkpt lat="47.847771" lon="13.028120">
 <ele>530.22</ele>
 <time>2011-10-22T12:44:51Z</time>
 </trkpt>
 <trkpt lat="47.847668" lon="13.027740">
 <ele>530.22</ele>
 <time>2011-10-22T12:44:57Z</time>
 </trkpt>
 <trkpt lat="47.847473" lon="13.027372">
 <ele>529.82</ele>
 <time>2011-10-22T12:45:04Z</time>
 </trkpt>
 <trkpt lat="47.847183" lon="13.027124">
 <ele>529.62</ele>
 <time>2011-10-22T12:45:11Z</time>
 </trkpt>
 <trkpt lat="47.846779" lon="13.026891">
 <ele>529.22</ele>
 <time>2011-10-22T12:45:20Z</time>
 </trkpt>
 <trkpt lat="47.846397" lon="13.026571">
 <ele>528.87</ele>
 <time>2011-10-22T12:45:29Z</time>
 </trkpt>
 <trkpt lat="47.846111" lon="13.026149">
 <ele>528.66</ele>
 <time>2011-10-22T12:45:37Z</time>
 </trkpt>
 <trkpt lat="47.845901" lon="13.025755">
 <ele>528.35</ele>
 <time>2011-10-22T12:45:44Z</time>
 </trkpt>
 <trkpt lat="47.845665" lon="13.025201">
 <ele>528.21</ele>
 <time>2011-10-22T12:45:53Z</time>
 </trkpt>
 <trkpt lat="47.845604" lon="13.025043">
 <ele>528.60</ele>
 <time>2011-10-22T12:45:57Z</time>
 </trkpt>
 <trkpt lat="47.845585" lon="13.024991">
 <ele>528.59</ele>
 <time>2011-10-22T12:45:58Z</time>
 </trkpt>
 <trkpt lat="47.845428" lon="13.024514">
 <ele>528.24</ele>
 <time>2011-10-22T12:46:06Z</time>
 </trkpt>
 <trkpt lat="47.845314" lon="13.023955">
 <ele>528.41</ele>
 <time>2011-10-22T12:46:14Z</time>
 </trkpt>
 <trkpt lat="47.845291" lon="13.023726">
 <ele>528.00</ele>
 <time>2011-10-22T12:46:17Z</time>
 </trkpt>
 <trkpt lat="47.845245" lon="13.023143">
 <ele>527.63</ele>
 <time>2011-10-22T12:46:25Z</time>
 </trkpt>
 <trkpt lat="47.845264" lon="13.022718">
 <ele>527.59</ele>
 <time>2011-10-22T12:46:31Z</time>
 </trkpt>
 <trkpt lat="47.845360" lon="13.022140">
 <ele>526.89</ele>
 <time>2011-10-22T12:46:39Z</time>
 </trkpt>
 <trkpt lat="47.845547" lon="13.021460">
 <ele>526.79</ele>
 <time>2011-10-22T12:46:49Z</time>
 </trkpt>
 <trkpt lat="47.845646" lon="13.020964">
 <ele>526.79</ele>
 <time>2011-10-22T12:46:56Z</time>
 </trkpt>
 <trkpt lat="47.845673" lon="13.020783">
 <ele>526.86</ele>
 <time>2011-10-22T12:47:00Z</time>
 </trkpt>
 <trkpt lat="47.845676" lon="13.020761">
 <ele>527.07</ele>
 <time>2011-10-22T12:47:03Z</time>
 </trkpt>
 <trkpt lat="47.845676" lon="13.020744">
 <ele>527.18</ele>
 <time>2011-10-22T12:47:07Z</time>
 </trkpt>
 <trkpt lat="47.845676" lon="13.020742">
 <ele>527.17</ele>
 <time>2011-10-22T12:47:08Z</time>
 </trkpt>
 <trkpt lat="47.845688" lon="13.020640">
 <ele>526.73</ele>
 <time>2011-10-22T12:47:26Z</time>
 </trkpt>
 <trkpt lat="47.845695" lon="13.020532">
 <ele>526.19</ele>
 <time>2011-10-22T12:47:28Z</time>
 </trkpt>
 <trkpt lat="47.845695" lon="13.020277">
 <ele>525.56</ele>
 <time>2011-10-22T12:47:33Z</time>
 </trkpt>
 <trkpt lat="47.845695" lon="13.020016">
 <ele>527.25</ele>
 <time>2011-10-22T12:47:39Z</time>
 </trkpt>
 <trkpt lat="47.845703" lon="13.019628">
 <ele>527.06</ele>
 <time>2011-10-22T12:47:47Z</time>
 </trkpt>
 <trkpt lat="47.845711" lon="13.019558">
 <ele>526.96</ele>
 <time>2011-10-22T12:47:51Z</time>
 </trkpt>
 <trkpt lat="47.845718" lon="13.019557">
 <ele>527.00</ele>
 <time>2011-10-22T12:47:52Z</time>
 </trkpt>
 <trkpt lat="47.845737" lon="13.019424">
 <ele>527.05</ele>
 <time>2011-10-22T12:47:59Z</time>
 </trkpt>
 <trkpt lat="47.845791" lon="13.019063">
 <ele>526.69</ele>
 <time>2011-10-22T12:48:05Z</time>
 </trkpt>
 <trkpt lat="47.845863" lon="13.018742">
 <ele>526.80</ele>
 <time>2011-10-22T12:48:10Z</time>
 </trkpt>
 <trkpt lat="47.846050" lon="13.018212">
 <ele>526.87</ele>
 <time>2011-10-22T12:48:19Z</time>
 </trkpt>
 <trkpt lat="47.846249" lon="13.017834">
 <ele>526.74</ele>
 <time>2011-10-22T12:48:26Z</time>
 </trkpt>
 <trkpt lat="47.846493" lon="13.017486">
 <ele>526.77</ele>
 <time>2011-10-22T12:48:34Z</time>
 </trkpt>
 <trkpt lat="47.846806" lon="13.017212">
 <ele>526.53</ele>
 <time>2011-10-22T12:48:42Z</time>
 </trkpt>
 <trkpt lat="47.847099" lon="13.017006">
 <ele>526.06</ele>
 <time>2011-10-22T12:48:50Z</time>
 </trkpt>
 <trkpt lat="47.847256" lon="13.016892">
 <ele>526.21</ele>
 <time>2011-10-22T12:48:56Z</time>
 </trkpt>
 <trkpt lat="47.847260" lon="13.016889">
 <ele>526.34</ele>
 <time>2011-10-22T12:48:58Z</time>
 </trkpt>
 <trkpt lat="47.847286" lon="13.016854">
 <ele>526.62</ele>
 <time>2011-10-22T12:49:03Z</time>
 </trkpt>
 <trkpt lat="47.847313" lon="13.016843">
 <ele>526.47</ele>
 <time>2011-10-22T12:49:06Z</time>
 </trkpt>
 <trkpt lat="47.847347" lon="13.016812">
 <ele>526.40</ele>
 <time>2011-10-22T12:49:10Z</time>
 </trkpt>
 <trkpt lat="47.847443" lon="13.016718">
 <ele>526.25</ele>
 <time>2011-10-22T12:49:14Z</time>
 </trkpt>
 <trkpt lat="47.847626" lon="13.016500">
 <ele>525.40</ele>
 <time>2011-10-22T12:49:20Z</time>
 </trkpt>
 <trkpt lat="47.847836" lon="13.016151">
 <ele>524.85</ele>
 <time>2011-10-22T12:49:27Z</time>
 </trkpt>
 <trkpt lat="47.847996" lon="13.015816">
 <ele>525.02</ele>
 <time>2011-10-22T12:49:33Z</time>
 </trkpt>
 <trkpt lat="47.848175" lon="13.015421">
 <ele>524.91</ele>
 <time>2011-10-22T12:49:40Z</time>
 </trkpt>
 <trkpt lat="47.848324" lon="13.015041">
 <ele>524.94</ele>
 <time>2011-10-22T12:49:46Z</time>
 </trkpt>
 <trkpt lat="47.848579" lon="13.014468">
 <ele>524.96</ele>
 <time>2011-10-22T12:49:55Z</time>
 </trkpt>
 <trkpt lat="47.848858" lon="13.014022">
 <ele>524.90</ele>
 <time>2011-10-22T12:50:03Z</time>
 </trkpt>
 <trkpt lat="47.848957" lon="13.013887">
 <ele>524.96</ele>
 <time>2011-10-22T12:50:06Z</time>
 </trkpt>
 <trkpt lat="47.849159" lon="13.013618">
 <ele>525.06</ele>
 <time>2011-10-22T12:50:13Z</time>
 </trkpt>
 <trkpt lat="47.849262" lon="13.013714">
 <ele>525.24</ele>
 <time>2011-10-22T12:50:18Z</time>
 </trkpt>
 <trkpt lat="47.849293" lon="13.013773">
 <ele>525.40</ele>
 <time>2011-10-22T12:50:20Z</time>
 </trkpt>
 <trkpt lat="47.849342" lon="13.013905">
 <ele>525.82</ele>
 <time>2011-10-22T12:50:25Z</time>
 </trkpt>
 <trkpt lat="47.849346" lon="13.013947">
 <ele>525.66</ele>
 <time>2011-10-22T12:50:30Z</time>
 </trkpt>
 <trkpt lat="47.849251" lon="13.014047">
 <ele>525.09</ele>
 <time>2011-10-22T12:51:18Z</time>
 </trkpt>
 <trkpt lat="47.849098" lon="13.014204">
 <ele>524.90</ele>
 <time>2011-10-22T12:51:23Z</time>
 </trkpt>
 <trkpt lat="47.848885" lon="13.014503">
 <ele>524.86</ele>
 <time>2011-10-22T12:51:30Z</time>
 </trkpt>
 <trkpt lat="47.848656" lon="13.014939">
 <ele>524.80</ele>
 <time>2011-10-22T12:51:38Z</time>
 </trkpt>
 <trkpt lat="47.848473" lon="13.015404">
 <ele>525.17</ele>
 <time>2011-10-22T12:51:46Z</time>
 </trkpt>
 <trkpt lat="47.848293" lon="13.015852">
 <ele>525.21</ele>
 <time>2011-10-22T12:51:54Z</time>
 </trkpt>
 <trkpt lat="47.848145" lon="13.016181">
 <ele>525.62</ele>
 <time>2011-10-22T12:52:01Z</time>
 </trkpt>
 <trkpt lat="47.847927" lon="13.016579">
 <ele>525.58</ele>
 <time>2011-10-22T12:52:09Z</time>
 </trkpt>
 <trkpt lat="47.847778" lon="13.016790">
 <ele>525.92</ele>
 <time>2011-10-22T12:52:15Z</time>
 </trkpt>
 <trkpt lat="47.847729" lon="13.016852">
 <ele>526.43</ele>
 <time>2011-10-22T12:52:20Z</time>
 </trkpt>
 <trkpt lat="47.847713" lon="13.016871">
 <ele>526.52</ele>
 <time>2011-10-22T12:52:23Z</time>
 </trkpt>
 <trkpt lat="47.847698" lon="13.016905">
 <ele>526.47</ele>
 <time>2011-10-22T12:52:27Z</time>
 </trkpt>
 <trkpt lat="47.847694" lon="13.016905">
 <ele>526.46</ele>
 <time>2011-10-22T12:52:28Z</time>
 </trkpt>
 <trkpt lat="47.847694" lon="13.016929">
 <ele>526.75</ele>
 <time>2011-10-22T12:53:01Z</time>
 </trkpt>
 <trkpt lat="47.847595" lon="13.017024">
 <ele>526.53</ele>
 <time>2011-10-22T12:53:08Z</time>
 </trkpt>
 <trkpt lat="47.847580" lon="13.017043">
 <ele>526.56</ele>
 <time>2011-10-22T12:53:10Z</time>
 </trkpt>
 <trkpt lat="47.847530" lon="13.017102">
 <ele>526.80</ele>
 <time>2011-10-22T12:53:16Z</time>
 </trkpt>
 <trkpt lat="47.847458" lon="13.017065">
 <ele>526.76</ele>
 <time>2011-10-22T12:53:20Z</time>
 </trkpt>
 <trkpt lat="47.847366" lon="13.016832">
 <ele>527.23</ele>
 <time>2011-10-22T12:53:26Z</time>
 </trkpt>
 <trkpt lat="47.847225" lon="13.016633">
 <ele>526.67</ele>
 <time>2011-10-22T12:53:31Z</time>
 </trkpt>
 <trkpt lat="47.847099" lon="13.016679">
 <ele>526.53</ele>
 <time>2011-10-22T12:53:34Z</time>
 </trkpt>
 <trkpt lat="47.847061" lon="13.016717">
 <ele>526.38</ele>
 <time>2011-10-22T12:53:35Z</time>
 </trkpt>
 <trkpt lat="47.846798" lon="13.016806">
 <ele>526.45</ele>
 <time>2011-10-22T12:53:41Z</time>
 </trkpt>
 <trkpt lat="47.846760" lon="13.016770">
 <ele>526.40</ele>
 <time>2011-10-22T12:53:42Z</time>
 </trkpt>
 <trkpt lat="47.846596" lon="13.016619">
 <ele>526.54</ele>
 <time>2011-10-22T12:53:46Z</time>
 </trkpt>
 <trkpt lat="47.846409" lon="13.016600">
 <ele>526.30</ele>
 <time>2011-10-22T12:53:50Z</time>
 </trkpt>
 <trkpt lat="47.846321" lon="13.016671">
 <ele>526.37</ele>
 <time>2011-10-22T12:53:52Z</time>
 </trkpt>
 <trkpt lat="47.845963" lon="13.017078">
 <ele>526.39</ele>
 <time>2011-10-22T12:54:01Z</time>
 </trkpt>
 <trkpt lat="47.845802" lon="13.017266">
 <ele>526.44</ele>
 <time>2011-10-22T12:54:05Z</time>
 </trkpt>
 <trkpt lat="47.845608" lon="13.017386">
 <ele>526.59</ele>
 <time>2011-10-22T12:54:09Z</time>
 </trkpt>
 <trkpt lat="47.845451" lon="13.017423">
 <ele>526.66</ele>
 <time>2011-10-22T12:54:12Z</time>
 </trkpt>
 <trkpt lat="47.845123" lon="13.017660">
 <ele>526.49</ele>
 <time>2011-10-22T12:54:19Z</time>
 </trkpt>
 <trkpt lat="47.844788" lon="13.018039">
 <ele>526.49</ele>
 <time>2011-10-22T12:54:27Z</time>
 </trkpt>
 <trkpt lat="47.844463" lon="13.018438">
 <ele>526.76</ele>
 <time>2011-10-22T12:54:35Z</time>
 </trkpt>
 <trkpt lat="47.844090" lon="13.018863">
 <ele>526.24</ele>
 <time>2011-10-22T12:54:44Z</time>
 </trkpt>
 <trkpt lat="47.843788" lon="13.019245">
 <ele>526.13</ele>
 <time>2011-10-22T12:54:52Z</time>
 </trkpt>
 <trkpt lat="47.843510" lon="13.019644">
 <ele>526.72</ele>
 <time>2011-10-22T12:55:00Z</time>
 </trkpt>
 <trkpt lat="47.843376" lon="13.019862">
 <ele>526.79</ele>
 <time>2011-10-22T12:55:04Z</time>
 </trkpt>
 <trkpt lat="47.843262" lon="13.020007">
 <ele>526.69</ele>
 <time>2011-10-22T12:55:07Z</time>
 </trkpt>
 <trkpt lat="47.843025" lon="13.020113">
 <ele>526.65</ele>
 <time>2011-10-22T12:55:12Z</time>
 </trkpt>
 <trkpt lat="47.842873" lon="13.020077">
 <ele>526.71</ele>
 <time>2011-10-22T12:55:15Z</time>
 </trkpt>
 <trkpt lat="47.842556" lon="13.019898">
 <ele>527.21</ele>
 <time>2011-10-22T12:55:22Z</time>
 </trkpt>
 <trkpt lat="47.842400" lon="13.019852">
 <ele>528.03</ele>
 <time>2011-10-22T12:55:27Z</time>
 </trkpt>
 <trkpt lat="47.842201" lon="13.019806">
 <ele>528.79</ele>
 <time>2011-10-22T12:55:34Z</time>
 </trkpt>
 <trkpt lat="47.842091" lon="13.019839">
 <ele>529.08</ele>
 <time>2011-10-22T12:55:37Z</time>
 </trkpt>
 <trkpt lat="47.841728" lon="13.019901">
 <ele>530.30</ele>
 <time>2011-10-22T12:55:46Z</time>
 </trkpt>
 <trkpt lat="47.841499" lon="13.019840">
 <ele>532.06</ele>
 <time>2011-10-22T12:55:52Z</time>
 </trkpt>
 <trkpt lat="47.841305" lon="13.019725">
 <ele>532.90</ele>
 <time>2011-10-22T12:55:58Z</time>
 </trkpt>
 <trkpt lat="47.841087" lon="13.019722">
 <ele>531.92</ele>
 <time>2011-10-22T12:56:03Z</time>
 </trkpt>
 <trkpt lat="47.840889" lon="13.019875">
 <ele>530.91</ele>
 <time>2011-10-22T12:56:07Z</time>
 </trkpt>
 <trkpt lat="47.840752" lon="13.020049">
 <ele>530.54</ele>
 <time>2011-10-22T12:56:10Z</time>
 </trkpt>
 <trkpt lat="47.840569" lon="13.020305">
 <ele>529.67</ele>
 <time>2011-10-22T12:56:14Z</time>
 </trkpt>
 <trkpt lat="47.840263" lon="13.020589">
 <ele>528.26</ele>
 <time>2011-10-22T12:56:20Z</time>
 </trkpt>
 <trkpt lat="47.840225" lon="13.020624">
 <ele>528.28</ele>
 <time>2011-10-22T12:56:21Z</time>
 </trkpt>
 <trkpt lat="47.840160" lon="13.020699">
 <ele>528.29</ele>
 <time>2011-10-22T12:56:23Z</time>
 </trkpt>
 <trkpt lat="47.839893" lon="13.020895">
 <ele>528.30</ele>
 <time>2011-10-22T12:56:31Z</time>
 </trkpt>
 <trkpt lat="47.839794" lon="13.020870">
 <ele>528.22</ele>
 <time>2011-10-22T12:56:34Z</time>
 </trkpt>
 <trkpt lat="47.839695" lon="13.020699">
 <ele>528.34</ele>
 <time>2011-10-22T12:56:39Z</time>
 </trkpt>
 <trkpt lat="47.839676" lon="13.020672">
 <ele>528.36</ele>
 <time>2011-10-22T12:56:40Z</time>
 </trkpt>
 <trkpt lat="47.839546" lon="13.020723">
 <ele>528.45</ele>
 <time>2011-10-22T12:56:45Z</time>
 </trkpt>
 <trkpt lat="47.839237" lon="13.020957">
 <ele>527.98</ele>
 <time>2011-10-22T12:56:53Z</time>
 </trkpt>
 <trkpt lat="47.838905" lon="13.021220">
 <ele>527.90</ele>
 <time>2011-10-22T12:57:01Z</time>
 </trkpt>
 <trkpt lat="47.838654" lon="13.021319">
 <ele>527.97</ele>
 <time>2011-10-22T12:57:07Z</time>
 </trkpt>
 <trkpt lat="47.838226" lon="13.021507">
 <ele>527.79</ele>
 <time>2011-10-22T12:57:16Z</time>
 </trkpt>
 <trkpt lat="47.837887" lon="13.021850">
 <ele>527.35</ele>
 <time>2011-10-22T12:57:24Z</time>
 </trkpt>
 <trkpt lat="47.837551" lon="13.022231">
 <ele>527.15</ele>
 <time>2011-10-22T12:57:32Z</time>
 </trkpt>
 <trkpt lat="47.837173" lon="13.022662">
 <ele>527.36</ele>
 <time>2011-10-22T12:57:41Z</time>
 </trkpt>
 <trkpt lat="47.837017" lon="13.022831">
 <ele>527.25</ele>
 <time>2011-10-22T12:57:45Z</time>
 </trkpt>
 <trkpt lat="47.836666" lon="13.023218">
 <ele>527.17</ele>
 <time>2011-10-22T12:57:54Z</time>
 </trkpt>
 <trkpt lat="47.836285" lon="13.023641">
 <ele>527.59</ele>
 <time>2011-10-22T12:58:03Z</time>
 </trkpt>
 <trkpt lat="47.835934" lon="13.024024">
 <ele>527.42</ele>
 <time>2011-10-22T12:58:11Z</time>
 </trkpt>
 <trkpt lat="47.835514" lon="13.024496">
 <ele>527.36</ele>
 <time>2011-10-22T12:58:21Z</time>
 </trkpt>
 <trkpt lat="47.835152" lon="13.024915">
 <ele>527.70</ele>
 <time>2011-10-22T12:58:30Z</time>
 </trkpt>
 <trkpt lat="47.834812" lon="13.025281">
 <ele>527.42</ele>
 <time>2011-10-22T12:58:38Z</time>
 </trkpt>
 <trkpt lat="47.834316" lon="13.025851">
 <ele>527.52</ele>
 <time>2011-10-22T12:58:50Z</time>
 </trkpt>
 <trkpt lat="47.833961" lon="13.026234">
 <ele>527.25</ele>
 <time>2011-10-22T12:58:58Z</time>
 </trkpt>
 <trkpt lat="47.833878" lon="13.026324">
 <ele>527.30</ele>
 <time>2011-10-22T12:59:00Z</time>
 </trkpt>
 <trkpt lat="47.833580" lon="13.026634">
 <ele>527.37</ele>
 <time>2011-10-22T12:59:07Z</time>
 </trkpt>
 <trkpt lat="47.833267" lon="13.026941">
 <ele>527.59</ele>
 <time>2011-10-22T12:59:14Z</time>
 </trkpt>
 <trkpt lat="47.832958" lon="13.027231">
 <ele>527.87</ele>
 <time>2011-10-22T12:59:21Z</time>
 </trkpt>
 <trkpt lat="47.832596" lon="13.027572">
 <ele>528.00</ele>
 <time>2011-10-22T12:59:29Z</time>
 </trkpt>
 <trkpt lat="47.832150" lon="13.027963">
 <ele>528.71</ele>
 <time>2011-10-22T12:59:39Z</time>
 </trkpt>
 <trkpt lat="47.831802" lon="13.028293">
 <ele>529.22</ele>
 <time>2011-10-22T12:59:47Z</time>
 </trkpt>
 <trkpt lat="47.831467" lon="13.028545">
 <ele>528.14</ele>
 <time>2011-10-22T12:59:54Z</time>
 </trkpt>
 <trkpt lat="47.831097" lon="13.028874">
 <ele>528.41</ele>
 <time>2011-10-22T13:00:02Z</time>
 </trkpt>
 <trkpt lat="47.831013" lon="13.028949">
 <ele>528.42</ele>
 <time>2011-10-22T13:00:04Z</time>
 </trkpt>
 <trkpt lat="47.830643" lon="13.029238">
 <ele>528.95</ele>
 <time>2011-10-22T13:00:12Z</time>
 </trkpt>
 <trkpt lat="47.830276" lon="13.029540">
 <ele>529.29</ele>
 <time>2011-10-22T13:00:20Z</time>
 </trkpt>
 <trkpt lat="47.829845" lon="13.029889">
 <ele>530.03</ele>
 <time>2011-10-22T13:00:30Z</time>
 </trkpt>
 <trkpt lat="47.829414" lon="13.030204">
 <ele>529.57</ele>
 <time>2011-10-22T13:00:39Z</time>
 </trkpt>
 <trkpt lat="47.828873" lon="13.030588">
 <ele>529.44</ele>
 <time>2011-10-22T13:00:50Z</time>
 </trkpt>
 <trkpt lat="47.828583" lon="13.030833">
 <ele>529.72</ele>
 <time>2011-10-22T13:00:57Z</time>
 </trkpt>
 <trkpt lat="47.828392" lon="13.030984">
 <ele>531.55</ele>
 <time>2011-10-22T13:01:03Z</time>
 </trkpt>
 <trkpt lat="47.828377" lon="13.030997">
 <ele>531.55</ele>
 <time>2011-10-22T13:01:04Z</time>
 </trkpt>
 <trkpt lat="47.828220" lon="13.031055">
 <ele>532.58</ele>
 <time>2011-10-22T13:01:09Z</time>
 </trkpt>
 <trkpt lat="47.828136" lon="13.031039">
 <ele>532.55</ele>
 <time>2011-10-22T13:01:11Z</time>
 </trkpt>
 <trkpt lat="47.827820" lon="13.031204">
 <ele>530.86</ele>
 <time>2011-10-22T13:01:17Z</time>
 </trkpt>
 <trkpt lat="47.827431" lon="13.031438">
 <ele>528.88</ele>
 <time>2011-10-22T13:01:24Z</time>
 </trkpt>
 <trkpt lat="47.827110" lon="13.031653">
 <ele>529.38</ele>
 <time>2011-10-22T13:01:31Z</time>
 </trkpt>
 <trkpt lat="47.826672" lon="13.031991">
 <ele>529.91</ele>
 <time>2011-10-22T13:01:41Z</time>
 </trkpt>
 <trkpt lat="47.826508" lon="13.032114">
 <ele>530.90</ele>
 <time>2011-10-22T13:01:46Z</time>
 </trkpt>
 <trkpt lat="47.826275" lon="13.032253">
 <ele>532.61</ele>
 <time>2011-10-22T13:01:53Z</time>
 </trkpt>
 <trkpt lat="47.826023" lon="13.032413">
 <ele>532.15</ele>
 <time>2011-10-22T13:01:59Z</time>
 </trkpt>
 <trkpt lat="47.825554" lon="13.032693">
 <ele>530.96</ele>
 <time>2011-10-22T13:02:09Z</time>
 </trkpt>
 <trkpt lat="47.825146" lon="13.032926">
 <ele>531.18</ele>
 <time>2011-10-22T13:02:18Z</time>
 </trkpt>
 <trkpt lat="47.824646" lon="13.033226">
 <ele>531.43</ele>
 <time>2011-10-22T13:02:29Z</time>
 </trkpt>
 <trkpt lat="47.824223" lon="13.033468">
 <ele>531.40</ele>
 <time>2011-10-22T13:02:38Z</time>
 </trkpt>
 <trkpt lat="47.823776" lon="13.033728">
 <ele>531.71</ele>
 <time>2011-10-22T13:02:48Z</time>
 </trkpt>
 <trkpt lat="47.823586" lon="13.033853">
 <ele>532.05</ele>
 <time>2011-10-22T13:02:54Z</time>
 </trkpt>
 <trkpt lat="47.823540" lon="13.033859">
 <ele>532.21</ele>
 <time>2011-10-22T13:02:56Z</time>
 </trkpt>
 <trkpt lat="47.823475" lon="13.033695">
 <ele>532.24</ele>
 <time>2011-10-22T13:03:01Z</time>
 </trkpt>
 <trkpt lat="47.823395" lon="13.033322">
 <ele>532.98</ele>
 <time>2011-10-22T13:03:09Z</time>
 </trkpt>
 <trkpt lat="47.823273" lon="13.032873">
 <ele>533.41</ele>
 <time>2011-10-22T13:03:17Z</time>
 </trkpt>
 <trkpt lat="47.823196" lon="13.032567">
 <ele>533.08</ele>
 <time>2011-10-22T13:03:23Z</time>
 </trkpt>
 <trkpt lat="47.823257" lon="13.032477">
 <ele>532.59</ele>
 <time>2011-10-22T13:03:27Z</time>
 </trkpt>
 <trkpt lat="47.823486" lon="13.032359">
 <ele>532.21</ele>
 <time>2011-10-22T13:03:34Z</time>
 </trkpt>
 <trkpt lat="47.823601" lon="13.032295">
 <ele>531.73</ele>
 <time>2011-10-22T13:03:38Z</time>
 </trkpt>
 <trkpt lat="47.823639" lon="13.032151">
 <ele>530.47</ele>
 <time>2011-10-22T13:03:42Z</time>
 </trkpt>
 <trkpt lat="47.823612" lon="13.032108">
 <ele>529.99</ele>
 <time>2011-10-22T13:03:43Z</time>
 </trkpt>
 <trkpt lat="47.823303" lon="13.031857">
 <ele>528.89</ele>
 <time>2011-10-22T13:03:52Z</time>
 </trkpt>
 <trkpt lat="47.823208" lon="13.031771">
 <ele>530.75</ele>
 <time>2011-10-22T13:03:56Z</time>
 </trkpt>
 <trkpt lat="47.823086" lon="13.031687">
 <ele>531.85</ele>
 <time>2011-10-22T13:04:00Z</time>
 </trkpt>
 <trkpt lat="47.822845" lon="13.031487">
 <ele>532.33</ele>
 <time>2011-10-22T13:04:07Z</time>
 </trkpt>
 <trkpt lat="47.822803" lon="13.031452">
 <ele>532.41</ele>
 <time>2011-10-22T13:04:08Z</time>
 </trkpt>
 <trkpt lat="47.822548" lon="13.031254">
 <ele>532.35</ele>
 <time>2011-10-22T13:04:14Z</time>
 </trkpt>
 <trkpt lat="47.822464" lon="13.031164">
 <ele>532.13</ele>
 <time>2011-10-22T13:04:16Z</time>
 </trkpt>
 <trkpt lat="47.822227" lon="13.030971">
 <ele>532.04</ele>
 <time>2011-10-22T13:04:22Z</time>
 </trkpt>
 <trkpt lat="47.821911" lon="13.030719">
 <ele>532.10</ele>
 <time>2011-10-22T13:04:30Z</time>
 </trkpt>
 <trkpt lat="47.821499" lon="13.030388">
 <ele>532.11</ele>
 <time>2011-10-22T13:04:40Z</time>
 </trkpt>
 <trkpt lat="47.821159" lon="13.030113">
 <ele>532.30</ele>
 <time>2011-10-22T13:04:48Z</time>
 </trkpt>
 <trkpt lat="47.820747" lon="13.029772">
 <ele>532.20</ele>
 <time>2011-10-22T13:04:58Z</time>
 </trkpt>
 <trkpt lat="47.820511" lon="13.029572">
 <ele>532.45</ele>
 <time>2011-10-22T13:05:05Z</time>
 </trkpt>
 <trkpt lat="47.820469" lon="13.029546">
 <ele>532.56</ele>
 <time>2011-10-22T13:05:06Z</time>
 </trkpt>
 <trkpt lat="47.820148" lon="13.029283">
 <ele>532.31</ele>
 <time>2011-10-22T13:05:14Z</time>
 </trkpt>
 <trkpt lat="47.820007" lon="13.029167">
 <ele>532.24</ele>
 <time>2011-10-22T13:05:19Z</time>
 </trkpt>
 <trkpt lat="47.820042" lon="13.029003">
 <ele>532.58</ele>
 <time>2011-10-22T13:05:24Z</time>
 </trkpt>
 <trkpt lat="47.820072" lon="13.028865">
 <ele>532.74</ele>
 <time>2011-10-22T13:05:28Z</time>
 </trkpt>
 <trkpt lat="47.820007" lon="13.028742">
 <ele>532.82</ele>
 <time>2011-10-22T13:05:32Z</time>
 </trkpt>
 <trkpt lat="47.819721" lon="13.028514">
 <ele>532.57</ele>
 <time>2011-10-22T13:05:40Z</time>
 </trkpt>
 <trkpt lat="47.819435" lon="13.028261">
 <ele>532.43</ele>
 <time>2011-10-22T13:05:49Z</time>
 </trkpt>
 <trkpt lat="47.819355" lon="13.028022">
 <ele>532.56</ele>
 <time>2011-10-22T13:05:55Z</time>
 </trkpt>
 <trkpt lat="47.819439" lon="13.027906">
 <ele>532.05</ele>
 <time>2011-10-22T13:05:59Z</time>
 </trkpt>
 <trkpt lat="47.819733" lon="13.027747">
 <ele>531.20</ele>
 <time>2011-10-22T13:06:08Z</time>
 </trkpt>
 <trkpt lat="47.820023" lon="13.027576">
 <ele>531.11</ele>
 <time>2011-10-22T13:06:16Z</time>
 </trkpt>
 <trkpt lat="47.820072" lon="13.027514">
 <ele>531.09</ele>
 <time>2011-10-22T13:06:18Z</time>
 </trkpt>
 <trkpt lat="47.820057" lon="13.027357">
 <ele>531.42</ele>
 <time>2011-10-22T13:06:22Z</time>
 </trkpt>
 <trkpt lat="47.819931" lon="13.027037">
 <ele>531.70</ele>
 <time>2011-10-22T13:06:28Z</time>
 </trkpt>
 <trkpt lat="47.819721" lon="13.026488">
 <ele>531.44</ele>
 <time>2011-10-22T13:06:37Z</time>
 </trkpt>
 <trkpt lat="47.819626" lon="13.026234">
 <ele>531.20</ele>
 <time>2011-10-22T13:06:41Z</time>
 </trkpt>
 <trkpt lat="47.819530" lon="13.026005">
 <ele>531.20</ele>
 <time>2011-10-22T13:06:45Z</time>
 </trkpt>
 <trkpt lat="47.819370" lon="13.025552">
 <ele>531.38</ele>
 <time>2011-10-22T13:06:53Z</time>
 </trkpt>
 <trkpt lat="47.819218" lon="13.025123">
 <ele>531.02</ele>
 <time>2011-10-22T13:07:00Z</time>
 </trkpt>
 <trkpt lat="47.819103" lon="13.024780">
 <ele>531.22</ele>
 <time>2011-10-22T13:07:06Z</time>
 </trkpt>
 <trkpt lat="47.818947" lon="13.024357">
 <ele>531.22</ele>
 <time>2011-10-22T13:07:13Z</time>
 </trkpt>
 <trkpt lat="47.818790" lon="13.023918">
 <ele>531.40</ele>
 <time>2011-10-22T13:07:21Z</time>
 </trkpt>
 <trkpt lat="47.818668" lon="13.023588">
 <ele>531.10</ele>
 <time>2011-10-22T13:07:28Z</time>
 </trkpt>
 <trkpt lat="47.818611" lon="13.023441">
 <ele>531.25</ele>
 <time>2011-10-22T13:07:33Z</time>
 </trkpt>
 <trkpt lat="47.818607" lon="13.023435">
 <ele>531.40</ele>
 <time>2011-10-22T13:07:34Z</time>
 </trkpt>
 <trkpt lat="47.818569" lon="13.023421">
 <ele>531.60</ele>
 <time>2011-10-22T13:07:37Z</time>
 </trkpt>
 <trkpt lat="47.818474" lon="13.023576">
 <ele>531.45</ele>
 <time>2011-10-22T13:07:42Z</time>
 </trkpt>
 <trkpt lat="47.818298" lon="13.024012">
 <ele>531.58</ele>
 <time>2011-10-22T13:07:52Z</time>
 </trkpt>
 <trkpt lat="47.818138" lon="13.024411">
 <ele>531.74</ele>
 <time>2011-10-22T13:08:00Z</time>
 </trkpt>
 <trkpt lat="47.817940" lon="13.024909">
 <ele>531.48</ele>
 <time>2011-10-22T13:08:08Z</time>
 </trkpt>
 <trkpt lat="47.817753" lon="13.025360">
 <ele>531.57</ele>
 <time>2011-10-22T13:08:16Z</time>
 </trkpt>
 <trkpt lat="47.817703" lon="13.025489">
 <ele>531.67</ele>
 <time>2011-10-22T13:08:19Z</time>
 </trkpt>
 <trkpt lat="47.817608" lon="13.025420">
 <ele>531.84</ele>
 <time>2011-10-22T13:08:24Z</time>
 </trkpt>
 <trkpt lat="47.817535" lon="13.025211">
 <ele>531.53</ele>
 <time>2011-10-22T13:08:28Z</time>
 </trkpt>
 <trkpt lat="47.817509" lon="13.025091">
 <ele>531.31</ele>
 <time>2011-10-22T13:08:30Z</time>
 </trkpt>
 <trkpt lat="47.817467" lon="13.024977">
 <ele>531.12</ele>
 <time>2011-10-22T13:08:32Z</time>
 </trkpt>
 <trkpt lat="47.817371" lon="13.024665">
 <ele>531.11</ele>
 <time>2011-10-22T13:08:37Z</time>
 </trkpt>
 <trkpt lat="47.817322" lon="13.024553">
 <ele>531.31</ele>
 <time>2011-10-22T13:08:39Z</time>
 </trkpt>
 <trkpt lat="47.817093" lon="13.023966">
 <ele>531.64</ele>
 <time>2011-10-22T13:08:49Z</time>
 </trkpt>
 <trkpt lat="47.816917" lon="13.023537">
 <ele>531.88</ele>
 <time>2011-10-22T13:08:56Z</time>
 </trkpt>
 <trkpt lat="47.816666" lon="13.022985">
 <ele>532.08</ele>
 <time>2011-10-22T13:09:05Z</time>
 </trkpt>
 <trkpt lat="47.816380" lon="13.022325">
 <ele>532.10</ele>
 <time>2011-10-22T13:09:15Z</time>
 </trkpt>
 <trkpt lat="47.816212" lon="13.021927">
 <ele>531.90</ele>
 <time>2011-10-22T13:09:21Z</time>
 </trkpt>
 <trkpt lat="47.816055" lon="13.021462">
 <ele>532.42</ele>
 <time>2011-10-22T13:09:29Z</time>
 </trkpt>
 <trkpt lat="47.816010" lon="13.021310">
 <ele>532.45</ele>
 <time>2011-10-22T13:09:32Z</time>
 </trkpt>
 <trkpt lat="47.815819" lon="13.020960">
 <ele>532.35</ele>
 <time>2011-10-22T13:09:40Z</time>
 </trkpt>
 <trkpt lat="47.815601" lon="13.020796">
 <ele>532.17</ele>
 <time>2011-10-22T13:09:46Z</time>
 </trkpt>
 <trkpt lat="47.815361" lon="13.020599">
 <ele>532.02</ele>
 <time>2011-10-22T13:09:53Z</time>
 </trkpt>
 <trkpt lat="47.815334" lon="13.020544">
 <ele>532.08</ele>
 <time>2011-10-22T13:09:55Z</time>
 </trkpt>
 <trkpt lat="47.815334" lon="13.020519">
 <ele>532.44</ele>
 <time>2011-10-22T13:09:58Z</time>
 </trkpt>
 <trkpt lat="47.815334" lon="13.020433">
 <ele>532.51</ele>
 <time>2011-10-22T13:10:11Z</time>
 </trkpt>
 <trkpt lat="47.815239" lon="13.020415">
 <ele>532.35</ele>
 <time>2011-10-22T13:10:15Z</time>
 </trkpt>
 <trkpt lat="47.814938" lon="13.020636">
 <ele>532.15</ele>
 <time>2011-10-22T13:10:23Z</time>
 </trkpt>
 <trkpt lat="47.814781" lon="13.020749">
 <ele>532.46</ele>
 <time>2011-10-22T13:10:28Z</time>
 </trkpt>
 <trkpt lat="47.814674" lon="13.020847">
 <ele>532.61</ele>
 <time>2011-10-22T13:10:32Z</time>
 </trkpt>
 <trkpt lat="47.814346" lon="13.021101">
 <ele>532.38</ele>
 <time>2011-10-22T13:10:40Z</time>
 </trkpt>
 <trkpt lat="47.813778" lon="13.021536">
 <ele>532.29</ele>
 <time>2011-10-22T13:10:53Z</time>
 </trkpt>
 <trkpt lat="47.813232" lon="13.021946">
 <ele>533.07</ele>
 <time>2011-10-22T13:11:05Z</time>
 </trkpt>
 <trkpt lat="47.813190" lon="13.021970">
 <ele>533.16</ele>
 <time>2011-10-22T13:11:06Z</time>
 </trkpt>
 <trkpt lat="47.812881" lon="13.022062">
 <ele>533.82</ele>
 <time>2011-10-22T13:11:14Z</time>
 </trkpt>
 <trkpt lat="47.812664" lon="13.022023">
 <ele>534.27</ele>
 <time>2011-10-22T13:11:21Z</time>
 </trkpt>
 <trkpt lat="47.812405" lon="13.021863">
 <ele>534.40</ele>
 <time>2011-10-22T13:11:28Z</time>
 </trkpt>
 <trkpt lat="47.812061" lon="13.021656">
 <ele>533.97</ele>
 <time>2011-10-22T13:11:36Z</time>
 </trkpt>
 <trkpt lat="47.811691" lon="13.021441">
 <ele>533.70</ele>
 <time>2011-10-22T13:11:44Z</time>
 </trkpt>
 <trkpt lat="47.811604" lon="13.021386">
 <ele>533.77</ele>
 <time>2011-10-22T13:11:46Z</time>
 </trkpt>
 <trkpt lat="47.811478" lon="13.021294">
 <ele>533.91</ele>
 <time>2011-10-22T13:11:49Z</time>
 </trkpt>
 <trkpt lat="47.811298" lon="13.021093">
 <ele>534.09</ele>
 <time>2011-10-22T13:11:55Z</time>
 </trkpt>
 <trkpt lat="47.811203" lon="13.021122">
 <ele>534.30</ele>
 <time>2011-10-22T13:12:00Z</time>
 </trkpt>
 <trkpt lat="47.811199" lon="13.021124">
 <ele>534.37</ele>
 <time>2011-10-22T13:12:02Z</time>
 </trkpt>
 <trkpt lat="47.811031" lon="13.021117">
 <ele>534.39</ele>
 <time>2011-10-22T13:12:18Z</time>
 </trkpt>
 <trkpt lat="47.810699" lon="13.020989">
 <ele>534.19</ele>
 <time>2011-10-22T13:12:25Z</time>
 </trkpt>
 <trkpt lat="47.810196" lon="13.020793">
 <ele>534.43</ele>
 <time>2011-10-22T13:12:35Z</time>
 </trkpt>
 <trkpt lat="47.809631" lon="13.020637">
 <ele>534.74</ele>
 <time>2011-10-22T13:12:46Z</time>
 </trkpt>
 <trkpt lat="47.809307" lon="13.020578">
 <ele>534.93</ele>
 <time>2011-10-22T13:12:53Z</time>
 </trkpt>
 <trkpt lat="47.809174" lon="13.020582">
 <ele>535.10</ele>
 <time>2011-10-22T13:12:56Z</time>
 </trkpt>
 <trkpt lat="47.808968" lon="13.020494">
 <ele>535.16</ele>
 <time>2011-10-22T13:13:01Z</time>
 </trkpt>
 <trkpt lat="47.808865" lon="13.020367">
 <ele>535.45</ele>
 <time>2011-10-22T13:13:05Z</time>
 </trkpt>
 <trkpt lat="47.808846" lon="13.020303">
 <ele>535.88</ele>
 <time>2011-10-22T13:13:10Z</time>
 </trkpt>
 <trkpt lat="47.808811" lon="13.020277">
 <ele>536.04</ele>
 <time>2011-10-22T13:13:23Z</time>
 </trkpt>
 <trkpt lat="47.808876" lon="13.020331">
 <ele>535.98</ele>
 <time>2011-10-22T13:13:47Z</time>
 </trkpt>
 <trkpt lat="47.808937" lon="13.020402">
 <ele>535.71</ele>
 <time>2011-10-22T13:13:50Z</time>
 </trkpt>
 <trkpt lat="47.809090" lon="13.020473">
 <ele>535.43</ele>
 <time>2011-10-22T13:13:56Z</time>
 </trkpt>
 <trkpt lat="47.809189" lon="13.020588">
 <ele>535.10</ele>
 <time>2011-10-22T13:14:00Z</time>
 </trkpt>
 <trkpt lat="47.809319" lon="13.020584">
 <ele>534.97</ele>
 <time>2011-10-22T13:14:05Z</time>
 </trkpt>
 <trkpt lat="47.809395" lon="13.020591">
 <ele>534.95</ele>
 <time>2011-10-22T13:14:08Z</time>
 </trkpt>
 <trkpt lat="47.809467" lon="13.020505">
 <ele>535.07</ele>
 <time>2011-10-22T13:14:12Z</time>
 </trkpt>
 <trkpt lat="47.809574" lon="13.020386">
 <ele>535.37</ele>
 <time>2011-10-22T13:14:16Z</time>
 </trkpt>
 <trkpt lat="47.809807" lon="13.020081">
 <ele>535.20</ele>
 <time>2011-10-22T13:14:24Z</time>
 </trkpt>
 <trkpt lat="47.810017" lon="13.019962">
 <ele>535.00</ele>
 <time>2011-10-22T13:14:31Z</time>
 </trkpt>
 <trkpt lat="47.810196" lon="13.019879">
 <ele>534.65</ele>
 <time>2011-10-22T13:14:37Z</time>
 </trkpt>
 <trkpt lat="47.810314" lon="13.019618">
 <ele>534.56</ele>
 <time>2011-10-22T13:14:42Z</time>
 </trkpt>
 <trkpt lat="47.810326" lon="13.019560">
 <ele>534.55</ele>
 <time>2011-10-22T13:14:43Z</time>
 </trkpt>
 <trkpt lat="47.810390" lon="13.019153">
 <ele>534.66</ele>
 <time>2011-10-22T13:14:50Z</time>
 </trkpt>
 <trkpt lat="47.810482" lon="13.018896">
 <ele>534.68</ele>
 <time>2011-10-22T13:14:55Z</time>
 </trkpt>
 <trkpt lat="47.810638" lon="13.018654">
 <ele>534.66</ele>
 <time>2011-10-22T13:15:01Z</time>
 </trkpt>
 <trkpt lat="47.810829" lon="13.018393">
 <ele>534.82</ele>
 <time>2011-10-22T13:15:08Z</time>
 </trkpt>
 <trkpt lat="47.810989" lon="13.018173">
 <ele>535.19</ele>
 <time>2011-10-22T13:15:14Z</time>
 </trkpt>
 <trkpt lat="47.811047" lon="13.017942">
 <ele>535.33</ele>
 <time>2011-10-22T13:15:18Z</time>
 </trkpt>
 <trkpt lat="47.811081" lon="13.017759">
 <ele>535.55</ele>
 <time>2011-10-22T13:15:21Z</time>
 </trkpt>
 <trkpt lat="47.811172" lon="13.017549">
 <ele>536.16</ele>
 <time>2011-10-22T13:15:25Z</time>
 </trkpt>
 <trkpt lat="47.811398" lon="13.017195">
 <ele>536.23</ele>
 <time>2011-10-22T13:15:32Z</time>
 </trkpt>
 <trkpt lat="47.811600" lon="13.016852">
 <ele>537.84</ele>
 <time>2011-10-22T13:15:39Z</time>
 </trkpt>
 <trkpt lat="47.811764" lon="13.016612">
 <ele>539.56</ele>
 <time>2011-10-22T13:15:45Z</time>
 </trkpt>
 <trkpt lat="47.812069" lon="13.016205">
 <ele>539.72</ele>
 <time>2011-10-22T13:15:54Z</time>
 </trkpt>
 <trkpt lat="47.812443" lon="13.015727">
 <ele>539.17</ele>
 <time>2011-10-22T13:16:04Z</time>
 </trkpt>
 <trkpt lat="47.812756" lon="13.015320">
 <ele>538.82</ele>
 <time>2011-10-22T13:16:13Z</time>
 </trkpt>
 <trkpt lat="47.813030" lon="13.014947">
 <ele>538.97</ele>
 <time>2011-10-22T13:16:21Z</time>
 </trkpt>
 <trkpt lat="47.813282" lon="13.014624">
 <ele>539.10</ele>
 <time>2011-10-22T13:16:28Z</time>
 </trkpt>
 <trkpt lat="47.813618" lon="13.014191">
 <ele>539.30</ele>
 <time>2011-10-22T13:16:37Z</time>
 </trkpt>
 <trkpt lat="47.813915" lon="13.013790">
 <ele>540.05</ele>
 <time>2011-10-22T13:16:46Z</time>
 </trkpt>
 <trkpt lat="47.814369" lon="13.013189">
 <ele>540.19</ele>
 <time>2011-10-22T13:16:59Z</time>
 </trkpt>
 <trkpt lat="47.814762" lon="13.012665">
 <ele>539.66</ele>
 <time>2011-10-22T13:17:10Z</time>
 </trkpt>
 <trkpt lat="47.815105" lon="13.012201">
 <ele>539.85</ele>
 <time>2011-10-22T13:17:20Z</time>
 </trkpt>
 <trkpt lat="47.815414" lon="13.011813">
 <ele>538.79</ele>
 <time>2011-10-22T13:17:29Z</time>
 </trkpt>
 <trkpt lat="47.815739" lon="13.011408">
 <ele>538.48</ele>
 <time>2011-10-22T13:17:38Z</time>
 </trkpt>
 <trkpt lat="47.816139" lon="13.011012">
 <ele>537.28</ele>
 <time>2011-10-22T13:17:47Z</time>
 </trkpt>
 <trkpt lat="47.816380" lon="13.010702">
 <ele>536.33</ele>
 <time>2011-10-22T13:17:53Z</time>
 </trkpt>
 <trkpt lat="47.816448" lon="13.010609">
 <ele>535.96</ele>
 <time>2011-10-22T13:17:56Z</time>
 </trkpt>
 <trkpt lat="47.816456" lon="13.010483">
 <ele>536.04</ele>
 <time>2011-10-22T13:18:00Z</time>
 </trkpt>
 <trkpt lat="47.816441" lon="13.010465">
 <ele>536.04</ele>
 <time>2011-10-22T13:18:02Z</time>
 </trkpt>
 <trkpt lat="47.816330" lon="13.010368">
 <ele>535.93</ele>
 <time>2011-10-22T13:18:06Z</time>
 </trkpt>
 <trkpt lat="47.816212" lon="13.010164">
 <ele>536.03</ele>
 <time>2011-10-22T13:18:10Z</time>
 </trkpt>
 <trkpt lat="47.816120" lon="13.009973">
 <ele>536.33</ele>
 <time>2011-10-22T13:18:14Z</time>
 </trkpt>
 <trkpt lat="47.815929" lon="13.009702">
 <ele>537.54</ele>
 <time>2011-10-22T13:18:22Z</time>
 </trkpt>
 <trkpt lat="47.815784" lon="13.009532">
 <ele>539.10</ele>
 <time>2011-10-22T13:18:28Z</time>
 </trkpt>
 <trkpt lat="47.815708" lon="13.009361">
 <ele>539.90</ele>
 <time>2011-10-22T13:18:33Z</time>
 </trkpt>
 <trkpt lat="47.815662" lon="13.009380">
 <ele>540.23</ele>
 <time>2011-10-22T13:18:37Z</time>
 </trkpt>
 <trkpt lat="47.815643" lon="13.009434">
 <ele>540.23</ele>
 <time>2011-10-22T13:18:39Z</time>
 </trkpt>
 <trkpt lat="47.815613" lon="13.009505">
 <ele>540.38</ele>
 <time>2011-10-22T13:18:43Z</time>
 </trkpt>
 <trkpt lat="47.815647" lon="13.009609">
 <ele>540.26</ele>
 <time>2011-10-22T13:18:49Z</time>
 </trkpt>
 <trkpt lat="47.815781" lon="13.009759">
 <ele>539.83</ele>
 <time>2011-10-22T13:18:55Z</time>
 </trkpt>
 <trkpt lat="47.815872" lon="13.009933">
 <ele>539.81</ele>
 <time>2011-10-22T13:19:01Z</time>
 </trkpt>
 <trkpt lat="47.815842" lon="13.010025">
 <ele>539.90</ele>
 <time>2011-10-22T13:19:05Z</time>
 </trkpt>
 <trkpt lat="47.815796" lon="13.010112">
 <ele>540.10</ele>
 <time>2011-10-22T13:19:11Z</time>
 </trkpt>
 </trkseg>
 </trk>
</gpx>
